[[{"header":{"parameterUnit":"m.s-1","parameterCategory":1,"la1":30.6,"la2":29.2853,"lo1":-89.7004,"lo2":-87.6739,"dy":0.0162,"dx":0.0183,"nx":112,"ny":82,"refTime":"2023-03-10T06:00:00:Z","depth":0,"parameterNumber":2,"parameterNumberName":"U-component_of_WINDS"},"data":[0.0,0.0,0.0,0.0,0.0,0.0,0.0,0.0,0.0,0.0,0.0,0.0,0.0,0.0,0.0,0.0,0.0,0.0,0.0,0.0,0.0,0.0,0.0,0.0,0.0,0.0,0.0,0.0,0.0,0.0,0.0,0.0,0.0,0.0,0.0,0.0,0.0,0.0,0.0,0.0,0.0,0.0,0.0,0.0,0.0,0.0,0.0,0.0,0.0,0.0,0.0,0.0,0.0,0.0,0.0,0.0,0.0,0.0,0.0,0.0,0.0,0.0,0.0,0.0,0.0,0.0,0.0,0.0,0.0,0.0,0.0,0.0,0.0,0.0,0.0,0.0,0.0,0.0,0.0,0.0,0.0,0.0,0.0,0.0,0.0,0.0,0.0,0.0,0.0,0.0,-2.5311,-2.7995,-3.1547,-3.341,-3.2656,-3.1641,-3.0448,-2.9097,0.0,0.0,0.0,0.0,0.0,0.0,0.0,0.0,0.0,0.0,0.0,0.0,0.0,0.0,0.0,0.0,0.0,0.0,0.0,0.0,0.0,0.0,0.0,0.0,0.0,0.0,0.0,0.0,0.0,0.0,0.0,0.0,0.0,0.0,0.0,0.0,0.0,0.0,0.0,0.0,0.0,0.0,0.0,0.0,0.0,0.0,0.0,0.0,0.0,0.0,0.0,0.0,0.0,0.0,0.0,0.0,0.0,0.0,0.0,0.0,0.0,0.0,0.0,0.0,0.0,0.0,0.0,0.0,0.0,0.0,0.0,0.0,0.0,0.0,0.0,0.0,0.0,0.0,0.0,0.0,0.0,0.0,0.0,0.0,0.0,0.0,0.0,0.0,0.0,0.0,0.0,0.0,0.0,0.0,0.0,0.0,0.0,0.0,0.0,0.0,0.0,0.0,0.0,0.0,-2.617,-3.0012,-3.2147,-3.3095,-3.263,-3.0601,-2.9262,-2.9023,0.0,0.0,0.0,0.0,0.0,0.0,0.0,0.0,0.0,0.0,0.0,0.0,0.0,0.0,0.0,0.0,0.0,0.0,0.0,0.0,0.0,0.0,0.0,0.0,0.0,0.0,0.0,0.0,0.0,0.0,0.0,0.0,0.0,0.0,0.0,0.0,0.0,0.0,0.0,0.0,0.0,0.0,0.0,0.0,0.0,0.0,0.0,0.0,0.0,0.0,0.0,0.0,0.0,0.0,0.0,0.0,0.0,0.0,0.0,0.0,0.0,0.0,0.0,0.0,0.0,0.0,0.0,0.0,0.0,0.0,0.0,0.0,0.0,0.0,0.0,0.0,0.0,0.0,0.0,0.0,0.0,0.0,0.0,0.0,0.0,0.0,0.0,0.0,0.0,0.0,0.0,0.0,0.0,0.0,0.0,0.0,0.0,0.0,0.0,0.0,0.0,0.0,0.0,-2.6003,-2.7817,-3.0595,-3.2083,-3.2611,-3.1995,-2.9751,-2.8528,-2.8968,-2.7016,0.0,0.0,0.0,0.0,0.0,0.0,0.0,0.0,0.0,0.0,0.0,0.0,0.0,0.0,0.0,0.0,0.0,0.0,0.0,0.0,0.0,0.0,0.0,0.0,0.0,0.0,0.0,0.0,0.0,0.0,0.0,0.0,0.0,0.0,0.0,0.0,0.0,0.0,0.0,0.0,0.0,0.0,0.0,0.0,0.0,0.0,0.0,0.0,0.0,0.0,0.0,0.0,0.0,0.0,0.0,0.0,0.0,0.0,0.0,0.0,0.0,0.0,0.0,0.0,0.0,0.0,0.0,0.0,0.0,0.0,0.0,0.0,0.0,0.0,0.0,0.0,0.0,0.0,0.0,0.0,0.0,0.0,0.0,0.0,0.0,0.0,0.0,0.0,0.0,0.0,0.0,0.0,0.0,0.0,0.0,0.0,0.0,0.0,0.0,0.0,0.0,0.0,-2.7116,-2.8677,-3.0417,-3.1608,-3.1997,-3.1334,-2.9136,-2.8143,-2.8952,-2.5986,0.0,0.0,0.0,0.0,0.0,0.0,0.0,0.0,0.0,0.0,0.0,0.0,0.0,0.0,0.0,0.0,0.0,0.0,0.0,0.0,0.0,0.0,0.0,0.0,0.0,0.0,0.0,0.0,0.0,0.0,0.0,0.0,0.0,0.0,0.0,0.0,0.0,0.0,0.0,0.0,0.0,0.0,0.0,0.0,0.0,0.0,0.0,0.0,0.0,0.0,0.0,0.0,0.0,0.0,0.0,0.0,0.0,0.0,0.0,0.0,0.0,0.0,0.0,0.0,0.0,0.0,0.0,0.0,0.0,0.0,0.0,0.0,0.0,0.0,0.0,0.0,0.0,0.0,0.0,0.0,0.0,0.0,0.0,0.0,0.0,0.0,0.0,0.0,0.0,0.0,0.0,0.0,0.0,0.0,0.0,0.0,0.0,0.0,0.0,0.0,0.0,0.0,-2.629,-2.7552,-2.9499,-3.0712,-3.1227,-3.0868,-2.8969,-2.8139,-2.8955,-2.5989,0.0,0.0,0.0,0.0,0.0,0.0,0.0,0.0,0.0,0.0,0.0,0.0,0.0,0.0,0.0,0.0,0.0,0.0,0.0,0.0,0.0,0.0,0.0,0.0,0.0,0.0,0.0,0.0,0.0,0.0,0.0,0.0,0.0,0.0,0.0,0.0,0.0,0.0,0.0,0.0,0.0,0.0,0.0,0.0,0.0,0.0,0.0,0.0,0.0,0.0,0.0,0.0,0.0,0.0,0.0,0.0,0.0,0.0,0.0,0.0,0.0,0.0,0.0,0.0,0.0,0.0,0.0,0.0,0.0,0.0,0.0,0.0,0.0,0.0,0.0,0.0,0.0,0.0,0.0,0.0,0.0,0.0,0.0,0.0,0.0,0.0,0.0,0.0,0.0,0.0,0.0,0.0,0.0,0.0,0.0,0.0,0.0,0.0,0.0,0.0,0.0,0.0,-2.6738,-2.8109,-2.8843,-3.0165,-3.0724,-3.0112,-2.8202,-2.7611,-2.8921,0.0,0.0,0.0,0.0,0.0,0.0,0.0,0.0,0.0,0.0,0.0,0.0,0.0,0.0,0.0,0.0,0.0,0.0,0.0,0.0,0.0,0.0,0.0,0.0,0.0,0.0,0.0,0.0,0.0,0.0,0.0,0.0,0.0,0.0,0.0,0.0,0.0,0.0,0.0,0.0,0.0,0.0,0.0,0.0,0.0,0.0,0.0,0.0,0.0,0.0,0.0,0.0,0.0,0.0,0.0,0.0,0.0,0.0,0.0,0.0,0.0,0.0,0.0,0.0,0.0,0.0,0.0,0.0,0.0,0.0,0.0,0.0,0.0,0.0,0.0,0.0,0.0,0.0,0.0,0.0,0.0,0.0,0.0,0.0,0.0,0.0,0.0,0.0,0.0,0.0,0.0,0.0,0.0,0.0,0.0,0.0,0.0,0.0,0.0,0.0,0.0,0.0,-2.4884,-2.6504,-2.7767,-2.8215,-2.9462,-2.9896,-2.9097,-2.7548,-2.7178,-2.8536,0.0,0.0,0.0,0.0,0.0,0.0,0.0,0.0,0.0,0.0,0.0,0.0,0.0,0.0,0.0,0.0,0.0,0.0,0.0,0.0,0.0,0.0,0.0,0.0,0.0,0.0,0.0,0.0,0.0,0.0,0.0,0.0,0.0,0.0,0.0,0.0,0.0,0.0,0.0,0.0,0.0,0.0,0.0,0.0,0.0,0.0,0.0,0.0,0.0,0.0,0.0,0.0,0.0,0.0,0.0,0.0,0.0,0.0,0.0,0.0,0.0,0.0,0.0,0.0,0.0,0.0,0.0,0.0,0.0,0.0,0.0,0.0,0.0,0.0,0.0,0.0,0.0,0.0,0.0,0.0,0.0,0.0,0.0,0.0,0.0,0.0,0.0,0.0,0.0,0.0,0.0,0.0,0.0,0.0,0.0,0.0,0.0,0.0,0.0,0.0,0.0,0.0,-2.4801,-2.5352,-2.615,-2.7638,-2.8508,-2.8662,-2.7867,-2.7063,-2.6937,0.0,0.0,0.0,0.0,0.0,0.0,0.0,0.0,0.0,0.0,0.0,0.0,0.0,0.0,0.0,0.0,0.0,0.0,0.0,0.0,0.0,0.0,0.0,0.0,0.0,0.0,0.0,0.0,0.0,0.0,0.0,0.0,0.0,0.0,0.0,0.0,0.0,0.0,0.0,0.0,0.0,0.0,0.0,0.0,0.0,0.0,0.0,0.0,0.0,0.0,0.0,0.0,0.0,0.0,0.0,0.0,0.0,0.0,0.0,0.0,0.0,0.0,0.0,0.0,0.0,0.0,0.0,0.0,0.0,0.0,0.0,0.0,0.0,0.0,0.0,0.0,0.0,0.0,0.0,0.0,0.0,0.0,0.0,0.0,0.0,0.0,0.0,0.0,0.0,0.0,0.0,0.0,0.0,0.0,0.0,0.0,0.0,0.0,0.0,0.0,0.0,0.0,0.0,-2.5224,-2.5537,-2.5981,-2.6928,-2.7959,-2.8157,-2.7122,-2.6512,-2.6648,-2.7735,0.0,0.0,0.0,0.0,0.0,0.0,0.0,0.0,0.0,0.0,0.0,0.0,0.0,0.0,0.0,0.0,0.0,0.0,0.0,0.0,0.0,0.0,0.0,0.0,0.0,0.0,0.0,0.0,0.0,0.0,0.0,0.0,0.0,0.0,0.0,0.0,0.0,0.0,0.0,0.0,0.0,0.0,0.0,0.0,0.0,0.0,0.0,0.0,0.0,0.0,0.0,0.0,0.0,0.0,0.0,0.0,0.0,0.0,0.0,0.0,0.0,0.0,0.0,0.0,0.0,0.0,0.0,0.0,0.0,0.0,0.0,0.0,0.0,0.0,0.0,0.0,0.0,0.0,0.0,0.0,0.0,0.0,0.0,0.0,0.0,0.0,0.0,0.0,0.0,0.0,0.0,0.0,0.0,0.0,0.0,0.0,0.0,0.0,0.0,0.0,0.0,0.0,-2.5398,-2.5329,-2.5558,-2.659,-2.7467,-2.7423,-2.6132,-2.5891,-2.6032,-2.6616,0.0,0.0,0.0,0.0,0.0,0.0,0.0,0.0,0.0,0.0,0.0,0.0,0.0,0.0,0.0,0.0,0.0,0.0,0.0,0.0,0.0,0.0,0.0,0.0,0.0,0.0,0.0,0.0,0.0,0.0,0.0,0.0,0.0,0.0,0.0,0.0,0.0,0.0,0.0,0.0,0.0,0.0,0.0,0.0,0.0,0.0,0.0,0.0,0.0,0.0,0.0,0.0,0.0,0.0,0.0,0.0,0.0,0.0,0.0,0.0,0.0,0.0,0.0,0.0,0.0,0.0,0.0,0.0,0.0,0.0,0.0,0.0,0.0,0.0,0.0,0.0,0.0,0.0,0.0,0.0,0.0,0.0,0.0,0.0,0.0,0.0,0.0,0.0,0.0,0.0,0.0,0.0,0.0,0.0,0.0,0.0,0.0,0.0,0.0,0.0,0.0,0.0,-2.5518,-2.4996,-2.5066,-2.6539,-2.6962,-2.6556,-2.513,-2.5208,-2.5203,-2.487,0.0,0.0,0.0,0.0,0.0,0.0,0.0,0.0,0.0,0.0,0.0,0.0,0.0,0.0,0.0,0.0,0.0,0.0,0.0,0.0,0.0,0.0,0.0,0.0,0.0,0.0,0.0,0.0,0.0,0.0,0.0,0.0,0.0,0.0,0.0,0.0,0.0,0.0,0.0,0.0,0.0,0.0,0.0,0.0,0.0,0.0,0.0,0.0,0.0,0.0,0.0,0.0,0.0,0.0,0.0,0.0,0.0,0.0,0.0,0.0,-2.8022,-2.8891,0.0,0.0,0.0,0.0,0.0,0.0,0.0,0.0,0.0,0.0,0.0,0.0,0.0,0.0,0.0,0.0,0.0,0.0,0.0,0.0,0.0,0.0,0.0,0.0,0.0,0.0,0.0,0.0,0.0,0.0,0.0,0.0,0.0,0.0,0.0,0.0,0.0,0.0,0.0,0.0,-2.6279,-2.5314,-2.5066,-2.6539,-2.627,-2.5698,-2.5063,-2.4545,-2.4323,-2.4502,-2.4171,0.0,0.0,0.0,0.0,0.0,0.0,0.0,0.0,0.0,0.0,0.0,0.0,0.0,0.0,0.0,0.0,0.0,0.0,0.0,0.0,0.0,0.0,0.0,0.0,0.0,0.0,0.0,0.0,0.0,0.0,0.0,0.0,0.0,0.0,0.0,0.0,0.0,0.0,0.0,0.0,0.0,0.0,0.0,0.0,0.0,0.0,0.0,0.0,0.0,0.0,0.0,0.0,0.0,0.0,0.0,0.0,0.0,0.0,0.0,-2.8619,-2.8339,0.0,0.0,0.0,0.0,0.0,0.0,0.0,0.0,0.0,0.0,0.0,0.0,0.0,0.0,0.0,0.0,0.0,0.0,0.0,0.0,0.0,0.0,0.0,0.0,0.0,0.0,0.0,0.0,0.0,0.0,0.0,0.0,0.0,0.0,0.0,0.0,0.0,0.0,0.0,0.0,-2.6517,-2.5408,-2.506,-2.6539,-2.6034,-2.5379,-2.4795,-2.4074,-2.3639,-2.3592,-2.3751,0.0,0.0,0.0,0.0,0.0,0.0,0.0,0.0,0.0,0.0,0.0,0.0,0.0,0.0,0.0,0.0,0.0,0.0,0.0,0.0,0.0,0.0,0.0,0.0,0.0,0.0,0.0,0.0,0.0,0.0,0.0,0.0,0.0,0.0,0.0,0.0,0.0,0.0,0.0,0.0,0.0,0.0,0.0,0.0,0.0,0.0,0.0,0.0,0.0,0.0,0.0,0.0,0.0,-2.8521,-2.9719,-3.1174,-3.1199,-3.1346,-3.1484,-3.0429,-2.879,-2.7069,-2.9299,0.0,0.0,0.0,0.0,0.0,0.0,0.0,0.0,0.0,0.0,0.0,0.0,0.0,0.0,0.0,0.0,0.0,0.0,0.0,0.0,0.0,0.0,0.0,0.0,-3.1635,-3.0485,-2.787,0.0,0.0,0.0,0.0,0.0,0.0,0.0,0.0,0.0,0.0,0.0,-2.6524,-2.5513,-2.5213,-2.6556,-2.6034,-2.5307,-2.4571,-2.3821,-2.3172,-2.266,-2.3354,-2.3667,0.0,0.0,0.0,0.0,0.0,0.0,0.0,0.0,0.0,0.0,0.0,0.0,0.0,0.0,0.0,0.0,0.0,0.0,0.0,0.0,0.0,0.0,0.0,0.0,0.0,0.0,0.0,0.0,0.0,0.0,0.0,0.0,-2.6725,-2.5964,0.0,0.0,0.0,0.0,0.0,0.0,0.0,0.0,0.0,0.0,0.0,0.0,0.0,-2.7593,-2.945,-2.893,-2.8384,-2.7876,-2.919,-3.0687,-3.2292,-3.2179,-3.2827,-3.4011,-3.3837,0.0,-2.9285,-2.8559,0.0,0.0,0.0,0.0,0.0,0.0,0.0,0.0,0.0,0.0,0.0,0.0,0.0,0.0,0.0,0.0,0.0,0.0,0.0,0.0,0.0,0.0,-2.9644,-3.1028,-3.1276,-3.0925,-2.9888,-2.9239,-2.8606,-2.7805,-2.6706,-2.6051,0.0,0.0,0.0,0.0,0.0,0.0,-2.6591,-2.5964,-2.5765,-2.6607,-2.6034,-2.5307,-2.4571,-2.3821,-2.3098,-2.2408,-2.2676,-2.3292,-2.4192,-2.4107,0.0,0.0,0.0,0.0,0.0,0.0,0.0,0.0,0.0,0.0,0.0,0.0,0.0,0.0,0.0,0.0,0.0,0.0,0.0,0.0,0.0,0.0,0.0,0.0,0.0,0.0,0.0,0.0,0.0,-2.8089,-2.7415,-2.6546,-2.6958,-2.7427,0.0,0.0,0.0,0.0,0.0,0.0,0.0,0.0,0.0,-2.9485,-3.0982,-3.1557,-3.1249,-3.1334,-3.1133,-3.0617,-3.234,-3.3539,-3.4266,-3.4648,-3.5402,-3.638,-3.5963,-3.4752,-3.2983,-3.1963,-3.0888,-2.9939,0.0,0.0,0.0,0.0,-2.984,-2.9878,-3.1273,-3.2026,-3.244,-3.3182,0.0,0.0,0.0,0.0,0.0,0.0,0.0,-3.1722,0.0,0.0,-3.2883,-3.3523,-3.3351,-3.2859,-3.2124,-3.106,-2.9876,-2.8703,-2.7956,-2.7606,-2.7937,-2.7009,0.0,0.0,0.0,-2.5865,-2.6603,-2.6064,-2.5883,-2.6624,-2.6034,-2.5293,-2.4552,-2.381,-2.3087,-2.2344,-2.2398,-2.2781,-2.3423,-2.3857,-2.4486,0.0,0.0,0.0,0.0,0.0,0.0,0.0,0.0,0.0,0.0,0.0,0.0,0.0,0.0,0.0,0.0,0.0,0.0,0.0,0.0,0.0,0.0,0.0,0.0,0.0,0.0,0.0,0.0,-2.8087,-2.7685,-2.6599,-2.7111,-2.7733,0.0,0.0,0.0,0.0,0.0,0.0,-2.5399,-2.5063,-2.6956,-3.1312,-3.4383,-3.5173,-3.3461,-3.3998,-3.4189,-3.4058,-3.5372,-3.6244,-3.6766,-3.7107,-3.7703,-3.8422,-3.7669,-3.6873,-3.6061,-3.4742,-3.2737,-3.0561,-3.1479,-3.107,-3.0053,-3.0481,-3.1066,-3.1748,-3.2244,-3.3299,-3.4331,-3.3854,-3.352,-3.314,-3.2355,0.0,0.0,0.0,0.0,-3.3652,-3.4789,-3.5198,-3.5423,-3.5819,-3.5323,-3.4571,-3.3833,-3.2673,-3.1278,-2.9604,-2.8955,-2.8676,-2.8699,-2.7588,0.0,0.0,0.0,-2.6084,-2.6624,-2.6219,-2.6084,-2.6624,-2.6202,-2.558,-2.4835,-2.412,-2.338,-2.2634,-2.2415,-2.246,-2.281,-2.3841,-2.4574,-2.4956,0.0,0.0,0.0,0.0,0.0,0.0,0.0,0.0,0.0,0.0,0.0,0.0,0.0,0.0,0.0,0.0,0.0,0.0,0.0,0.0,0.0,0.0,0.0,0.0,0.0,0.0,0.0,0.0,0.0,-2.4979,-2.6522,0.0,0.0,0.0,0.0,-2.9381,-3.05,-3.0204,-2.8112,-3.0642,-3.2312,-3.2614,-3.5484,-3.6884,-3.6575,-3.6609,-3.6973,-3.7616,-3.7222,-3.8033,-3.985,-3.8925,-3.9043,-3.9935,-3.9125,-3.8362,-3.7496,-3.4842,-3.3166,-3.2203,-3.157,-3.1686,-3.2117,-3.1899,-3.2041,-3.2292,-3.2037,-3.1815,-3.1997,-3.3696,-3.4804,-3.5301,-3.4555,-3.435,0.0,0.0,-3.4452,-3.3923,-3.6095,-3.5621,-3.4914,-3.6389,-3.6129,-3.5329,-3.4612,-3.3829,-3.2649,0.0,-2.8858,-2.7859,-2.7862,0.0,-2.6719,-2.6758,-2.6691,-2.6657,-2.6691,-2.6674,-2.6657,-2.6691,-2.6674,-2.6354,-2.5598,-2.4863,-2.4139,-2.3386,-2.2688,-2.2558,-2.3153,-2.3962,-2.5064,-2.6468,-2.6554,0.0,0.0,0.0,0.0,0.0,0.0,0.0,0.0,0.0,0.0,0.0,0.0,0.0,0.0,0.0,0.0,0.0,0.0,0.0,0.0,0.0,0.0,0.0,0.0,0.0,0.0,0.0,0.0,-2.853,-2.9183,0.0,-3.0045,-2.9256,-2.925,-3.0459,-3.1399,-3.1946,-3.2059,-3.4276,-3.6118,-3.7422,-3.8463,-3.9007,-3.8928,-3.8928,-3.9048,-3.9319,-3.9126,-3.9404,-4.0096,-3.9724,-3.9482,-3.9309,-3.9034,-3.8178,-3.694,-3.5966,-3.4835,-3.3656,-3.3388,-3.2901,-3.241,-3.2745,-3.3294,-3.3924,-3.4203,-3.4827,-3.5535,-3.5338,-3.5142,-3.4924,-3.4713,-3.4906,-3.5374,-3.6154,-3.6357,-3.6475,-3.7303,-3.7102,-3.6711,-3.6778,-3.618,-3.5397,-3.4658,-3.3914,-3.3034,-3.1755,-3.0308,-2.9422,-2.991,-2.8977,-2.8182,-2.8168,-2.7725,-2.7233,-2.6759,-2.6691,-2.6691,-2.6691,-2.6691,-2.6404,-2.5644,-2.5359,-2.4885,-2.416,-2.3616,-2.3506,-2.3886,-2.3926,-2.4665,-2.6184,-2.6213,-2.6866,0.0,0.0,0.0,0.0,0.0,0.0,0.0,0.0,0.0,0.0,0.0,0.0,0.0,0.0,0.0,0.0,0.0,0.0,0.0,0.0,0.0,0.0,0.0,0.0,0.0,0.0,-3.0344,-3.0889,-3.1436,-3.1929,-3.2282,-3.1035,-3.0623,-3.1637,-3.341,-3.4721,-3.5402,-3.7123,-3.8734,-4.0044,-3.9842,-3.9834,-4.0096,-3.9757,-3.9757,-4.0096,-4.0096,-4.0096,-4.0096,-3.9757,-3.9332,-3.889,-3.8363,-3.7547,-3.659,-3.6347,-3.5657,-3.4767,-3.4781,-3.4222,-3.3494,-3.3921,-3.4632,-3.5404,-3.58,-3.6415,-3.6911,-3.6272,-3.5884,-3.5723,-3.6023,-3.6399,-3.6846,-3.7381,-3.7901,-3.8221,-3.7946,-3.7909,-3.7719,-3.6981,-3.618,-3.5464,-3.4979,-3.41,-3.3271,-3.2763,-3.1483,-3.0544,-3.0788,-3.0019,-2.9365,-2.9365,-2.8711,-2.8029,-2.7555,-2.7233,-2.6995,-2.6725,-2.6691,-2.6505,-2.6013,-2.573,-2.5393,-2.4905,-2.4514,-2.4369,-2.4526,-2.467,-2.5213,-2.6215,-2.6608,-2.7166,-2.7861,0.0,0.0,0.0,0.0,0.0,0.0,0.0,0.0,0.0,0.0,0.0,0.0,0.0,0.0,0.0,0.0,0.0,0.0,0.0,0.0,0.0,0.0,0.0,-2.6862,-3.0295,-3.2408,-3.1678,-3.3012,-3.3623,-3.2723,-3.2232,-3.2245,-3.2981,-3.6468,-3.8373,-3.7977,-3.9311,-4.007,-4.007,-3.9342,-3.9315,-4.0045,-3.9113,-3.9156,-4.0096,-4.007,-4.0028,-3.9986,-3.9017,-3.8652,-3.8728,-3.7247,-3.6584,-3.6492,-3.5767,-3.5504,-3.5504,-3.5504,-3.5504,-3.5504,-3.5537,-3.5975,-3.6615,-3.663,-3.6134,-3.5651,-3.6384,-3.7174,-3.7982,-3.8709,-3.8967,-3.9026,-3.9029,-3.9032,-3.8874,-3.8094,-3.7905,-3.7719,-3.6948,-3.6163,-3.5583,-3.5566,-3.4433,-3.3423,-3.3372,-3.2205,-3.1016,-3.0264,-3.0124,-3.0124,-3.0107,-2.9479,0.0,-2.8973,-2.827,-2.7538,-2.6826,-2.6725,-2.6725,-2.6725,-2.6082,-2.5659,-2.5642,-2.5326,-2.5125,-2.5054,-2.6173,-2.677,-2.6723,-2.7811,-2.7879,-2.6834,0.0,0.0,0.0,0.0,0.0,0.0,0.0,0.0,0.0,0.0,0.0,0.0,0.0,0.0,0.0,0.0,0.0,0.0,0.0,0.0,0.0,0.0,-2.8692,-2.8832,-3.0982,-3.2865,-3.3732,-3.5023,-3.5759,-3.5484,-3.5357,-3.5452,-3.5831,-3.6672,-3.7837,-3.9415,-3.9322,-3.9236,-3.9236,-3.9568,-3.961,-3.9236,-3.9534,-3.9825,-4.0096,-3.9363,-3.8815,-3.8418,-3.7732,-3.7358,-3.7217,-3.6783,-3.6306,-3.5782,-3.5587,-3.5504,-3.5504,-3.5504,-3.5504,-3.5554,-3.6117,-3.6415,-3.6661,-3.7279,-3.695,-3.643,-3.7219,-3.7991,-3.8734,-3.953,-3.9783,-3.9783,-3.9808,-3.98,-3.9504,-3.8245,-3.7909,-3.7584,-3.6225,-3.5752,-3.5447,-3.4928,-3.4472,-3.388,-3.2797,-3.2276,-3.1765,-3.103,-3.0892,-3.0718,-3.0177,-2.9945,0.0,-2.8275,-2.7942,-2.7723,-2.7519,-2.7503,-2.7503,-2.7503,-2.7317,-2.6962,-2.6437,-2.6311,-2.6251,-2.6237,-2.65,-2.6783,-2.7061,-2.7941,-2.8139,0.0,0.0,0.0,0.0,0.0,0.0,0.0,0.0,0.0,0.0,0.0,0.0,0.0,0.0,0.0,0.0,0.0,0.0,0.0,0.0,0.0,0.0,-2.9525,-3.0681,-3.1179,-3.2747,-3.4174,-3.4986,-3.6542,-3.7291,-3.6661,-3.6904,-3.6899,-3.6406,-3.7037,-3.7645,-3.8145,-3.8941,-3.9101,-3.8458,-3.9183,-3.9368,-3.8908,-3.9292,-3.9458,-3.9458,-3.8877,-3.8204,-3.7443,-3.7028,-3.6746,-3.6584,-3.6275,-3.5894,-3.5504,-3.5504,-3.5504,0.0,0.0,0.0,0.0,0.0,-3.6615,-3.6737,-3.7515,-3.7485,-3.7186,-3.7653,-3.8308,-3.8993,-3.948,-3.9639,-3.9579,-3.9283,-3.9172,-3.8831,-3.7346,-3.7197,-3.7127,-3.5887,-3.56,-3.5481,-3.5064,-3.4726,-3.4235,-3.3393,-3.2716,0.0,-3.1735,-3.1393,-3.1157,-3.1033,-3.0758,-3.0242,-2.9343,-2.8668,-2.816,-2.7841,-2.7519,-2.7334,-2.7334,-2.7334,0.0,0.0,0.0,-2.6956,-2.6956,-2.7092,0.0,0.0,0.0,-2.8824,-2.8626,-3.0126,0.0,0.0,-3.0885,-3.1271,0.0,0.0,0.0,0.0,0.0,0.0,0.0,0.0,0.0,0.0,0.0,0.0,0.0,0.0,0.0,0.0,-3.1431,-3.2315,-3.3667,-3.5091,-3.5948,-3.5758,-3.7532,-3.8185,-3.6752,-3.7249,-3.7123,-3.5871,-3.7313,-3.746,-3.5605,0.0,0.0,0.0,0.0,-3.8984,-3.8887,-3.8717,-3.8608,-3.8608,-3.8444,-3.7838,-3.683,-3.6566,-3.6477,-3.6446,-3.5782,-3.5504,-3.5504,-3.5504,-3.5504,-3.5504,-3.5504,-3.5554,-3.5701,-3.6446,-3.6737,-3.6843,-3.7661,0.0,0.0,-3.7926,-3.8424,-3.9033,-3.9017,-3.9003,-3.8841,-3.8108,-3.7892,-3.7579,-3.6118,-3.6265,-3.6609,-3.5785,-3.56,-3.56,-3.56,-3.5098,-3.459,-3.4506,-3.3444,-3.2513,-3.2446,-3.1752,-3.1419,-3.2068,-3.163,-3.1169,-3.1092,-2.9937,-2.8839,-2.8145,0.0,0.0,-2.6979,-2.6996,-2.6944,-2.6775,-2.7177,-2.7424,-2.7424,-2.7896,-2.7975,-2.7637,-2.906,-2.9805,-2.9808,-3.1686,-3.2597,-3.2579,-3.1655,-3.1391,0.0,0.0,0.0,0.0,0.0,0.0,0.0,0.0,0.0,0.0,0.0,0.0,0.0,0.0,0.0,-3.2734,-3.369,-3.4534,-3.5829,-3.681,-3.715,-3.6489,-3.7361,-3.7645,-3.6691,-3.6722,-3.6971,-3.7324,-3.6576,-3.5935,-3.5535,-3.6827,-3.7671,-3.7806,-3.9129,-3.9534,-3.8814,-3.8841,-3.8765,-3.8582,0.0,0.0,-3.5783,-3.5746,-3.5701,-3.5686,-3.5554,-3.5504,-3.5504,-3.5504,-3.5504,-3.5504,-3.5504,-3.5863,-3.6477,-3.7279,-3.7573,-3.769,-3.8442,-3.869,-3.8701,-3.8689,-3.9225,-3.9767,-3.9183,-3.9012,0.0,-3.8108,-3.7912,-3.7675,-3.6812,-3.6694,-3.6609,-3.5785,-3.56,-3.56,-3.56,-3.5481,-3.5216,-3.4607,-3.4273,-3.388,-3.3288,-3.2087,-3.1244,-3.1402,-3.1278,-3.0976,-3.0377,-3.0065,-2.9837,-2.9666,-2.9533,-2.9194,-2.8604,-2.8802,-2.8455,-2.7247,-2.7819,-2.8192,-2.8192,-2.9212,-2.9727,-2.9633,-3.0574,-3.1038,-3.1052,-3.2087,-3.2596,-3.2597,-3.3035,-3.3258,0.0,0.0,0.0,0.0,0.0,0.0,0.0,0.0,0.0,0.0,0.0,-2.9277,0.0,0.0,-3.2107,-3.3862,-3.4988,-3.5886,-3.6507,-3.76,-3.7933,-3.6752,-3.7308,-3.7354,-3.618,-3.6753,-3.7059,-3.669,-3.6646,-3.6322,-3.5554,-3.6701,-3.7342,-3.7203,-3.9102,-3.9515,-3.8304,-3.8704,-3.8626,-3.8072,-3.7094,-3.6383,-3.5999,-3.5649,-3.5504,-3.5504,-3.5504,-3.5504,-3.5537,-3.5894,-3.6054,-3.6054,-3.6054,-3.6275,-3.6707,-3.7515,-3.8035,-3.8442,-3.9236,-3.9489,-3.9439,-3.9072,-3.9219,-3.9419,-3.8667,-3.8447,-3.8379,-3.8007,-3.7905,-3.7736,-3.6998,-3.6795,-3.6609,-3.5785,-3.56,-3.56,-3.56,-3.56,-3.5481,-3.5131,-3.4742,-3.437,-3.4015,-3.3034,-3.2171,-3.1819,-3.1752,-3.1481,-3.0758,-3.033,-3.0108,-3.0108,-2.977,-2.9416,-2.9027,-2.9351,-2.9244,-2.8497,-2.9208,-2.9448,-2.9012,-2.9967,-3.0404,-3.0193,-3.1188,-3.1812,-3.1994,-3.2797,-3.3201,-3.3208,-3.3597,-3.3807,0.0,0.0,0.0,0.0,0.0,0.0,0.0,0.0,-2.8532,-2.922,-3.0283,-3.1255,-3.1853,-3.2886,-3.3934,-3.4625,-3.5798,-3.663,-3.6813,-3.7901,-3.8286,-3.7188,-3.7499,-3.7175,-3.5651,-3.6631,-3.6929,-3.5876,-3.6746,-3.7004,-3.6166,-3.7185,-3.7585,-3.7053,-3.9032,-3.9494,-3.82,-3.8673,-3.8456,-3.7575,-3.7094,-3.666,-3.6267,-3.5877,-3.5651,-3.5504,-3.5504,-3.5504,-3.5569,-3.6461,-3.6722,-3.663,-3.6918,-3.7038,-3.7098,-3.7602,-3.829,-3.9032,-3.9808,-4.0096,-4.0011,-3.9419,-3.9208,-3.9073,-3.8345,-3.8125,-3.8091,-3.7939,-3.7905,-3.777,-3.7185,-3.7015,-3.684,-3.6191,-3.5938,-3.5819,-3.5819,-3.5701,-3.56,-3.56,-3.5131,-3.4709,-3.4709,-3.4218,-3.3491,-3.2462,-3.2293,-3.2039,-3.1275,-3.0683,-3.0311,-3.0311,-2.977,-2.9416,-2.9311,-2.9488,-2.9623,-2.9709,-3.0453,-3.0539,-2.9754,-3.0555,-3.0884,-3.0569,-3.1664,-3.2426,-3.2821,-3.3476,-3.3807,-3.3807,-3.3807,-3.3807,-2.6752,-2.5854,-2.5516,-2.7016,-2.6986,-2.75,0.0,0.0,-3.1241,-3.1943,-3.2662,-3.3246,-3.3502,-3.4012,-3.464,-3.5445,-3.6151,-3.6843,-3.7573,-3.7806,-3.8121,-3.8591,-3.8133,-3.7175,-3.5651,-3.5651,-3.6052,-3.6785,-3.6147,-3.6491,-3.816,-3.796,-3.8056,-3.8619,-3.9584,-3.9955,-3.9668,-3.9139,-3.8456,-3.7607,-3.7624,-3.6921,-3.5642,-3.6196,-3.6117,-3.5504,-3.5504,-3.5504,-3.5619,-3.7055,-3.7233,-3.6752,-3.8101,-3.8646,-3.8564,-3.8007,-3.829,-3.9032,-3.9808,-4.0096,-4.0096,-4.0011,-3.9977,-3.9842,-3.9089,-3.887,-3.8734,-3.8091,-3.7905,-3.7889,-3.7804,-3.7787,-3.7753,-3.7669,-3.7144,-3.6677,-3.6677,-3.6096,-3.56,-3.56,-3.5532,-3.5481,-3.5481,-3.5397,-3.4675,-3.2615,-3.2293,-3.2039,-3.1275,-3.1123,-3.1072,-3.1072,-3.1004,-3.0816,-3.0448,-2.9861,-2.9691,-3.0111,-3.055,-3.0622,-3.0152,-3.1255,-3.1841,-3.1812,-3.2636,-3.3269,-3.3678,-3.3752,-3.3807,-3.3807,-3.3807,-3.3807,-2.8528,-2.793,0.0,0.0,-2.9785,-3.1056,-3.2342,-3.2999,-3.3419,-3.3637,-3.4203,-3.4698,-3.4761,-3.4955,-3.5192,0.0,-3.6165,-3.6873,-3.769,-3.8177,-3.8553,-3.8854,-3.8262,-3.7368,-3.6259,-3.575,-3.5659,-3.6091,-3.6553,-3.7079,-3.7626,-3.7745,-3.8149,-3.8881,-3.9236,-3.9369,-3.9325,-3.9029,-3.8699,-3.8288,-3.7966,-3.7648,-3.7421,-3.6862,-3.6196,-3.5537,-3.5943,-3.6134,-3.6259,-3.7803,-3.823,-3.7987,-3.8646,-3.9193,-3.9489,-3.8734,-3.8924,-3.9636,-3.9978,-4.0096,-4.0096,-4.0096,-3.9808,-3.9394,-3.9089,-3.8988,-3.8937,-3.8633,-3.8853,-3.9073,-3.865,-3.8531,-3.8311,-3.7449,-3.7032,-3.6795,-3.6795,-3.6535,-3.6434,-3.6874,-3.6935,-3.6935,-3.6935,-3.6586,-3.5825,-3.4438,-3.3491,-3.2662,-3.1955,-3.1481,-3.119,-3.119,-3.119,-3.112,-3.0962,-3.0896,-3.0911,-3.1129,-3.1787,-3.1992,-3.1556,-3.2282,-3.2697,-3.2697,-3.3036,-3.3408,-3.3807,-3.3807,-3.3807,-3.3807,-3.3807,-3.4045,-2.9172,0.0,0.0,-3.0289,-3.2278,-3.3969,-3.3853,-3.4719,-3.5442,-3.5154,-3.529,-3.5504,-3.5504,-3.5504,-3.5569,-3.5782,-3.6086,-3.6707,-3.7933,-3.8386,-3.8745,-3.9166,-3.8553,-3.7876,-3.7291,-3.618,-3.574,-3.6289,-3.6863,-3.7261,-3.7418,-3.7799,-3.8274,-3.8881,-3.8908,-3.8799,-3.8608,-3.8608,-3.8561,-3.8515,-3.8248,-3.8251,-3.8499,-3.7199,-3.6196,-3.5537,-3.6054,-3.6415,-3.6691,-3.806,-3.8718,-3.8908,-3.9139,-3.9584,-4.002,-3.9437,-3.961,-4.0096,-4.0096,-4.0096,-4.0096,-4.0096,-3.974,-3.9292,-3.9292,-3.9292,-3.9292,-3.9292,-3.9706,-3.9977,-3.9453,-3.9292,-3.9022,-3.7963,-3.7547,-3.7407,-3.7407,-3.7252,-3.7249,-3.7807,-3.7898,-3.7838,-3.7635,-3.7144,-3.6541,-3.5718,-3.4523,-3.344,-3.2699,-3.1968,-3.1495,-3.1506,-3.1331,-3.119,-3.119,-3.1472,-3.1681,-3.1788,-3.2558,-3.2842,-3.2497,-3.296,-3.3201,-3.319,-3.3202,-3.3517,-3.4137,-3.4137,-3.4247,-3.4486,-3.4486,-3.4798,0.0,0.0,-2.8459,-3.1785,-3.3711,-3.5112,-3.6394,-3.717,-3.739,-3.6677,-3.5991,-3.5504,-3.5504,-3.5504,-3.5718,-3.6446,-3.5975,-3.6305,-3.8536,-3.8274,-3.8374,-3.9876,-3.9358,-3.8854,0.0,-3.6814,-3.6333,-3.8344,-3.6692,-3.643,-3.845,-3.8578,-3.8691,-3.8897,-3.8908,-3.8553,-3.7835,-3.7835,-3.7822,-3.7854,-3.8541,-3.8513,-3.7809,-3.698,-3.6196,-3.5504,-3.5537,-3.5943,-3.6661,-3.7485,-3.8246,-3.8962,-3.9756,-4.007,-4.0096,-4.007,-4.007,-4.0096,-4.0096,-4.0096,-4.0096,-4.0096,-4.0079,-4.0079,-4.0079,-4.0079,-4.0079,-4.0079,-4.0079,-4.0096,-4.0079,-4.0079,-4.0062,-4.0011,-3.9457,-3.8932,-3.8932,-3.8369,-3.7872,-3.7906,-3.7894,-3.7669,-3.6965,-3.6812,-3.6541,-3.5718,-3.4962,-3.4201,-3.3457,-3.2718,-3.2273,-3.2258,-3.163,-3.119,-3.119,-3.1207,-3.1385,-3.1788,-3.2252,-3.2511,-3.2506,-3.2948,-3.3203,-3.3194,-3.3193,-3.3789,-3.4968,-3.4968,-3.5389,-3.6211,-3.6211,-3.6229,0.0,0.0,-3.2141,-3.4829,-3.6857,-3.821,-3.8178,-3.8346,-3.7882,-3.566,-3.4739,-3.4177,-3.3712,-3.3652,-3.4046,-3.5279,-3.5535,-3.6358,-3.8597,-3.869,-3.8924,-3.9978,-3.8968,0.0,0.0,0.0,0.0,-3.6535,-3.589,-3.6415,-3.8477,-3.7934,-3.7956,-3.8854,-3.8908,-3.8772,-3.8525,-3.9049,-3.9332,-3.9332,-3.9584,-3.9022,-3.7777,-3.7515,-3.6707,-3.5569,-3.6569,-3.7175,-3.7515,-3.8789,-3.948,-3.9714,-3.9978,-4.0096,-4.0096,-4.0096,-4.0096,-4.0096,-4.0096,-4.0096,-4.0096,-4.0096,-4.0096,-4.0096,-4.0096,-4.0096,-4.0096,-4.0096,-4.0096,-4.0096,-4.0096,-4.0096,-3.9986,-3.9488,-3.9168,-3.8997,-3.9003,-3.8809,-3.8756,-3.9268,-3.9352,-3.9276,-3.9029,-3.8187,-3.7108,-3.5791,-3.4967,-3.4227,-3.3491,-3.2761,-3.2301,-3.2295,-3.1647,-3.119,-3.119,-3.119,-3.138,-3.1756,-3.2243,-3.2635,-3.2958,-3.3368,-3.3602,-3.3591,-3.4116,-3.4589,-3.5004,-3.5573,-3.6009,-3.6303,-3.6303,-3.6578,0.0,-3.1866,-3.4116,-3.6609,-3.8361,-3.9379,-3.901,-3.8683,-3.7726,-3.511,-3.4106,-3.3412,-3.2508,-3.198,-3.2264,-3.3973,-3.4226,-3.5149,-3.7906,-3.8407,-3.8884,-3.9986,-3.9226,-3.8995,0.0,0.0,0.0,-3.6379,-3.5813,-3.6228,-3.7926,-3.7549,-3.7669,-3.8469,-3.8772,-3.8772,-3.8497,-3.9022,-3.9411,-3.9662,-3.9662,-3.9156,-3.8161,-3.7921,-3.7115,-3.5926,-3.6662,-3.7115,-3.7485,-3.8734,-3.9437,-3.9705,-3.9995,-4.0096,-4.0096,-4.0096,-4.0096,-4.0096,-4.0096,-4.0096,-4.0096,-4.0096,-4.0096,-4.0096,-4.0096,-4.0096,-4.0096,-4.0096,-4.0096,-4.0096,-4.0096,-4.0096,-3.9986,-3.9505,-3.9396,-3.9379,-3.9382,-3.938,-3.9525,-4.0019,-4.0096,-4.0028,-3.9757,-3.8492,-3.7074,-3.5791,-3.5204,-3.4718,-3.4252,-3.3318,-3.2693,-3.2681,-3.1805,-3.119,-3.119,-3.119,-3.1374,-3.1769,-3.2514,-3.3126,-3.3616,-3.4316,-3.4688,-3.4688,-3.5202,-3.5605,-3.5881,-3.645,-3.6886,-3.7165,-3.7165,-3.7422,-3.1077,-3.2617,-3.4349,-3.7157,-3.829,-3.8764,-3.8912,-3.8286,-3.7064,-3.5076,-3.4025,-3.3095,0.0,0.0,-3.0551,-3.2746,-3.2426,-3.3185,-3.682,-3.7689,-3.8472,0.0,0.0,0.0,0.0,0.0,0.0,-3.7719,0.0,-3.5938,-3.694,-3.7447,-3.7764,-3.7793,-3.8525,-3.8553,-3.7863,-3.7908,-3.8262,-3.8908,-3.8935,-3.8908,-3.8827,-3.8177,-3.7427,-3.6615,-3.5926,-3.6038,-3.6783,-3.7528,-3.8274,-3.9032,-3.9808,-4.0096,-4.0096,-4.0096,-4.0096,-4.0096,-4.0096,-4.0096,-4.0096,-4.0096,-4.0096,-4.0096,-4.0096,-4.0096,-4.0096,-4.0096,-4.0096,-4.0096,-4.0096,-4.0096,-4.0096,-4.0096,-4.0096,-4.0096,-4.0096,-4.0096,-4.0096,-4.0096,-4.0062,-3.9808,-3.9131,-3.7777,-3.6541,-3.5774,-3.5616,-3.5583,-3.5549,-3.4292,-3.3403,-3.3345,-3.2051,-3.119,-3.119,-3.1237,-3.1411,-3.181,-3.3025,-3.3931,-3.4407,-3.5626,-3.6303,-3.6307,-3.6342,-3.6742,-3.7504,-3.7544,-3.7936,-3.8707,-3.8707,-3.8707,-3.2587,-3.4322,-3.6181,-3.8138,-3.8652,-3.889,-3.9621,-3.8331,-3.6419,-3.4495,-3.2338,-3.0444,0.0,0.0,0.0,-3.2748,-3.403,0.0,-3.8925,-3.9446,0.0,-4.0054,0.0,-3.9159,-3.9007,-3.7847,0.0,0.0,-3.5729,-3.5861,-3.6677,-3.6844,-3.7189,-3.7793,-3.8525,-3.8799,-3.8635,-3.9209,-3.9305,-3.8908,-3.9516,-3.9183,-3.8092,-3.8442,-3.8218,-3.7485,-3.7294,-3.7616,-3.8342,-3.8536,-3.9086,-3.9808,-4.002,-4.0096,-4.0096,-4.0096,-4.0096,-4.0096,-4.0096,-4.0096,-4.0096,-4.0096,-4.0096,-4.0096,-4.0096,-4.0096,-4.0096,-4.0096,-4.0096,-4.0096,-4.0096,-4.0096,-4.0096,-4.0096,-4.0096,-4.0096,-4.0096,-4.0096,-4.0096,-4.0096,-3.967,-3.921,-3.9035,-3.7776,-3.6724,-3.652,-3.5977,-3.5402,-3.4859,-3.3968,-3.3182,-3.2625,-3.1752,-3.119,-3.119,-3.1476,-3.1856,-3.229,-3.3513,-3.441,-3.483,-3.5787,-3.63,-3.6298,-3.6885,-3.7304,-3.7504,-3.8098,-3.8505,-3.8707,-3.8707,-3.8707,-3.4023,-3.5415,-3.6877,-3.8472,-3.8527,-3.8232,-3.8286,-3.7224,-3.5371,-3.233,-3.0699,0.0,0.0,0.0,0.0,0.0,0.0,0.0,-3.7876,-3.9092,-3.9598,0.0,-3.9489,0.0,-3.8755,-3.7743,-3.6919,0.0,-3.6149,-3.6165,-3.6584,-3.6934,-3.7469,-3.8246,-3.869,-3.9086,-3.9437,-3.9516,-3.9516,-3.9437,-3.9199,-3.8995,-3.8805,-3.8541,-3.8358,-3.8246,-3.795,-3.8035,-3.8442,-3.8772,-3.9166,-3.961,-3.9952,-4.0096,-4.0096,-4.0096,-4.0096,-4.0096,-4.0096,-4.0096,-4.0096,-4.0096,-4.0096,-4.0096,-4.0096,-4.0096,-4.0096,-4.0096,-4.0096,-4.0096,-4.0096,-4.0096,-4.0096,-4.0096,-4.0096,-4.0096,-4.0096,-4.0096,-4.0096,-4.0096,-3.9781,-3.9287,-3.8638,-3.7838,-3.7052,-3.639,-3.5887,-3.5334,-3.4583,-3.3862,-3.324,-3.2832,-3.2114,-3.1899,-3.2457,-3.2719,-3.3136,-3.3828,-3.4869,-3.5639,-3.6084,-3.6912,-3.7359,-3.7348,-3.7811,-3.8038,-3.804,-3.8469,-3.8707,-3.8707,-3.8707,-3.8707,-3.516,-3.5923,-3.6741,-3.8285,-3.7977,-3.7108,-3.635,-3.5653,-3.4033,-3.0001,0.0,-2.8894,-2.7091,-2.5907,-2.627,-2.9513,0.0,-3.2326,-3.5978,-3.7958,-3.9001,-3.9056,-3.9662,-3.9757,-3.8872,-3.8267,-3.7818,-3.7546,-3.7126,-3.6831,-3.6615,-3.7279,-3.8019,-3.8881,-3.8989,-3.9342,-3.9927,-3.9262,-3.9209,-3.9782,-3.8541,-3.8652,-3.9901,-3.8668,-3.8458,-3.9032,-3.829,-3.795,-3.8007,-3.8635,-3.8908,-3.8962,-3.9782,-4.0096,-4.0096,-4.0096,-4.0096,-4.0096,-4.0096,-4.0096,-4.0096,-4.0096,-4.0096,-4.0096,-4.0096,-4.0096,-4.0096,-4.0096,-4.0096,-4.0096,-4.0096,-4.0096,-4.0096,-4.0096,-4.0096,-4.0096,-4.0096,-4.0096,-4.0096,-4.0096,-4.0028,-3.9554,-3.8278,-3.7889,-3.7313,-3.5955,-3.5667,-3.5329,-3.459,-3.3932,-3.3512,-3.3419,-3.2892,-3.3003,-3.4111,-3.432,-3.473,-3.5551,-3.6411,-3.7087,-3.7478,-3.826,-3.8707,-3.8707,-3.8707,-3.8707,-3.8707,-3.8707,-3.8707,-3.8707,-3.8707,-3.8707,-3.5295,-3.5594,-3.6059,-3.7587,-3.6924,-3.6072,-3.6806,-3.4865,0.0,0.0,0.0,-2.7441,-2.6675,-2.6691,-2.7805,-3.087,0.0,0.0,0.0,0.0,-3.9234,0.0,0.0,0.0,0.0,0.0,0.0,0.0,-3.793,-3.7878,-3.6677,-3.6722,-3.7454,-3.8854,-3.9558,-3.9636,-3.9113,-3.8962,-3.8663,-3.8206,-3.8569,-3.8854,-3.9113,-3.9532,-3.9756,-3.985,-3.9059,0.0,-3.8718,-3.8854,-3.8908,-3.8962,-3.9782,-4.0096,-4.0096,-4.0096,-4.0096,-4.0096,-4.0096,-4.0096,-4.0096,-4.0096,-4.0096,-4.0096,-4.0096,-4.0096,-4.0096,-4.0096,-4.0096,-4.0096,-4.0096,-4.0096,-4.0096,-4.0096,-4.0096,-4.0096,-4.0096,-4.0096,-4.0096,-4.0096,-3.9622,-3.9106,-3.8853,-3.7787,-3.6914,-3.6643,-3.6028,-3.5329,-3.459,-3.4384,-3.4079,-3.347,-3.3682,-3.3952,-3.4178,-3.4912,-3.5429,-3.5593,-3.6714,-3.7429,-3.7507,-3.8258,-3.8707,-3.8707,-3.8707,-3.8707,-3.8707,-3.8707,-3.8707,-3.8707,-3.8707,-3.8707,-3.6217,-3.6013,-3.6044,-3.8285,-3.7173,-3.5478,-3.5184,0.0,0.0,0.0,-2.7708,-2.7026,-2.6391,0.0,0.0,0.0,0.0,0.0,0.0,0.0,0.0,0.0,0.0,0.0,0.0,0.0,0.0,-3.7368,-3.7538,-3.77,-3.7803,-3.8185,-3.8398,-3.833,-3.948,-3.9532,-3.833,-3.8718,-3.8525,-3.7806,-3.8177,-3.8525,-3.8908,-3.9315,-3.9688,-4.007,-3.9688,-3.9516,-3.9516,-3.9516,-3.9516,-3.9542,-3.9952,-4.0096,-4.0096,-4.0096,-4.0096,-4.0096,-4.0096,-4.0096,-4.0096,-4.0096,-4.0096,-4.0096,-4.0096,-4.0096,-4.0096,-4.0096,-4.0096,-4.0096,-4.0096,-4.0096,-4.0096,-4.0096,-4.0096,-4.0096,-4.0096,-4.0096,-4.0096,-4.0096,-3.9808,-3.9453,-3.9071,-3.8101,-3.7239,-3.6876,-3.613,-3.5464,-3.5131,-3.5081,-3.4776,-3.4058,-3.4185,-3.4631,-3.5288,-3.6007,-3.6547,-3.6782,-3.763,-3.8114,-3.811,-3.8489,-3.8707,-3.8707,-3.8707,-3.8707,-3.8707,-3.8707,-3.8707,-3.8707,-3.8707,-3.8707,-3.6508,-3.6267,-3.6302,-3.8744,-3.7467,-3.5166,-3.3673,-3.2557,0.0,0.0,-2.6654,-2.6927,-2.6344,0.0,0.0,0.0,0.0,0.0,0.0,0.0,0.0,0.0,0.0,0.0,0.0,0.0,0.0,-3.7837,-3.7367,-3.7613,-3.8854,-3.9662,-3.9532,-3.8318,-3.9305,-3.9279,-3.8064,-3.8442,-3.8442,-3.8035,-3.8035,-3.843,-3.9166,-3.9166,-3.9411,-3.9833,-3.9833,-3.9756,-3.9627,-3.9781,-3.9849,-3.9875,-4.0037,-4.0096,-4.0096,-4.0096,-4.0096,-4.0096,-4.0096,-4.0096,-4.0096,-4.0096,-4.0096,-4.0096,-4.0096,-4.0096,-4.0096,-4.0096,-4.0096,-4.0096,-4.0096,-4.0096,-4.0096,-4.0096,-4.0096,-4.0096,-4.0096,-4.0096,-4.0096,-4.0096,-4.0096,-3.9859,-3.9129,-3.8516,-3.7817,-3.6922,-3.6271,-3.5802,-3.5616,-3.56,-3.5385,-3.4808,-3.4831,-3.536,-3.6492,-3.7044,-3.756,-3.8039,-3.8471,-3.8707,-3.8707,-3.8707,-3.8707,-3.8707,-3.8707,-3.8707,-3.8707,-3.8707,-3.8707,-3.8707,-3.8707,-3.8707,-3.476,-3.5582,-3.6665,-3.7729,-3.6704,-3.5107,-3.3985,0.0,0.0,-2.7437,-2.6865,-2.6725,-2.6657,-2.6641,0.0,0.0,0.0,0.0,0.0,0.0,0.0,0.0,0.0,0.0,0.0,0.0,0.0,-3.8586,-3.8614,-3.8756,-3.8881,-3.9662,-4.0045,-3.9876,-3.9315,-3.8935,-3.8799,-3.8189,-3.8189,-3.8799,-3.8799,-3.9209,-3.9995,-3.9995,-3.9636,-3.9016,-3.9016,-3.8635,0.0,-3.8732,-3.9007,-3.9073,-3.9824,-4.0096,-4.0096,-4.0096,-4.0096,-4.0096,-4.0096,-4.0096,-4.0096,-4.0096,-4.0096,-4.0096,-4.0096,-4.0096,-4.0096,-4.0096,-4.0096,-4.0096,-4.0096,-4.0096,-4.0096,-4.0096,-4.0096,-4.0096,-4.0096,-4.0096,-4.0096,-4.0096,-4.0096,-3.9876,-3.9131,-3.8937,-3.8413,-3.7022,-3.6732,-3.6439,-3.5684,-3.56,-3.5566,-3.552,-3.5937,-3.6462,-3.7084,-3.7559,-3.806,-3.8593,-3.8676,-3.8707,-3.8707,-3.8707,-3.8707,-3.8707,-3.8707,-3.8707,-3.8707,-3.8707,-3.8707,-3.8707,-3.8707,-3.8707,-3.4376,-3.5175,-3.6302,-3.7968,-3.6246,-3.3982,-3.3337,0.0,0.0,-2.6887,-2.6602,-2.6691,-2.6691,-2.6691,-2.73,0.0,0.0,0.0,0.0,0.0,0.0,0.0,0.0,0.0,0.0,0.0,0.0,-3.823,-3.8185,-3.8442,-3.8881,-3.9662,-3.9876,-3.9394,-3.9558,-3.9183,-3.8262,-3.8386,-3.8386,-3.8246,-3.869,-3.9086,-3.9394,-3.9876,-3.9927,-3.961,-3.961,-3.9185,0.0,-3.9292,-3.9328,-3.8975,-3.98,-4.0096,-4.0096,-4.0096,-4.0096,-4.0096,-4.0096,-4.0096,-4.0096,-4.0096,-4.0096,-4.0096,-4.0096,-4.0096,-4.0096,-4.0096,-4.0096,-4.0096,-4.0096,-4.0096,-4.0096,-4.0096,-4.0096,-4.0096,-4.0096,-4.0096,-4.0096,-4.0096,-4.0096,-4.0011,-3.9723,-3.9286,-3.8806,-3.8216,-3.7766,-3.7202,-3.6418,-3.6322,-3.6141,-3.5656,-3.6067,-3.6486,-3.6701,-3.7434,-3.7988,-3.8198,-3.8518,-3.8707,-3.8707,-3.8707,-3.8707,-3.8707,-3.8707,-3.8707,-3.8707,-3.8707,-3.8707,-3.8707,-3.8707,-3.8707,-3.313,-3.4424,-3.5951,-3.7738,-3.5862,-3.3467,0.0,0.0,-2.8193,-2.66,-2.6505,-2.6691,-2.6691,-2.6691,-2.7164,0.0,0.0,0.0,0.0,0.0,0.0,0.0,0.0,0.0,0.0,0.0,0.0,-3.8546,-3.8064,-3.8234,-3.9209,-3.9584,-3.9584,-3.9262,-3.9358,-3.9119,-3.8502,-3.8525,-3.8414,-3.8133,-3.8897,-3.9139,-3.8935,-3.9731,-3.9851,-3.9425,-3.9653,-3.917,0.0,-3.9313,-3.9405,-3.8992,-3.98,-4.0096,-4.0096,-4.0096,-4.0096,-4.0096,-4.0096,-4.0096,-4.0096,-4.0096,-4.0096,-4.0096,-4.0096,-4.0096,-4.0096,-4.0096,-4.0096,-4.0096,-4.0096,-4.0096,-4.0096,-4.0096,-4.0096,-4.0096,-4.0096,-4.0096,-4.0096,-4.0096,-4.0096,-4.0096,-4.0096,-3.9674,-3.9253,-3.9034,-3.8561,-3.7882,-3.6933,-3.6928,-3.6791,-3.6248,-3.6576,-3.6791,-3.6661,-3.7395,-3.7976,-3.8116,-3.8487,-3.8707,-3.8707,-3.8707,-3.8707,-3.8707,-3.8707,-3.8707,-3.8707,-3.8707,-3.8707,-3.8707,-3.8707,-3.8707,-3.0411,-3.3118,-3.5775,-3.6531,-3.5546,-3.4025,0.0,0.0,-2.7604,-2.686,-2.6691,-2.6691,-2.6691,-2.6691,-2.7044,-2.8127,0.0,0.0,0.0,0.0,0.0,0.0,0.0,0.0,0.0,0.0,-3.9236,-4.002,-3.8668,0.0,-4.002,-3.9342,-3.9289,-4.007,-3.864,-3.8541,-4.0045,-3.8569,-3.8161,-3.8908,-3.9688,-3.9662,-3.8935,-3.9731,-3.927,-3.7876,-3.8601,-3.8044,0.0,-3.8278,-3.8905,-3.8992,-3.98,-4.0096,-4.0096,-4.0096,-4.0096,-4.0096,-4.0096,-4.0096,-4.0096,-4.0096,-4.0096,-4.0096,-4.0096,-4.0096,-4.0096,-4.0096,-4.0096,-4.0096,-4.0096,-4.0096,-4.0096,-4.0096,-4.0096,-4.0096,-4.0096,-4.0096,-4.0096,-4.0096,-4.0096,-4.0096,-4.0096,-4.0096,-3.9842,-3.9106,-3.8991,-3.847,-3.7006,-3.7206,-3.7518,-3.7569,-3.7751,-3.7699,-3.7228,-3.7634,-3.8135,-3.8658,-3.8692,-3.8707,-3.8707,-3.8707,-3.8707,-3.8707,-3.8707,-3.8707,-3.8707,-3.8707,-3.8707,-3.8707,-3.8707,-3.8707,-2.8264,-2.9746,-3.1322,-3.2543,-3.1755,-3.0542,-3.0143,0.0,-2.7587,-2.6843,-2.6691,-2.6691,-2.6691,-2.6691,-2.7164,-2.8557,-2.8901,0.0,0.0,0.0,0.0,0.0,0.0,0.0,0.0,0.0,-3.9828,-4.0074,-3.9122,-3.8772,-3.9262,-3.9059,-3.9262,-4.007,-3.9627,-3.9332,-3.9289,-3.9332,-3.9209,-3.8908,-3.9731,-3.9969,-3.9731,-3.9978,-3.9834,-3.9382,-3.9627,-3.9118,-3.8236,-3.9292,-3.9395,-3.8992,-3.98,-4.0096,-4.0096,-4.0096,-4.0096,-4.0096,-4.0096,-4.0096,-4.0096,-4.0096,-4.0096,-4.0096,-4.0096,-4.0096,-4.0096,-4.0096,-4.0096,-4.0096,-4.0096,-4.0096,-4.0096,-4.0096,-4.0096,-4.0096,-4.0096,-4.0096,-4.0096,-4.0096,-4.0096,-4.0096,-4.0096,-4.0096,-4.0028,-3.9791,-3.9758,-3.9396,-3.842,-3.8001,-3.7785,-3.7793,-3.7576,-3.7703,-3.8449,-3.8475,-3.8511,-3.8689,-3.8707,-3.8707,-3.8707,-3.8707,-3.8707,-3.8707,-3.8707,-3.8707,-3.8707,-3.8707,-3.8707,-3.8707,-3.9258,-3.9517,0.0,-2.7385,-2.8718,-2.9992,-2.9632,0.0,0.0,0.0,-2.7249,-2.6793,-2.6691,-2.6691,-2.6691,-2.6691,-2.7046,-2.8117,-2.8552,0.0,0.0,0.0,0.0,0.0,0.0,0.0,0.0,-4.0282,-4.0104,-4.0104,-3.9351,-3.9016,-3.9342,-3.9059,-3.9262,-4.007,-3.9808,-3.9542,-3.9342,-3.9542,-3.9411,-3.8908,-3.9731,-3.9927,-3.9662,-3.9952,-3.9927,-3.9674,-3.9986,-3.9488,0.0,-3.9632,-3.9632,-3.8992,-3.98,-4.0096,-4.0096,-4.0096,-4.0096,-4.0096,-4.0096,-4.0096,-4.0096,-4.0096,-4.0096,-4.0096,-4.0096,-4.0096,-4.0096,-4.0096,-4.0096,-4.0096,-4.0096,-4.0096,-4.0096,-4.0096,-4.0096,-4.0096,-4.0096,-4.0096,-4.0096,-4.0096,-4.0096,-4.0096,-4.0096,-4.0096,-4.0096,-4.0096,-4.0096,-3.9825,-3.9076,-3.8949,-3.8938,-3.894,-3.8507,-3.8662,-3.9748,-3.9157,-3.8707,-3.8707,-3.8707,-3.8707,-3.8707,-3.8707,-3.8707,-3.8707,-3.8707,-3.8707,-3.8707,-3.8707,-3.8857,-3.9153,-3.9682,-4.0052,0.0,0.0,0.0,0.0,0.0,0.0,0.0,0.0,0.0,0.0,0.0,-2.6708,-2.6759,-2.6776,-2.6909,-2.7251,0.0,0.0,0.0,0.0,0.0,0.0,0.0,0.0,0.0,-3.9698,-4.013,-4.018,-3.9428,-3.9315,-4.0045,-3.9394,-3.9342,-4.007,-3.9385,-3.9315,-4.002,-3.9342,-3.8962,-3.8908,-3.9731,-3.9714,-3.9016,-3.9756,-3.9691,0.0,-3.9724,-3.9228,-3.807,-3.9446,-3.9615,-3.9043,-3.9817,-4.0096,-4.0096,-4.0096,-4.0096,-4.0096,-4.0096,-4.0096,-4.0096,-4.0096,-4.0096,-4.0096,-4.0096,-4.0096,-4.0096,-4.0096,-4.0096,-4.0096,-4.0096,-4.0096,-4.0096,-4.0096,-4.0096,-4.0096,-4.0096,-4.0096,-4.0096,-4.0096,-4.0096,-4.0096,-4.0096,-4.0096,-4.0096,-4.0096,-4.0096,-3.9859,-3.9157,-3.9932,-4.0588,-4.0695,-4.024,-4.0249,-4.1059,-3.9642,-3.8707,-3.8707,-3.8707,-3.8707,-3.8707,-3.8707,-3.8707,-3.8707,-3.8707,-3.8707,-3.8707,-3.8707,-3.9114,-3.9889,-3.9962,-4.0421,-2.1463,0.0,-2.3422,-2.4467,-2.4728,0.0,0.0,0.0,0.0,0.0,0.0,0.0,0.0,0.0,0.0,0.0,0.0,0.0,0.0,0.0,0.0,0.0,0.0,0.0,0.0,-3.9995,-4.0333,-4.0899,-4.0247,-3.9901,-4.0096,-3.9927,-3.9901,-4.0096,-3.9927,-3.961,-3.9193,-3.961,-3.9516,-3.8908,-3.9731,-3.9995,-3.9808,-4.002,-4.0003,-3.98,-3.9379,-3.932,-3.9539,-3.9303,-3.943,-3.9834,-4.002,-4.0096,-4.0096,-4.0096,-4.0096,-4.0096,-4.0096,-4.0096,-4.0096,-4.0096,-4.0096,-4.0096,-4.0096,-4.0096,-4.0096,-4.0096,-4.0096,-4.0096,-4.0096,-4.0096,-4.0096,-4.0096,-4.0096,-4.0096,-4.0096,-4.0096,-4.0096,-4.0096,-4.0096,-4.0096,-4.0096,-4.0096,-4.0096,-4.0096,-4.0096,-4.0045,-3.9859,-3.9931,-4.0206,-4.0787,-4.0471,-4.0519,-4.1264,-3.9715,-3.8707,-3.8707,-3.8707,-3.8707,-3.8707,-3.8707,-3.8707,-3.8707,-3.8707,-3.8707,-3.8707,-3.8707,-3.9105,-3.9921,-4.0545,-4.1249,-2.0712,-2.1424,-2.2254,-2.2989,-2.354,-2.4017,0.0,0.0,0.0,0.0,0.0,0.0,0.0,0.0,0.0,0.0,0.0,0.0,0.0,0.0,0.0,0.0,0.0,0.0,0.0,0.0,-4.0282,-4.0663,-4.0333,-4.0096,-4.0096,-4.0096,-4.0096,-4.0096,-4.0096,-3.9901,-3.9463,-3.9876,-3.9876,-3.9463,-3.9901,-4.0096,-4.0096,-4.0096,-4.0096,-4.0054,-3.9244,-3.935,-4.0041,-3.9234,-3.9379,-4.0096,-4.0096,-4.0096,-4.0096,-4.0096,-4.0096,-4.0096,-4.0096,-4.0096,-4.0096,-4.0096,-4.0096,-4.0096,-4.0096,-4.0096,-4.0096,-4.0096,-4.0096,-4.0096,-4.0096,-4.0096,-4.0096,-4.0096,-4.0096,-4.0096,-4.0096,-4.0096,-4.0096,-4.0096,-4.0096,-4.0096,-4.0096,-4.0096,-4.0096,-4.0096,-4.0096,-4.0179,-4.0441,-4.0602,-4.0979,-4.1649,-4.1428,-4.1377,-4.1765,-4.0584,-3.98,-3.9789,-3.9121,-3.8869,-3.9246,-3.8888,-3.8707,-3.8707,-3.8707,-3.8707,-3.8707,-3.8707,-3.9121,-3.9915,-4.0734,-4.1529,-2.0712,-2.1697,-2.2655,-2.271,-2.3618,-2.4491,0.0,0.0,0.0,0.0,0.0,0.0,0.0,0.0,0.0,0.0,0.0,0.0,0.0,0.0,0.0,0.0,0.0,0.0,-4.0045,-4.0096,-4.0096,-4.0096,-4.0096,-4.0096,-4.0096,-4.0096,-4.0096,-4.0096,-4.0096,-4.0096,-4.0096,-4.0096,-4.0096,-4.0096,-4.0096,-4.0096,-4.0096,-4.0096,-4.0096,-4.0054,0.0,0.0,-4.0038,-3.9235,-3.9379,-4.0096,-4.0096,-4.0096,-4.0096,-4.0096,-4.0096,-4.0096,-4.0096,-4.0096,-4.0096,-4.0096,-4.0096,-4.0096,-4.0096,-4.0096,-4.0096,-4.0096,-4.0096,-4.0096,-4.0096,-4.0096,-4.0096,-4.0096,-4.0096,-4.0096,-4.0096,-4.0096,-4.0096,-4.0096,-4.0096,-4.0096,-4.0096,-4.0096,-4.0096,-4.0096,-4.0096,-4.0286,-4.0827,-4.1424,-4.2032,-4.2638,-4.2559,-4.2496,-4.2496,-4.1752,-4.1344,-4.1449,-3.996,-3.931,-3.9881,-3.9252,-3.882,-3.8707,-3.8707,-3.8707,-3.8707,-3.8707,-3.9176,-4.0111,-4.0773,-4.1603,-2.0794,-2.2248,-2.3455,-2.2261,-2.3234,-2.4491,0.0,0.0,0.0,0.0,0.0,0.0,0.0,0.0,0.0,0.0,0.0,0.0,0.0,0.0,0.0,0.0,0.0,0.0,-4.0096,-4.0096,-4.0096,-4.0096,-4.0096,-4.0096,-4.0096,-4.0096,-4.0096,-4.0096,-4.0096,-4.0096,-4.0096,-4.0096,-4.0096,-4.0096,-4.0096,-4.0096,-4.0096,-4.0096,-4.0096,-4.0054,0.0,-3.9352,-4.0038,-3.9235,-3.9379,-4.0096,-4.0096,-4.0096,-4.0096,-4.0096,-4.0096,-4.0096,-4.0096,-4.0096,-4.0096,-4.0096,-4.0096,-4.0096,-4.0096,-4.0096,-4.0096,-4.0096,-4.0096,-4.0096,-4.0096,-4.0096,-4.0096,-4.0096,-4.0096,-4.0096,-4.0096,-4.0096,-4.0096,-4.0096,-4.0096,-4.0096,-4.0096,-4.0096,-4.0096,-4.0096,-4.0096,-4.0286,-4.0827,-4.1424,-4.2038,-4.2632,-4.3069,-4.3315,-4.3315,-4.2569,-4.2404,-4.309,-4.1627,-4.0492,-3.9916,-3.9793,-3.941,-3.8726,-3.8707,-3.8707,-3.8707,-3.8707,-3.9445,-4.0923,-4.1043,-4.1905,-2.0745,-2.1939,-2.2915,-2.2016,-2.3469,-2.4983,-2.4592,0.0,0.0,0.0,0.0,0.0,0.0,0.0,0.0,0.0,0.0,0.0,0.0,0.0,0.0,0.0,0.0,-3.9612,-4.007,-4.0096,-4.0096,-4.0096,-4.0096,-4.0096,-4.0096,-4.0096,-4.0096,-4.0096,-4.0096,-4.0096,-4.0096,-3.9706,-3.9706,-4.0096,-4.0096,-4.0096,-4.0096,-4.0096,-4.0096,-4.0054,0.0,-3.935,-4.0041,-3.9234,-3.9379,-4.0096,-4.0096,-4.0096,-4.0096,-4.0096,-4.0096,-4.0096,-4.0096,-4.0096,-4.0096,-4.0096,-4.0096,-4.0096,-4.0096,-4.0096,-4.0096,-4.0096,-4.0096,-4.0096,-4.0096,-4.0096,-4.0096,-4.0096,-4.0096,-4.0096,-4.0096,-4.0096,-4.0096,-4.0096,-4.0096,-4.0096,-4.0096,-4.0096,-4.0096,-4.0096,-4.0096,-4.0392,-4.1268,-4.1621,-4.2144,-4.3032,-4.3357,-4.3515,-4.3515,-4.3151,-4.273,-4.2234,-4.1515,-4.0744,-3.9923,-3.9483,-3.9077,-3.8707,-3.8707,-3.8707,-3.8707,-3.8707,-3.9084,-3.9823,-4.0703,-4.1504,-2.0844,-2.1763,-2.2504,-2.195,0.0,-2.5236,-2.4846,0.0,0.0,0.0,0.0,0.0,0.0,0.0,0.0,0.0,0.0,0.0,0.0,0.0,0.0,-3.8881,-3.9099,-3.9432,-4.0045,-4.0096,-4.0096,-4.0096,-4.0096,-4.0096,-4.0096,-4.0096,-4.0028,-3.9859,-3.9842,-3.9757,-3.9605,-3.9005,-3.9106,-3.9842,-3.9673,-3.969,-3.9842,-3.9842,-3.9926,-4.0079,-3.9446,-3.9522,-4.0037,-3.943,-3.9539,-4.0096,-4.0096,-4.0096,-4.0096,-4.0096,-4.0096,-4.0096,-4.0096,-4.0096,-4.0096,-4.0096,-4.0096,-4.0096,-4.0096,-4.0096,-4.0096,-4.0096,-4.0096,-4.0096,-4.0096,-4.0096,-4.0096,-4.0096,-4.0096,-4.0096,-4.0096,-4.0096,-4.0096,-4.0096,-4.0096,-4.0096,-4.0096,-4.0096,-4.0096,-4.0096,-4.0204,-4.0648,-4.1664,-4.1916,-4.2384,-4.3391,-4.3515,-4.3515,-4.3515,-4.3515,-4.2966,-4.1741,-4.166,-4.1217,-4.0221,-3.9593,-3.9093,-3.8707,-3.8707,-3.8707,-3.8707,-3.8707,-3.8888,-3.9301,-4.0535,-4.1293,-2.1261,-2.228,-2.3089,-2.2069,0.0,0.0,-2.5389,-2.6624,0.0,0.0,0.0,0.0,0.0,0.0,0.0,0.0,0.0,0.0,0.0,0.0,-3.9944,-3.9986,-3.9995,-4.0045,-4.0096,-4.0096,-4.0096,-4.0096,-4.0096,-4.0096,-4.0096,-4.0096,-3.9791,-3.9089,-3.9073,-3.8751,-3.8075,-3.8024,-3.8345,-3.9056,-3.8396,-3.8413,-3.9073,-3.9095,-3.9468,-4.0096,-4.0037,-4.0037,-4.0096,-4.0037,-4.0037,-4.0096,-4.0096,-4.0096,-4.0096,-4.0096,-4.0096,-4.0096,-4.0096,-4.0096,-4.0096,-4.0096,-4.0096,-4.0096,-4.0096,-4.0096,-4.0096,-4.0096,-4.0096,-4.0096,-4.0096,-4.0096,-4.0096,-4.0096,-4.0096,-4.0096,-4.0096,-4.0096,-4.0096,-4.0096,-4.0096,-4.0096,-4.0096,-4.0096,-4.0096,-4.0096,-4.0504,-4.1064,-4.1725,-4.2302,-4.2864,-4.3427,-4.3515,-4.3515,-4.3515,-4.3515,-4.3442,-4.3332,-4.3331,-4.2618,-4.1082,-4.0969,-4.0215,-3.8726,-3.8707,-3.8707,-3.8707,-3.8707,-3.9464,-4.0923,-4.1055,-4.1901,-2.1198,-2.2017,-2.2661,-2.2218,0.0,0.0,0.0,0.0,0.0,0.0,0.0,0.0,0.0,0.0,0.0,0.0,0.0,0.0,0.0,0.0,-4.0096,-4.0096,-4.0096,-4.0096,-4.0096,-4.0096,-4.0096,-4.0096,-3.969,-3.9436,-3.9436,-3.8971,-3.8599,-3.8328,-3.8328,-3.8176,-3.7905,-3.7449,-3.7371,-3.7642,-3.7804,-3.8058,-3.8328,-3.8331,-3.8461,-3.8749,-3.9211,-3.9413,-3.9446,-3.991,-4.0096,-4.0096,-4.0096,-4.0096,-4.0096,-4.0096,-4.0096,-4.0096,-4.0096,-4.0096,-4.0096,-4.0096,-4.0096,-4.0096,-4.0096,-4.0096,-4.0096,-4.0096,-4.0096,-4.0096,-4.0096,-4.0096,-4.0096,-4.0096,-4.0096,-4.0096,-4.0096,-4.0096,-4.0096,-4.0096,-4.0096,-4.0096,-4.0096,-4.0096,-4.0204,-4.0552,-4.078,-4.1251,-4.2223,-4.2577,-4.2902,-4.3444,-4.3515,-4.3515,-4.3515,-4.3515,-4.3515,-4.3515,-4.2561,-4.1724,-4.1131,-4.0132,-3.9331,-3.8707,-3.8707,-3.8958,-3.9445,-3.9445,-4.0004,-4.1123,-4.1613,-4.2159,-2.1118,-2.1581,-2.1915,0.0,0.0,0.0,0.0,0.0,0.0,0.0,0.0,0.0,0.0,0.0,0.0,0.0,0.0,0.0,0.0,0.0,-3.9932,-3.9453,-3.9419,-3.9419,-3.9419,-3.9419,-3.9419,-3.9419,-3.8937,-3.865,-3.865,-3.8176,-3.7787,-3.755,-3.755,-3.7432,-3.7195,-3.6671,-3.6417,-3.6417,-3.6941,-3.7307,-3.756,-3.756,-3.7672,-3.7928,-3.8435,-3.8771,-3.9034,-3.9299,-3.9542,-3.9781,-4.0019,-4.0096,-4.0096,-4.0096,-4.0096,-4.0096,-4.0096,-4.0096,-4.0096,-4.0096,-4.0096,-4.0096,-4.0096,-4.0096,-4.0096,-4.0096,-4.0096,-4.0096,-4.0096,-4.0096,-4.0096,-4.0096,-4.0096,-4.0096,-4.0096,-4.0096,-4.0096,-4.0096,-4.0096,-4.0096,-4.0096,-4.0096,-4.0286,-4.0827,-4.1064,-4.1556,-4.2577,-4.2845,-4.3087,-4.3462,-4.3515,-4.3515,-4.3515,-4.3515,-4.3515,-4.3515,-4.1992,-4.1209,-4.1473,-4.0419,-3.9709,-3.9445,-3.9445,-3.9715,-4.0274,-4.0276,-4.0682,-4.1496,-4.2034,-4.2442,-2.1098,-2.1017,0.0,0.0,0.0,0.0,0.0,0.0,0.0,0.0,0.0,0.0,0.0,0.0,0.0,0.0,0.0,0.0,0.0,-3.8689,-3.9529,-3.8065,-3.7905,-3.7905,-3.7905,-3.7905,-3.7905,-3.7905,-3.7905,-3.7889,-3.7889,-3.7872,-3.7533,-3.6795,-3.6778,-3.6366,-3.5583,-3.5583,-3.5583,-3.5583,-3.5583,-3.5999,-3.6793,-3.6803,-3.7188,-3.787,-3.7887,-3.8295,-3.8925,-3.8201,-3.8328,-3.9061,-3.979,-4.0096,-4.0096,-4.0096,-4.0096,-4.0096,-4.0096,-4.0096,-4.0096,-4.0096,-4.0096,-4.0096,-4.0096,-4.0096,-4.0096,-4.0096,-4.0096,-4.0096,-4.0096,-4.0096,-4.0096,-4.0096,-4.0096,-4.0096,-4.0096,-4.0096,-4.0096,-4.0096,-4.0096,-4.0096,-4.0096,-4.0096,-4.0286,-4.0827,-4.1424,-4.2038,-4.2635,-4.3178,-4.3515,-4.3515,-4.3515,-4.3515,-4.3515,-4.3496,-4.3496,-4.3515,-4.2011,-4.1475,-4.2274,-4.229,-4.1899,-4.1123,-4.1105,-4.1105,-4.1123,-4.1104,-4.1534,-4.2297,-4.2297,-4.2733,-2.1243,0.0,0.0,0.0,0.0,0.0,0.0,0.0,0.0,0.0,0.0,0.0,0.0,0.0,0.0,-3.4083,-3.5661,-3.6795,-3.6795,-3.7489,-3.7956,-3.7922,-3.7573,-3.7482,-3.7848,-3.7905,-3.7905,-3.7905,-3.7415,-3.6874,-3.6309,-3.5791,-3.5165,-3.4438,-3.4404,-3.4303,-3.4044,-3.4044,-3.4324,-3.4842,-3.4842,-3.5221,-3.5971,-3.5972,-3.6073,-3.6306,-3.6877,-3.7251,-3.7471,-3.7763,-3.8325,-3.9024,-3.9244,-3.9632,-4.0096,-4.0096,-4.0096,-4.0096,-4.0096,-4.0096,-4.0096,-4.0096,-4.0096,-4.0096,-4.0096,-4.0096,-4.0096,-4.0096,-4.0096,-4.0096,-4.0096,-4.0096,-4.0096,-4.0096,-4.0096,-4.0096,-4.0096,-4.0096,-4.0096,-4.0096,-4.0096,-4.0096,-4.0096,-4.0417,-4.085,-4.1446,-4.2059,-4.2637,-4.3196,-4.341,-4.3515,-4.3515,-4.3515,-4.3515,-4.3515,-4.2983,-4.2892,-4.346,-4.2525,-4.2049,-4.229,-4.1211,-4.0773,-4.1088,-4.1088,-4.1377,-4.1939,-4.1948,-4.2369,-4.3133,-4.3133,-4.326,-2.1227,0.0,0.0,0.0,0.0,0.0,0.0,0.0,0.0,0.0,0.0,0.0,0.0,0.0,0.0,-3.3563,-3.4641,-3.5436,-3.5436,-3.5735,-3.5982,-3.609,-3.5661,-3.5548,-3.6056,-3.6113,-3.6113,-3.6113,-3.5707,-3.5233,-3.4737,-3.4303,-3.3863,-3.3423,-3.3406,-3.3406,-3.3406,-3.3394,-3.3613,-3.4061,-3.4054,-3.4454,-3.5166,-3.5476,-3.56,-3.5656,-3.6446,-3.661,-3.6407,-3.7461,-3.7997,-3.8179,-3.8463,-3.9009,-3.9674,-3.9674,-3.9834,-4.0096,-4.0096,-4.0096,-4.0096,-4.0096,-4.0096,-4.0096,-4.0096,-4.0096,-4.0096,-4.0096,-4.0096,-4.0096,-4.0096,-4.0096,-4.0096,-4.0096,-4.0096,-4.0096,-4.0096,-4.0096,-4.0096,-4.0096,-4.0096,-4.0171,-4.0368,-4.0679,-4.1201,-4.2021,-4.2656,-4.3124,-4.3444,-4.3515,-4.3515,-4.3515,-4.3515,-4.3515,-4.3515,-4.3057,-4.2983,-4.3478,-4.2745,-4.2453,-4.2768,-4.1853,-4.1563,-4.2041,-4.206,-4.2278,-4.2787,-4.2787,-4.3024,-4.3515,-4.3515,-4.3515,0.0,0.0,0.0,0.0,0.0,0.0,0.0,0.0,0.0,0.0,0.0,0.0,0.0,0.0,0.0,-3.2276,-3.2848,-3.3322,-3.3322,-3.3799,-3.3939,-3.3406,-3.2997,-3.2925,-3.3351,-3.3406,-3.3406,-3.3406,-3.3406,-3.3372,-3.3305,-3.3305,-3.3271,-3.3203,-3.3203,-3.3203,-3.3203,-3.3199,-3.322,-3.3292,-3.3289,-3.369,-3.4421,-3.5178,-3.5526,-3.5656,-3.6378,-3.6288,-3.5718,-3.7128,-3.7354,-3.6865,-3.7539,-3.8254,-3.8891,-3.8908,-3.9379,-4.0003,-4.0003,-4.0037,-4.0096,-4.0096,-4.0096,-4.0096,-4.0096,-4.0096,-4.0096,-4.0096,-4.0096,-4.0096,-4.0096,-4.0096,-4.0096,-4.0096,-4.0096,-4.0096,-4.0096,-4.0096,-4.0096,-4.0096,-4.0146,-4.0336,-4.0827,-4.0995,-4.1446,-4.2598,-4.3196,-4.3515,-4.3515,-4.3515,-4.3515,-4.3515,-4.3515,-4.3515,-4.3515,-4.3441,-4.3423,-4.3515,-4.2727,-4.2653,-4.3478,-4.3423,-4.3423,-4.3515,-4.3515,-4.3515,-4.3515,-4.3515,-4.3515,-4.3515,-4.3515,-4.3515,0.0,0.0,0.0,0.0,0.0,0.0,0.0,0.0,0.0,0.0,0.0,0.0,0.0,0.0,0.0,-3.2107,-3.2429,-3.2618,-3.2812,-3.3266,-3.3406,-3.2909,-3.3086,-3.328,-3.3406,-3.3406,-3.3406,-3.3406,-3.3406,-3.3152,-3.2581,-3.2547,-3.2256,-3.1681,-3.1664,-3.1664,-3.1664,-3.1678,-3.1958,-3.2539,-3.253,-3.2914,-3.3656,-3.4411,-3.506,-3.56,-3.578,-3.5763,-3.5633,-3.5966,-3.6367,-3.6825,-3.6961,-3.7489,-3.8144,-3.8127,-3.8606,-3.9228,-3.9228,-3.9615,-4.0096,-4.0096,-4.0096,-4.0096,-4.0096,-4.0096,-4.0096,-4.0096,-4.0096,-4.0096,-4.0096,-4.0096,-4.0096,-4.0096,-4.0096,-4.0096,-4.0096,-4.0096,-4.0096,-4.0096,-4.0424,-4.0756,-4.088,-4.1686,-4.2541,-4.3232,-4.3427,-4.3515,-4.3515,-4.3515,-4.3515,-4.3515,-4.3515,-4.3515,-4.3515,-4.291,-4.2818,-4.346,-4.2742,-4.265,-4.3478,-4.2889,-4.2852,-4.3496,-4.3515,-4.3515,-4.3515,-4.3515,-4.3515,-4.3515,-4.3515,-4.3515,0.0,0.0,0.0,0.0,0.0,0.0,0.0,0.0,0.0,0.0,0.0,0.0,0.0,0.0,0.0,-3.0601,-3.0719,-3.0859,-3.1208,-3.1286,-3.1292,-3.1275,-3.1275,-3.1292,-3.1292,-3.1613,-3.1681,-3.1309,-3.163,-3.1495,-3.077,-3.0719,-3.0533,-3.0161,-3.0161,-3.0161,-3.0161,-3.0138,-3.0527,-3.1244,-3.1244,-3.1822,-3.2894,-3.3649,-3.4372,-3.5035,-3.4692,-3.4744,-3.506,-3.4701,-3.4987,-3.569,-3.569,-3.6395,-3.7376,-3.7364,-3.7831,-3.8468,-3.8463,-3.8732,-3.9043,-3.9043,-3.9303,-3.9581,-3.9581,-3.9817,-4.0096,-4.0096,-4.0096,-4.0096,-4.0096,-4.0096,-4.0096,-4.0096,-4.0096,-4.0096,-4.0096,-4.0096,-4.0096,-4.0096,-4.0528,-4.0995,-4.1291,-4.2306,-4.3178,-4.3444,-4.3515,-4.3515,-4.3515,-4.3149,-4.3057,-4.346,-4.3149,-4.3075,-4.3478,-4.3112,-4.3039,-4.3478,-4.3109,-4.3073,-4.3478,-4.3109,-4.3073,-4.3496,-4.3515,-4.3515,-4.3515,-4.3515,-4.3515,-4.3515,-4.3515,-4.3515,0.0,0.0,0.0,0.0,0.0,0.0,0.0,0.0,0.0,0.0,0.0,0.0,0.0,0.0,0.0,-2.8553,-2.8502,-2.8589,-2.9104,-2.8964,-2.8892,-2.915,-2.9063,-2.8993,-2.8993,-2.955,-2.9651,-2.9044,-2.9448,-2.9499,-2.9027,-2.8874,-2.8857,-2.8993,-2.8993,-2.8993,-2.8993,-2.8996,-2.9304,-2.9911,-2.9903,-3.0631,-3.1947,-3.2544,-3.3379,-3.4287,-3.3651,-3.3739,-3.4259,-3.3651,-3.384,-3.4498,-3.4499,-3.5346,-3.6593,-3.6593,-3.7063,-3.7712,-3.7696,-3.7794,-3.7902,-3.7902,-3.8303,-3.8806,-3.8799,-3.932,-3.991,-3.991,-4.0003,-4.0096,-4.0096,-4.0096,-4.0096,-4.0096,-4.0096,-4.0096,-4.0096,-4.0096,-4.0121,-4.0229,-4.075,-4.1349,-4.1822,-4.2667,-4.3277,-4.3277,-4.3167,-4.313,-4.3276,-4.2708,-4.2543,-4.3222,-4.2818,-4.2782,-4.3441,-4.3515,-4.3515,-4.3515,-4.3515,-4.3515,-4.3515,-4.3515,-4.3515,-4.3515,-4.3515,-4.3515,-4.3515,-4.3515,-4.3515,-4.3515,-4.3515,-4.3515,0.0,0.0,0.0,0.0,0.0,0.0,0.0,0.0,0.0,0.0,0.0,0.0,0.0,0.0,0.0,-2.6809,-2.6471,-2.63,-2.7009,-2.7606,-2.7754,-2.7175,-2.8208,-2.8993,-2.8993,-2.9094,-2.9111,-2.901,-2.845,-2.8383,-2.8976,-2.8349,-2.8281,-2.8976,-2.8993,-2.8993,-2.8993,-2.8989,-2.9056,-2.9159,-2.914,-2.9585,-3.0404,-3.0491,-3.1642,-3.3536,-3.3451,-3.347,-3.355,-3.3444,-3.3819,-3.4499,-3.4496,-3.5026,-3.5763,-3.5763,-3.6248,-3.695,-3.6945,-3.7371,-3.7895,-3.7895,-3.7969,-3.8048,-3.8052,-3.8547,-3.9135,-3.9135,-3.9615,-4.0096,-4.0096,-4.0096,-4.0096,-4.0096,-4.0096,-4.0096,-4.0096,-4.0096,-4.0254,-4.0685,-4.1703,-4.2401,-4.2248,-4.2348,-4.2451,-4.2451,-4.1882,-4.168,-4.2378,-4.2378,-4.2341,-4.2451,-4.2983,-4.3386,-4.3496,-4.3515,-4.3515,-4.3515,-4.3515,-4.3515,-4.3515,-4.3515,-4.3515,-4.3515,-4.3515,-4.3515,-4.3515,-4.3515,-4.3515,-4.3515,-4.3515,-4.3515,0.0,0.0,0.0,0.0,0.0,0.0,0.0,0.0,0.0,0.0,0.0,0.0,0.0,0.0,0.0,-2.5354,-2.5202,-2.5015,-2.5082,-2.5591,-2.5729,-2.5128,-2.6269,-2.7097,-2.7097,-2.7841,-2.8163,-2.774,-2.7385,-2.7165,-2.7097,-2.637,-2.6099,-2.6471,-2.6877,-2.6911,-2.6488,-2.6893,-2.7298,-2.7723,-2.8606,-2.9169,-2.9479,-2.9492,-3.0701,-3.2755,-3.236,-3.2397,-3.2753,-3.2334,-3.2593,-3.3311,-3.372,-3.4343,-3.5043,-3.5436,-3.5836,-3.6124,-3.6124,-3.6339,-3.661,-3.661,-3.6916,-3.7285,-3.7286,-3.8084,-3.8911,-3.8484,-3.8911,-3.9382,-3.8962,-3.915,-3.9488,-3.9488,-3.98,-4.0187,-4.0497,-4.0562,-4.0814,-4.1736,-4.1928,-4.2049,-4.2256,-4.1937,-4.1791,-4.2231,-4.2011,-4.2066,-4.2873,-4.258,-4.247,-4.291,-4.2892,-4.3002,-4.346,-4.3515,-4.3515,-4.3515,-4.3515,-4.3515,-4.3515,-4.3515,-4.3515,-4.3515,-4.3515,-4.3515,-4.3515,-4.3515,-4.3515,-4.3515,-4.3515,-4.3601,0.0,0.0,0.0,0.0,0.0,0.0,0.0,0.0,0.0,0.0,0.0,0.0,0.0,0.0,0.0,-2.4186,-2.4068,-2.3818,-2.3474,-2.3723,-2.3907,-2.3809,-2.4715,-2.5321,-2.5321,-2.6319,-2.6742,-2.6167,-2.598,-2.5693,-2.5338,-2.4626,-2.4305,-2.4491,-2.5033,-2.5052,-2.4512,-2.5045,-2.5698,-2.6421,-2.7589,-2.8338,-2.8715,-2.8699,-2.9711,-3.1452,-3.108,-3.1341,-3.1967,-3.1418,-3.163,-3.2361,-3.2912,-3.3689,-3.4538,-3.4897,-3.5296,-3.5583,-3.5403,-3.5436,-3.56,-3.56,-3.6017,-3.6503,-3.6503,-3.741,-3.8374,-3.7986,-3.8427,-3.8881,-3.8323,-3.8601,-3.8997,-3.9009,-3.9519,-4.0117,-4.052,-4.0813,-4.1223,-4.193,-4.1649,-4.1414,-4.165,-4.1352,-4.1297,-4.1901,-4.2011,-4.2286,-4.3075,-4.2671,-4.2525,-4.313,-4.2837,-4.2837,-4.346,-4.3515,-4.3515,-4.3515,-4.3515,-4.3515,-4.3515,-4.3515,-4.3515,-4.3515,-4.3515,-4.3515,-4.3515,-4.3515,-4.3515,-4.3496,-4.358,-4.3766,0.0,0.0,0.0,0.0,0.0,0.0,0.0,0.0,0.0,0.0,0.0,0.0,0.0,0.0,0.0,-2.3342,-2.2868,-2.2398,-2.2381,-2.2406,-2.2761,-2.3689,-2.425,-2.4558,-2.4558,-2.4626,-2.466,-2.4609,-2.3966,-2.3849,-2.4525,-2.3864,-2.378,-2.4474,-2.4541,-2.4547,-2.449,-2.4547,-2.4929,-2.5648,-2.5749,-2.6522,-2.7861,-2.7862,-2.8339,-2.9214,-2.9869,-3.0594,-3.1258,-3.1224,-3.163,-3.2298,-3.2344,-3.3241,-3.4432,-3.3768,-3.4393,-3.5493,-3.4807,-3.5004,-3.56,-3.56,-3.5616,-3.5673,-3.5673,-3.6265,-3.7035,-3.771,-3.8443,-3.8986,-3.8957,-3.8957,-3.9003,-3.8991,-3.9416,-3.9804,-3.9783,-4.0603,-4.1176,-4.0473,-4.0758,-4.0877,-4.0157,-4.0616,-4.1113,-4.115,-4.115,-4.1444,-4.2268,-4.2323,-4.2323,-4.2359,-4.3002,-4.346,-4.3515,-4.3515,-4.3515,-4.3515,-4.3515,-4.3515,-4.3515,-4.3515,-4.3515,-4.3515,-4.3515,-4.3515,-4.3515,-4.3515,-4.3515,-4.3515,-4.3836,-4.3982,0.0,0.0,0.0,0.0,0.0,0.0,0.0,0.0,0.0,0.0,0.0,0.0,0.0,0.0,0.0,0.0,-2.2465,-2.2296,-2.2296,-2.2304,-2.2425,-2.2781,-2.3391,-2.3797,-2.3797,-2.422,-2.4491,-2.4491,-2.3831,-2.3526,-2.378,-2.3088,-2.2818,-2.3088,-2.3549,-2.3789,-2.3786,-2.3804,-2.4164,-2.4906,-2.536,-2.6118,-2.708,-2.708,-2.7504,-2.8253,-2.8509,-2.9328,-3.0544,-3.0999,-3.1348,-3.1647,-3.2122,-3.2627,-3.3106,-3.3333,-3.3741,-3.4226,-3.442,-3.4684,-3.497,-3.5436,-3.56,-3.56,-3.56,-3.6474,-3.7445,-3.7263,-3.806,-3.8795,-3.7848,-3.8297,-3.9088,-3.9371,-4.0591,-4.1203,-3.9608,-3.998,-4.0655,-4.0756,-4.0538,-4.0396,-4.0634,-4.0487,-4.0689,-4.1717,-4.1882,-4.2158,-4.2965,-4.3057,-4.3057,-4.3057,-4.3331,-4.3515,-4.3515,-4.3515,-4.3515,-4.3515,-4.3515,-4.3515,-4.3515,-4.3515,-4.3515,-4.3515,-4.3515,-4.3515,-4.3515,-4.3515,-4.3614,-4.3818,-4.394,-4.4243,0.0,0.0,0.0,0.0,0.0,0.0,0.0,0.0,0.0,0.0,0.0,0.0,0.0,0.0,0.0,0.0,-2.2296,-2.2296,-2.2296,-2.2296,-2.2296,-2.2296,-2.2719,-2.3038,-2.3038,-2.346,-2.3763,-2.3763,-2.3308,0.0,-2.3038,-2.2567,-2.2296,-2.2296,-2.2774,-2.3035,-2.3027,-2.3032,-2.3528,-2.4513,-2.4988,-2.5749,-2.6691,-2.6691,-2.6962,-2.7436,-2.7691,-2.8537,-2.9794,-3.0544,-3.0842,-3.0892,-3.1647,-3.2068,-3.2324,-3.2572,-3.297,-3.347,-3.3973,-3.429,-3.4628,-3.5346,-3.56,-3.56,-3.56,-3.6309,-3.7144,-3.7161,-3.7986,-3.8662,-3.7672,-3.8077,-3.8905,-3.9367,-4.0495,-4.1052,-3.9621,-3.9929,-4.0469,-4.0331,-3.9863,-3.9662,-4.0196,-4.0304,-4.0579,-4.1368,-4.1956,-4.2488,-4.302,-4.3094,-4.3185,-4.3478,-4.3515,-4.3515,-4.3515,-4.3515,-4.3515,-4.3515,-4.3515,-4.3515,-4.3515,-4.3515,-4.3515,-4.3515,-4.3515,-4.3515,-4.3515,-4.3515,-4.3679,-4.3998,-4.4132,-4.4568,0.0,0.0,0.0,0.0,0.0,0.0,0.0,0.0,0.0,0.0,0.0,0.0,0.0,0.0,0.0,0.0,-2.2296,-2.2296,-2.2296,-2.2296,-2.2296,-2.2296,-2.2296,-2.2296,-2.2296,-2.2296,-2.2296,-2.2296,-2.2296,-2.2296,-2.2296,-2.2296,-2.2296,-2.2296,-2.2296,-2.2296,-2.2296,-2.2296,-2.3039,-2.4496,-2.4491,-2.5263,-2.6691,-2.6691,-2.6691,-2.6742,-2.7453,-2.8212,-2.8982,-2.9747,-3.0076,-3.0124,-3.0875,-3.1594,-3.2156,-3.1472,-3.2122,-3.3338,-3.3355,-3.3845,-3.4594,-3.5329,-3.5583,-3.56,-3.56,-3.5639,-3.596,-3.7472,-3.8277,-3.8716,-3.8651,-3.8461,-3.8457,-3.8977,-3.9084,-3.9208,-3.9749,-4.0506,-4.06,-3.9019,-3.8707,-3.8707,-3.8726,-4.0049,-4.0838,-4.0065,-4.1313,-4.2341,-4.2341,-4.2304,-4.2598,-4.3423,-4.3478,-4.3478,-4.3515,-4.3515,-4.3515,-4.3515,-4.3515,-4.3515,-4.3515,-4.3515,-4.3515,-4.3515,-4.3515,-4.3496,-4.3513,-4.3513,-4.3695,-4.4031,-4.4447,-4.4977,-2.2487,0.0,0.0,0.0,0.0,0.0,0.0,0.0,0.0,0.0,0.0,0.0,0.0,0.0,0.0,0.0,0.0,-2.2296,-2.2296,-2.2296,-2.2296,-2.2296,-2.2296,-2.2296,-2.2296,-2.2296,-2.2296,0.0,-2.2296,-2.2296,-2.2296,-2.2296,-2.2296,-2.2296,-2.2296,-2.2296,-2.2296,-2.2296,-2.3039,-2.4496,-2.4491,-2.5263,-2.6691,-2.6691,-2.6691,-2.6725,-2.6928,-2.7131,-2.7431,-2.8765,-2.9297,-2.9376,-3.0124,-3.0544,-3.0754,-3.1086,-3.1472,-3.1876,-3.242,-3.3081,-3.384,-3.4555,-3.5166,-3.56,-3.56,-3.6251,-3.7059,-3.7507,-3.8386,-3.9188,-3.9188,-3.9027,-3.8906,-3.8995,-3.9799,-4.0251,-3.9245,-3.9662,-3.9937,-3.8909,-3.8707,-3.8891,-3.946,-4.0432,-4.1205,-4.1589,-4.2506,-4.3167,-4.3167,-4.2653,-4.2598,-4.3423,-4.2983,-4.2873,-4.346,-4.3515,-4.3515,-4.3515,-4.3515,-4.3515,-4.3515,-4.3515,-4.3515,-4.3515,-4.3515,-4.3631,-4.3865,-4.3865,-4.4061,-4.446,-4.5044,-4.5429,0.0,0.0,0.0,0.0,0.0,0.0,-2.1735,-2.1779,-2.1803,0.0,-2.2006,0.0,0.0,0.0,0.0,0.0,0.0,-2.2296,-2.2296,-2.2296,-2.2296,-2.2296,-2.2296,-2.2296,-2.2296,-2.2296,-2.2296,-2.2296,-2.2296,-2.2296,-2.2296,-2.2296,-2.2296,-2.2296,-2.2296,-2.2296,-2.2296,-2.2296,-2.2892,-2.4035,-2.4358,-2.5113,-2.6253,-2.6556,-2.6691,-2.6691,-2.6691,-2.6691,-2.6759,-2.7657,-2.8218,-2.8589,-2.933,-2.9831,-3.016,-3.0578,-3.0946,-3.1314,-3.2051,-3.2588,-3.311,-3.4167,-3.4788,-3.5203,-3.5504,-3.6268,-3.712,-3.7399,-3.8342,-3.9288,-3.9532,-3.9281,-3.8923,-3.8872,-3.9489,-3.9829,-3.8909,-3.9074,-3.9258,-3.8799,-3.8707,-3.8854,-3.9313,-4.0341,-4.115,-4.1277,-4.2268,-4.2873,-4.2543,-4.2084,-4.2121,-4.291,-4.258,-4.2635,-4.3441,-4.3515,-4.3515,-4.3515,-4.3515,-4.3515,-4.3515,-4.3515,-4.3515,-4.3515,-4.3629,-4.3962,-4.4457,-4.415,-4.4276,-4.4825,-4.5352,-4.5594,0.0,0.0,0.0,0.0,0.0,0.0,-2.215,-2.1773,-2.1478,-2.2073,-2.2192,0.0,0.0,0.0,0.0,0.0,0.0,0.0,-2.2296,-2.2296,-2.2296,-2.2296,-2.2296,-2.2296,-2.2296,-2.2296,-2.2296,-2.2296,-2.2296,-2.2296,-2.2296,-2.2296,-2.2296,-2.2296,-2.2296,-2.2296,-2.2296,-2.2296,-2.2666,-2.3414,-2.4155,-2.4896,-2.5631,-2.6354,-2.6691,-2.6691,-2.6691,-2.6691,-2.6691,-2.6691,-2.708,-2.7759,-2.8561,-2.9329,-3.0003,-3.0076,-3.0561,-3.1278,-3.1964,-3.2227,-3.2534,-3.3837,-3.4296,-3.4529,-3.5311,-3.5951,-3.6522,-3.7408,-3.8297,-3.9097,-3.9639,-3.9239,-3.8707,-3.8707,-3.8707,-3.8707,-3.8707,-3.8707,-3.8707,-3.8707,-3.8707,-3.8707,-3.8707,-4.0031,-4.0857,-4.0139,-4.1332,-4.2047,-4.1334,-4.1077,-4.126,-4.2084,-4.2176,-4.2488,-4.3313,-4.346,-4.3515,-4.3515,-4.3515,-4.3515,-4.3515,-4.3515,-4.3513,-4.3546,-4.3943,-4.4438,-4.5095,-4.4443,-4.4482,-4.515,-4.5448,-4.5594,0.0,0.0,0.0,0.0,0.0,0.0,-2.1552,-2.1766,-2.1955,0.0,-2.141,0.0,0.0,0.0,0.0,0.0,0.0,0.0,-2.2296,-2.2296,-2.2296,-2.2296,-2.2296,-2.2296,-2.2296,-2.2296,-2.2296,-2.2296,-2.2296,-2.2296,-2.2296,-2.2296,-2.2296,-2.2296,-2.2296,-2.2296,-2.2296,-2.2296,-2.2666,-2.3414,-2.4159,-2.4887,-2.5631,-2.6354,-2.6691,-2.6691,-2.6691,-2.6691,-2.6691,-2.6691,-2.6792,-2.6995,-2.7725,-2.8528,-2.9298,-2.9878,-3.0561,-3.1227,-3.1348,-3.1805,-3.2344,-3.2628,-3.3119,-3.3837,-3.5001,-3.5701,-3.6414,-3.8007,-3.8603,-3.8784,-3.8896,-3.8817,-3.8707,-3.8707,-3.8707,-3.8707,-3.8707,-3.8707,-3.8707,-3.8707,-3.8707,-3.8707,-3.8707,-4.0031,-4.104,-4.0875,-4.168,-4.2249,-4.2084,-4.0946,-4.0432,-4.1242,-4.1334,-4.1645,-4.247,-4.313,-4.3515,-4.3515,-4.3515,-4.3515,-4.3515,-4.3515,-4.3631,-4.3912,-4.4561,-4.4957,-4.5095,-4.495,-4.5098,-4.5504,-4.5568,-4.5594,0.0,0.0,0.0,-2.2377,0.0,0.0,0.0,-2.204,-2.2209,-2.182,0.0,0.0,0.0,0.0,0.0,0.0,0.0,0.0,0.0,-2.2057,-2.2296,-2.2296,-2.2296,-2.2296,-2.2296,-2.2296,-2.2296,-2.2296,-2.2296,-2.2296,-2.2296,-2.2296,-2.2296,-2.2296,-2.2296,-2.2296,-2.2296,-2.2296,-2.2488,-2.2861,-2.3593,-2.4343,-2.5079,-2.5816,-2.6354,-2.6691,-2.6691,-2.6691,-2.6691,-2.6691,-2.6691,-2.6742,-2.7097,-2.7725,-2.8476,-2.9259,-3.002,-3.0701,-3.1069,-3.1577,-3.2134,-3.2534,-3.3032,-3.3703,-3.4699,-3.5625,-3.6675,-3.8247,-3.8707,-3.8707,-3.8707,-3.8707,-3.8707,-3.8707,-3.8707,-3.8707,-3.8707,-3.8707,-3.8707,-3.8707,-3.8707,-3.8707,-3.8707,-4.0031,-4.0948,-4.0561,-4.1864,-4.2451,-4.1258,-4.0744,-4.049,-4.0492,-4.051,-4.0989,-4.22,-4.2658,-4.3078,-4.3461,-4.3515,-4.3515,-4.3515,-4.3515,-4.3749,-4.4289,-4.4827,-4.5184,-4.535,-4.535,-4.5438,-4.5594,-4.5594,-4.5594,0.0,0.0,0.0,0.0,0.0,-2.2377,0.0,0.0,0.0,0.0,0.0,0.0,0.0,0.0,0.0,0.0,0.0,0.0,0.0,-2.1654,0.0,-2.1915,-2.2124,-2.2229,-2.2107,-2.209,-2.2158,-2.2279,-2.2175,-2.2158,-2.2279,-2.2296,-2.2296,-2.2296,-2.2296,-2.2296,-2.2296,-2.2296,-2.2296,-2.2296,-2.3039,-2.3791,-2.4529,-2.5263,-2.6,-2.6691,-2.6691,-2.6691,-2.6691,-2.6691,-2.6691,-2.6691,-2.6691,-2.7148,-2.7896,-2.869,-2.9379,-2.9987,-3.0729,-3.1252,-3.1695,-3.234,-3.3105,-3.3856,-3.4463,-3.5682,-3.7068,-3.8165,-3.8579,-3.8707,-3.8707,-3.8707,-3.8707,-3.8707,-3.8707,-3.8707,-3.8707,-3.8707,-3.8707,-3.8707,-3.8707,-3.8707,-3.8707,-3.9918,-4.0653,-3.9992,-4.1568,-4.2084,-4.0157,-4.0325,-4.0398,-3.9742,-3.9813,-4.0492,-4.1942,-4.2203,-4.2641,-4.3442,-4.3515,-4.3515,-4.3515,-4.3642,-4.4015,-4.4679,-4.5026,-4.5319,-4.5594,-4.5594,-4.5594,-4.5594,-4.5594,-4.5594,0.0,0.0,0.0,0.0,-2.2473,0.0,0.0,0.0,-2.2324,-2.238,0.0,0.0,0.0,0.0,0.0,0.0,0.0,0.0,-2.0592,-2.1033,-2.1233,-2.0522,-2.1535,-2.204,-2.14,-2.1315,-2.1607,-2.226,-2.1695,-2.161,-2.2276,-2.2296,-2.2296,-2.2296,-2.2296,-2.2296,-2.2296,-2.2296,-2.2296,-2.2296,-2.3039,-2.3796,-2.4537,-2.5257,-2.6,-2.6691,-2.6691,-2.6691,-2.6691,-2.6691,-2.6691,-2.6691,-2.6691,-2.7148,-2.7895,-2.8699,-2.9045,-2.9246,-2.9963,-3.0493,-3.0827,-3.094,-3.2474,-3.4327,-3.4403,-3.5841,-3.7445,-3.7591,-3.8135,-3.8707,-3.8707,-3.8707,-3.8707,-3.8707,-3.8707,-3.8707,-3.8707,-3.8707,-3.8707,-3.8707,-3.8707,-3.8707,-3.8707,-3.9441,-4.001,-3.99,-4.0136,-4.0212,-3.9944,-3.9355,-3.8946,-3.8839,-3.9467,-4.0262,-4.1169,-4.1899,-4.2641,-4.3442,-4.3515,-4.3515,-4.3515,-4.4135,-4.466,-4.5038,-4.5364,-4.5559,-4.5594,-4.5594,-4.5594,-4.5594,-4.5594,-4.5594,0.0,0.0,0.0,0.0,0.0,0.0,-2.2527,0.0,-2.238,0.0,0.0,0.0,0.0,0.0,0.0,0.0,-2.1208,0.0,0.0,0.0,-2.0526,0.0,0.0,0.0,-2.1192,-2.1209,-2.1505,-2.2229,-2.1613,-2.1525,-2.2245,-2.2296,-2.2296,-2.2296,-2.2296,-2.2296,-2.2296,-2.2296,-2.2296,-2.2296,-2.2618,-2.338,-2.4516,-2.4806,-2.5615,-2.6691,-2.6691,-2.6691,-2.6691,-2.6691,-2.6826,-2.7063,-2.7063,-2.708,-2.725,-2.8014,-2.8294,-2.8483,-2.9673,-3.053,-3.1266,-3.2201,-3.3198,-3.4138,-3.461,-3.5363,-3.6249,-3.7232,-3.7746,-3.8102,-3.8579,-3.8707,-3.8707,-3.8707,-3.8707,-3.8707,-3.8707,-3.8707,-3.8707,-3.8707,-3.8707,-3.8707,-3.8707,-3.9368,-3.9735,-3.9276,-4.0013,-4.0272,-3.9318,-3.9318,-3.9208,-3.8762,-3.8995,-3.9706,-4.1004,-4.1407,-4.2145,-4.3424,-4.3515,-4.3588,-4.3771,-4.4318,-4.4756,-4.5093,-4.5429,-4.5594,-4.5594,-4.5594,-4.5594,-4.5594,-4.5594,-4.5594,-2.3236,0.0,0.0,0.0,0.0,0.0,0.0,0.0,0.0,0.0,0.0,0.0,0.0,0.0,0.0,0.0,0.0,0.0,0.0,0.0,0.0,0.0,0.0,0.0,0.0,-2.025,-2.0493,-2.1613,-2.1024,-2.1105,-2.2243,-2.2296,-2.2296,-2.2296,-2.2296,-2.2296,-2.2296,-2.2296,-2.2296,-2.2296,-2.2296,-2.2974,-2.4204,-2.4408,-2.5246,-2.6556,-2.6792,-2.6928,-2.7012,-2.6894,-2.7029,-2.73,-2.7296,-2.7128,-2.6947,-2.7687,-2.7843,-2.788,-2.9435,-3.0678,-3.1829,-3.3321,-3.3807,-3.3912,-3.4494,-3.4825,-3.5247,-3.6464,-3.6978,-3.7364,-3.8157,-3.8377,-3.8432,-3.8652,-3.8707,-3.8707,-3.8707,-3.8707,-3.8707,-3.8707,-3.8707,-3.8707,-3.8707,-3.9184,-3.9368,-3.8799,-3.9703,-4.0017,-3.8839,-3.9208,-3.9355,-3.8762,-3.8707,-3.935,-4.0948,-4.1103,-4.1799,-4.3387,-4.3515,-4.3697,-4.4153,-4.4443,-4.4795,-4.5223,-4.5472,-4.5594,-4.5594,-4.5594,-4.5594,-4.5594,-4.5594,-4.5594,0.0,0.0,0.0,-2.3271,0.0,0.0,0.0,0.0,-2.2515,0.0,0.0,0.0,0.0,0.0,0.0,0.0,0.0,0.0,0.0,0.0,0.0,0.0,0.0,0.0,0.0,-1.7885,-1.7915,-2.0009,-1.9556,-2.0083,-2.2189,-2.2296,-2.2296,-2.2296,-2.2296,-2.2296,-2.2296,-2.2296,-2.2296,-2.2296,-2.2296,-2.27,-2.3451,-2.4177,-2.513,-2.627,-2.6962,-2.7504,-2.7844,-2.7436,-2.7283,-2.7297,-2.7294,-2.7295,-2.7375,-2.8119,-2.7924,-2.7549,-2.907,-3.0698,-3.2267,-3.3415,-3.3807,-3.3807,-3.3825,-3.438,-3.5009,-3.5078,-3.5697,-3.6523,-3.7327,-3.7547,-3.7731,-3.8505,-3.8707,-3.8707,-3.8707,-3.8707,-3.8707,-3.8707,-3.8707,-3.8707,-3.8707,-3.8726,-3.8726,-3.8707,-3.8744,-3.8762,-3.8707,-3.8726,-3.8726,-3.8707,-3.8707,-3.935,-4.0948,-4.111,-4.1788,-4.3406,-4.3515,-4.3825,-4.4554,-4.4595,-4.4907,-4.5569,-4.5596,-4.5594,-4.5594,-4.5594,-4.5594,-4.5594,-4.5594,-4.5594,0.0,0.0,-2.3837,-2.361,0.0,0.0,0.0,0.0,0.0,0.0,0.0,0.0,0.0,0.0,0.0,0.0,0.0,0.0,0.0,0.0,0.0,0.0,0.0,0.0,0.0,0.0,0.0,-2.0692,-2.0609,-2.1014,-2.2243,-2.2296,-2.2296,-2.2296,-2.2296,-2.2296,-2.2296,-2.2296,-2.2296,-2.2296,-2.2796,-2.3414,-2.4149,-2.4903,-2.5847,-2.6944,-2.7182,-2.7527,-2.7884,-2.7745,-2.7698,-2.7721,-2.7939,-2.7896,-2.7736,-2.7982,-2.7918,-2.789,-2.9147,-3.067,-3.2144,-3.2778,-3.3374,-3.3807,-3.3807,-3.399,-3.4307,-3.4857,-3.5206,-3.5628,-3.6486,-3.7107,-3.7437,-3.7165,-3.7936,-3.856,-3.801,-3.8322,-3.8707,-3.8707,-3.8707,-3.8707,-3.8707,-3.8707,-3.8707,-3.8707,-3.8707,-3.8707,-3.8707,-3.8707,-3.8707,-3.8707,-3.8707,-3.9148,-4.0212,-4.1282,-4.2128,-4.2659,-4.3406,-4.4062,-4.4591,-4.482,-4.5135,-4.5594,-4.5594,-4.5594,-4.5594,-4.5594,-4.5594,-4.5594,-4.5594,-4.5594,-2.419,-2.419,0.0,-2.3816,-2.3742,0.0,-2.3392,0.0,-2.33,0.0,0.0,0.0,0.0,0.0,0.0,0.0,0.0,0.0,0.0,-1.8586,0.0,0.0,0.0,0.0,0.0,0.0,-1.8364,-2.0305,-2.0448,-2.0878,0.0,-2.2167,-2.2296,-2.2296,-2.2296,-2.2296,-2.2296,-2.2296,-2.2344,-2.2457,-2.3087,-2.3716,-2.4311,-2.5204,-2.6149,-2.713,-2.7414,-2.7812,-2.8271,-2.815,-2.8085,-2.8097,-2.8307,-2.8278,-2.808,-2.808,-2.8471,-2.9082,-2.9942,-3.1281,-3.2688,-3.2928,-3.338,-3.3807,-3.3807,-3.3807,-3.3917,-3.4417,-3.4564,-3.4766,-3.5624,-3.645,-3.6942,-3.6413,-3.7533,-3.8487,-3.7676,-3.812,-3.8707,-3.8707,-3.8707,-3.8707,-3.8707,-3.8707,-3.8707,-3.8707,-3.8707,-3.8707,-3.8707,-3.8707,-3.8707,-3.8707,-3.8707,-3.9038,-3.9827,-4.1368,-4.2306,-4.2293,-4.3369,-4.4191,-4.4578,-4.4916,-4.5259,-4.5594,-4.5594,-4.5594,-4.5594,-4.5594,-4.5594,-4.5594,-4.5594,-4.5594]},{"header":{"parameterUnit":"m.s-1","parameterCategory":1,"la1":30.6,"la2":29.2853,"lo1":-89.7004,"lo2":-87.6739,"dy":0.0162,"dx":0.0183,"nx":112,"ny":82,"refTime":"2023-03-10T06:00:00:Z","depth":0,"parameterNumber":3,"parameterNumberName":"V-component_of_WINDS"},"data":[0.0,0.0,0.0,0.0,0.0,0.0,0.0,0.0,0.0,0.0,0.0,0.0,0.0,0.0,0.0,0.0,0.0,0.0,0.0,0.0,0.0,0.0,0.0,0.0,0.0,0.0,0.0,0.0,0.0,0.0,0.0,0.0,0.0,0.0,0.0,0.0,0.0,0.0,0.0,0.0,0.0,0.0,0.0,0.0,0.0,0.0,0.0,0.0,0.0,0.0,0.0,0.0,0.0,0.0,0.0,0.0,0.0,0.0,0.0,0.0,0.0,0.0,0.0,0.0,0.0,0.0,0.0,0.0,0.0,0.0,0.0,0.0,0.0,0.0,0.0,0.0,0.0,0.0,0.0,0.0,0.0,0.0,0.0,0.0,0.0,0.0,0.0,0.0,0.0,0.0,-0.9432,-1.0397,-1.1716,-1.2367,-1.1926,-1.1516,-1.1082,-1.0626,0.0,0.0,0.0,0.0,0.0,0.0,0.0,0.0,0.0,0.0,0.0,0.0,0.0,0.0,0.0,0.0,0.0,0.0,0.0,0.0,0.0,0.0,0.0,0.0,0.0,0.0,0.0,0.0,0.0,0.0,0.0,0.0,0.0,0.0,0.0,0.0,0.0,0.0,0.0,0.0,0.0,0.0,0.0,0.0,0.0,0.0,0.0,0.0,0.0,0.0,0.0,0.0,0.0,0.0,0.0,0.0,0.0,0.0,0.0,0.0,0.0,0.0,0.0,0.0,0.0,0.0,0.0,0.0,0.0,0.0,0.0,0.0,0.0,0.0,0.0,0.0,0.0,0.0,0.0,0.0,0.0,0.0,0.0,0.0,0.0,0.0,0.0,0.0,0.0,0.0,0.0,0.0,0.0,0.0,0.0,0.0,0.0,0.0,0.0,0.0,0.0,0.0,0.0,0.0,-1.0773,-1.2164,-1.3029,-1.3078,-1.1997,-1.1176,-1.0687,-1.06,0.0,0.0,0.0,0.0,0.0,0.0,0.0,0.0,0.0,0.0,0.0,0.0,0.0,0.0,0.0,0.0,0.0,0.0,0.0,0.0,0.0,0.0,0.0,0.0,0.0,0.0,0.0,0.0,0.0,0.0,0.0,0.0,0.0,0.0,0.0,0.0,0.0,0.0,0.0,0.0,0.0,0.0,0.0,0.0,0.0,0.0,0.0,0.0,0.0,0.0,0.0,0.0,0.0,0.0,0.0,0.0,0.0,0.0,0.0,0.0,0.0,0.0,0.0,0.0,0.0,0.0,0.0,0.0,0.0,0.0,0.0,0.0,0.0,0.0,0.0,0.0,0.0,0.0,0.0,0.0,0.0,0.0,0.0,0.0,0.0,0.0,0.0,0.0,0.0,0.0,0.0,0.0,0.0,0.0,0.0,0.0,0.0,0.0,0.0,0.0,0.0,0.0,0.0,-1.0871,-1.1594,-1.2595,-1.2719,-1.2437,-1.1685,-1.0828,-1.0419,-1.0579,-0.9833,0.0,0.0,0.0,0.0,0.0,0.0,0.0,0.0,0.0,0.0,0.0,0.0,0.0,0.0,0.0,0.0,0.0,0.0,0.0,0.0,0.0,0.0,0.0,0.0,0.0,0.0,0.0,0.0,0.0,0.0,0.0,0.0,0.0,0.0,0.0,0.0,0.0,0.0,0.0,0.0,0.0,0.0,0.0,0.0,0.0,0.0,0.0,0.0,0.0,0.0,0.0,0.0,0.0,0.0,0.0,0.0,0.0,0.0,0.0,0.0,0.0,0.0,0.0,0.0,0.0,0.0,0.0,0.0,0.0,0.0,0.0,0.0,0.0,0.0,0.0,0.0,0.0,0.0,0.0,0.0,0.0,0.0,0.0,0.0,0.0,0.0,0.0,0.0,0.0,0.0,0.0,0.0,0.0,0.0,0.0,0.0,0.0,0.0,0.0,0.0,0.0,0.0,-1.2037,-1.2805,-1.3265,-1.2851,-1.2403,-1.195,-1.0857,-1.0278,-1.0395,-0.9522,0.0,0.0,0.0,0.0,0.0,0.0,0.0,0.0,0.0,0.0,0.0,0.0,0.0,0.0,0.0,0.0,0.0,0.0,0.0,0.0,0.0,0.0,0.0,0.0,0.0,0.0,0.0,0.0,0.0,0.0,0.0,0.0,0.0,0.0,0.0,0.0,0.0,0.0,0.0,0.0,0.0,0.0,0.0,0.0,0.0,0.0,0.0,0.0,0.0,0.0,0.0,0.0,0.0,0.0,0.0,0.0,0.0,0.0,0.0,0.0,0.0,0.0,0.0,0.0,0.0,0.0,0.0,0.0,0.0,0.0,0.0,0.0,0.0,0.0,0.0,0.0,0.0,0.0,0.0,0.0,0.0,0.0,0.0,0.0,0.0,0.0,0.0,0.0,0.0,0.0,0.0,0.0,0.0,0.0,0.0,0.0,0.0,0.0,0.0,0.0,0.0,0.0,-1.3832,-1.5155,-1.5112,-1.4731,-1.4231,-1.3502,-1.1668,-1.0346,-0.9794,-0.9684,0.0,0.0,0.0,0.0,0.0,0.0,0.0,0.0,0.0,0.0,0.0,0.0,0.0,0.0,0.0,0.0,0.0,0.0,0.0,0.0,0.0,0.0,0.0,0.0,0.0,0.0,0.0,0.0,0.0,0.0,0.0,0.0,0.0,0.0,0.0,0.0,0.0,0.0,0.0,0.0,0.0,0.0,0.0,0.0,0.0,0.0,0.0,0.0,0.0,0.0,0.0,0.0,0.0,0.0,0.0,0.0,0.0,0.0,0.0,0.0,0.0,0.0,0.0,0.0,0.0,0.0,0.0,0.0,0.0,0.0,0.0,0.0,0.0,0.0,0.0,0.0,0.0,0.0,0.0,0.0,0.0,0.0,0.0,0.0,0.0,0.0,0.0,0.0,0.0,0.0,0.0,0.0,0.0,0.0,0.0,0.0,0.0,0.0,0.0,0.0,0.0,0.0,-1.403,-1.4946,-1.4935,-1.4106,-1.3439,-1.3132,-1.1323,-1.0084,-0.9712,0.0,0.0,0.0,0.0,0.0,0.0,0.0,0.0,0.0,0.0,0.0,0.0,0.0,0.0,0.0,0.0,0.0,0.0,0.0,0.0,0.0,0.0,0.0,0.0,0.0,0.0,0.0,0.0,0.0,0.0,0.0,0.0,0.0,0.0,0.0,0.0,0.0,0.0,0.0,0.0,0.0,0.0,0.0,0.0,0.0,0.0,0.0,0.0,0.0,0.0,0.0,0.0,0.0,0.0,0.0,0.0,0.0,0.0,0.0,0.0,0.0,0.0,0.0,0.0,0.0,0.0,0.0,0.0,0.0,0.0,0.0,0.0,0.0,0.0,0.0,0.0,0.0,0.0,0.0,0.0,0.0,0.0,0.0,0.0,0.0,0.0,0.0,0.0,0.0,0.0,0.0,0.0,0.0,0.0,0.0,0.0,0.0,0.0,0.0,0.0,0.0,0.0,-1.3023,-1.4055,-1.4842,-1.5121,-1.4132,-1.3428,-1.3299,-1.1376,-0.9959,-0.9444,0.0,0.0,0.0,0.0,0.0,0.0,0.0,0.0,0.0,0.0,0.0,0.0,0.0,0.0,0.0,0.0,0.0,0.0,0.0,0.0,0.0,0.0,0.0,0.0,0.0,0.0,0.0,0.0,0.0,0.0,0.0,0.0,0.0,0.0,0.0,0.0,0.0,0.0,0.0,0.0,0.0,0.0,0.0,0.0,0.0,0.0,0.0,0.0,0.0,0.0,0.0,0.0,0.0,0.0,0.0,0.0,0.0,0.0,0.0,0.0,0.0,0.0,0.0,0.0,0.0,0.0,0.0,0.0,0.0,0.0,0.0,0.0,0.0,0.0,0.0,0.0,0.0,0.0,0.0,0.0,0.0,0.0,0.0,0.0,0.0,0.0,0.0,0.0,0.0,0.0,0.0,0.0,0.0,0.0,0.0,0.0,0.0,0.0,0.0,0.0,0.0,0.0,-1.3014,-1.4089,-1.5136,-1.5997,-1.5278,-1.4604,-1.4314,-1.2014,-1.0105,0.0,0.0,0.0,0.0,0.0,0.0,0.0,0.0,0.0,0.0,0.0,0.0,0.0,0.0,0.0,0.0,0.0,0.0,0.0,0.0,0.0,0.0,0.0,0.0,0.0,0.0,0.0,0.0,0.0,0.0,0.0,0.0,0.0,0.0,0.0,0.0,0.0,0.0,0.0,0.0,0.0,0.0,0.0,0.0,0.0,0.0,0.0,0.0,0.0,0.0,0.0,0.0,0.0,0.0,0.0,0.0,0.0,0.0,0.0,0.0,0.0,0.0,0.0,0.0,0.0,0.0,0.0,0.0,0.0,0.0,0.0,0.0,0.0,0.0,0.0,0.0,0.0,0.0,0.0,0.0,0.0,0.0,0.0,0.0,0.0,0.0,0.0,0.0,0.0,0.0,0.0,0.0,0.0,0.0,0.0,0.0,0.0,0.0,0.0,0.0,0.0,0.0,0.0,-1.4198,-1.4596,-1.5,-1.5547,-1.5062,-1.4347,-1.3449,-1.1665,-1.0096,-0.8878,0.0,0.0,0.0,0.0,0.0,0.0,0.0,0.0,0.0,0.0,0.0,0.0,0.0,0.0,0.0,0.0,0.0,0.0,0.0,0.0,0.0,0.0,0.0,0.0,0.0,0.0,0.0,0.0,0.0,0.0,0.0,0.0,0.0,0.0,0.0,0.0,0.0,0.0,0.0,0.0,0.0,0.0,0.0,0.0,0.0,0.0,0.0,0.0,0.0,0.0,0.0,0.0,0.0,0.0,0.0,0.0,0.0,0.0,0.0,0.0,0.0,0.0,0.0,0.0,0.0,0.0,0.0,0.0,0.0,0.0,0.0,0.0,0.0,0.0,0.0,0.0,0.0,0.0,0.0,0.0,0.0,0.0,0.0,0.0,0.0,0.0,0.0,0.0,0.0,0.0,0.0,0.0,0.0,0.0,0.0,0.0,0.0,0.0,0.0,0.0,0.0,0.0,-1.4006,-1.433,-1.4756,-1.5352,-1.5147,-1.4697,-1.4005,-1.2454,-1.075,-0.8906,0.0,0.0,0.0,0.0,0.0,0.0,0.0,0.0,0.0,0.0,0.0,0.0,0.0,0.0,0.0,0.0,0.0,0.0,0.0,0.0,0.0,0.0,0.0,0.0,0.0,0.0,0.0,0.0,0.0,0.0,0.0,0.0,0.0,0.0,0.0,0.0,0.0,0.0,0.0,0.0,0.0,0.0,0.0,0.0,0.0,0.0,0.0,0.0,0.0,0.0,0.0,0.0,0.0,0.0,0.0,0.0,0.0,0.0,0.0,0.0,0.0,0.0,0.0,0.0,0.0,0.0,0.0,0.0,0.0,0.0,0.0,0.0,0.0,0.0,0.0,0.0,0.0,0.0,0.0,0.0,0.0,0.0,0.0,0.0,0.0,0.0,0.0,0.0,0.0,0.0,0.0,0.0,0.0,0.0,0.0,0.0,0.0,0.0,0.0,0.0,0.0,0.0,-1.3072,-1.3642,-1.4436,-1.5322,-1.541,-1.5409,-1.5399,-1.3865,-1.1853,-0.9329,0.0,0.0,0.0,0.0,0.0,0.0,0.0,0.0,0.0,0.0,0.0,0.0,0.0,0.0,0.0,0.0,0.0,0.0,0.0,0.0,0.0,0.0,0.0,0.0,0.0,0.0,0.0,0.0,0.0,0.0,0.0,0.0,0.0,0.0,0.0,0.0,0.0,0.0,0.0,0.0,0.0,0.0,0.0,0.0,0.0,0.0,0.0,0.0,0.0,0.0,0.0,0.0,0.0,0.0,0.0,0.0,0.0,0.0,0.0,0.0,-1.6424,-1.7103,0.0,0.0,0.0,0.0,0.0,0.0,0.0,0.0,0.0,0.0,0.0,0.0,0.0,0.0,0.0,0.0,0.0,0.0,0.0,0.0,0.0,0.0,0.0,0.0,0.0,0.0,0.0,0.0,0.0,0.0,0.0,0.0,0.0,0.0,0.0,0.0,0.0,0.0,0.0,0.0,-1.3936,-1.3996,-1.4436,-1.5322,-1.5397,-1.5403,-1.5396,-1.3851,-1.2662,-1.205,-1.092,0.0,0.0,0.0,0.0,0.0,0.0,0.0,0.0,0.0,0.0,0.0,0.0,0.0,0.0,0.0,0.0,0.0,0.0,0.0,0.0,0.0,0.0,0.0,0.0,0.0,0.0,0.0,0.0,0.0,0.0,0.0,0.0,0.0,0.0,0.0,0.0,0.0,0.0,0.0,0.0,0.0,0.0,0.0,0.0,0.0,0.0,0.0,0.0,0.0,0.0,0.0,0.0,0.0,0.0,0.0,0.0,0.0,0.0,0.0,-1.8145,-1.7967,0.0,0.0,0.0,0.0,0.0,0.0,0.0,0.0,0.0,0.0,0.0,0.0,0.0,0.0,0.0,0.0,0.0,0.0,0.0,0.0,0.0,0.0,0.0,0.0,0.0,0.0,0.0,0.0,0.0,0.0,0.0,0.0,0.0,0.0,0.0,0.0,0.0,0.0,0.0,0.0,-1.3694,-1.4229,-1.4909,-1.5361,-1.5412,-1.5061,-1.428,-1.3413,-1.2702,-1.2248,-1.1584,0.0,0.0,0.0,0.0,0.0,0.0,0.0,0.0,0.0,0.0,0.0,0.0,0.0,0.0,0.0,0.0,0.0,0.0,0.0,0.0,0.0,0.0,0.0,0.0,0.0,0.0,0.0,0.0,0.0,0.0,0.0,0.0,0.0,0.0,0.0,0.0,0.0,0.0,0.0,0.0,0.0,0.0,0.0,0.0,0.0,0.0,0.0,0.0,0.0,0.0,0.0,0.0,0.0,-1.6342,-1.6644,-1.7682,-1.6415,-1.7375,-2.0154,-2.0621,-1.9419,-1.7162,-1.7866,0.0,0.0,0.0,0.0,0.0,0.0,0.0,0.0,0.0,0.0,0.0,0.0,0.0,0.0,0.0,0.0,0.0,0.0,0.0,0.0,0.0,0.0,0.0,0.0,-1.8449,-1.8092,-1.687,0.0,0.0,0.0,0.0,0.0,0.0,0.0,0.0,0.0,0.0,0.0,-1.3116,-1.4361,-1.5413,-1.5409,-1.5412,-1.4722,-1.303,-1.29,-1.2581,-1.1796,-1.2028,-1.18,0.0,0.0,0.0,0.0,0.0,0.0,0.0,0.0,0.0,0.0,0.0,0.0,0.0,0.0,0.0,0.0,0.0,0.0,0.0,0.0,0.0,0.0,0.0,0.0,0.0,0.0,0.0,0.0,0.0,0.0,0.0,0.0,-1.543,-1.5028,0.0,0.0,0.0,0.0,0.0,0.0,0.0,0.0,0.0,0.0,0.0,0.0,0.0,-1.6497,-1.7347,-1.6999,-1.7266,-1.8146,-1.698,-1.6792,-1.7396,-1.6088,-1.7639,-2.1459,-2.166,0.0,-1.7814,-1.7202,0.0,0.0,0.0,0.0,0.0,0.0,0.0,0.0,0.0,0.0,0.0,0.0,0.0,0.0,0.0,0.0,0.0,0.0,0.0,0.0,0.0,0.0,-1.7288,-1.9672,-2.0262,-1.9796,-1.8137,-1.7052,-1.635,-1.6215,-1.581,-1.5499,0.0,0.0,0.0,0.0,0.0,0.0,-1.3113,-1.4355,-1.5405,-1.54,-1.5412,-1.4722,-1.303,-1.29,-1.2837,-1.271,-1.2184,-1.1676,-1.1249,-1.0388,0.0,0.0,0.0,0.0,0.0,0.0,0.0,0.0,0.0,0.0,0.0,0.0,0.0,0.0,0.0,0.0,0.0,0.0,0.0,0.0,0.0,0.0,0.0,0.0,0.0,0.0,0.0,0.0,0.0,-1.7595,-1.7381,-1.6228,-1.7299,-1.7726,0.0,0.0,0.0,0.0,0.0,0.0,0.0,0.0,0.0,-1.6938,-1.7307,-1.7718,-1.8178,-1.8228,-1.8568,-1.9225,-1.8437,-1.821,-1.8508,-1.9354,-2.075,-2.2458,-2.2092,-2.1821,-2.147,-1.8969,-1.8331,-1.8982,0.0,0.0,0.0,0.0,-2.1631,-2.2823,-2.1393,-2.1501,-2.183,-1.8774,0.0,0.0,0.0,0.0,0.0,0.0,0.0,-1.8453,0.0,0.0,-1.8747,-2.0242,-2.0337,-1.9792,-1.8734,-1.7842,-1.7119,-1.6613,-1.6304,-1.5818,-1.4854,-1.5087,0.0,0.0,0.0,-1.5122,-1.4407,-1.4934,-1.5399,-1.541,-1.5412,-1.4899,-1.3679,-1.3164,-1.2897,-1.29,-1.2608,-1.2113,-1.1456,-1.0904,-1.0742,0.0,0.0,0.0,0.0,0.0,0.0,0.0,0.0,0.0,0.0,0.0,0.0,0.0,0.0,0.0,0.0,0.0,0.0,0.0,0.0,0.0,0.0,0.0,0.0,0.0,0.0,0.0,0.0,-1.8678,-1.8542,-1.7027,-1.8029,-1.8399,0.0,0.0,0.0,0.0,0.0,0.0,-1.6971,-1.7836,-1.8225,-1.8032,-1.862,-1.9048,-1.927,-1.9629,-2.0039,-2.0565,-2.0217,-2.0142,-2.0328,-2.2241,-2.3104,-2.3086,-2.2858,-2.3547,-2.4495,-2.1394,-1.9768,-1.9423,-2.0984,-2.1756,-2.2035,-2.2606,-2.3357,-2.3978,-2.3106,-2.31,-2.2939,-1.9644,-1.9402,-2.0308,-1.9682,0.0,0.0,0.0,0.0,-1.9872,-1.9583,-1.9611,-1.9889,-2.0576,-2.0342,-1.9809,-1.9288,-1.8721,-1.8013,-1.7006,-1.6801,-1.6307,-1.4702,-1.5332,0.0,0.0,0.0,-1.5403,-1.541,-1.5406,-1.5403,-1.541,-1.5396,-1.5143,-1.4483,-1.3611,-1.3093,-1.3101,-1.2974,-1.2418,-1.1373,-1.1308,-1.1167,-1.0884,0.0,0.0,0.0,0.0,0.0,0.0,0.0,0.0,0.0,0.0,0.0,0.0,0.0,0.0,0.0,0.0,0.0,0.0,0.0,0.0,0.0,0.0,0.0,0.0,0.0,0.0,0.0,0.0,0.0,-1.626,-1.768,0.0,0.0,0.0,0.0,-2.0146,-2.0092,-1.9474,-1.7996,-1.8777,-1.9223,-1.9211,-1.9619,-2.0235,-2.1064,-2.1083,-2.1508,-2.2379,-2.22,-2.2403,-2.2892,-2.3043,-2.3113,-2.3173,-2.4627,-2.5271,-2.5232,-2.389,-2.3931,-2.4766,-2.4499,-2.47,-2.5036,-2.4037,-2.3386,-2.314,-2.3491,-2.392,-2.4166,-2.3759,-2.3531,-2.342,-2.3583,-2.1726,0.0,0.0,-2.0092,-2.0636,-2.0997,-2.0411,-1.9955,-2.0956,-2.0859,-2.0449,-1.9933,-1.9531,-1.8802,0.0,-1.7083,-1.6698,-1.5524,0.0,-1.731,-1.5644,-1.541,-1.5391,-1.541,-1.54,-1.5391,-1.541,-1.54,-1.5369,-1.5343,-1.4319,-1.3657,-1.3673,-1.3165,-1.228,-1.0889,-1.1142,-1.0833,-0.9797,-0.9731,0.0,0.0,0.0,0.0,0.0,0.0,0.0,0.0,0.0,0.0,0.0,0.0,0.0,0.0,0.0,0.0,0.0,0.0,0.0,0.0,0.0,0.0,0.0,0.0,0.0,0.0,0.0,0.0,-2.0776,-2.2091,0.0,-2.158,-2.1896,-2.1644,-2.04,-2.0537,-2.0156,-1.8884,-1.9889,-2.0643,-2.0957,-2.1375,-2.1845,-2.2418,-2.2418,-2.2601,-2.2873,-2.2817,-2.2922,-2.3091,-2.3109,-2.3899,-2.5284,-2.5349,-2.6485,-2.8217,-2.7786,-2.679,-2.5535,-2.4818,-2.4849,-2.5264,-2.5183,-2.5203,-2.5275,-2.5424,-2.6543,-2.7577,-2.6089,-2.5532,-2.52,-2.3802,-2.2668,-2.1783,-2.1243,-2.163,-2.2079,-2.1483,-2.1205,-2.1142,-2.1181,-2.0889,-2.0488,-2.001,-1.958,-1.9072,-1.8241,-1.7853,-1.7548,-1.7138,-1.6646,-1.6108,-1.5494,-1.5408,-1.5407,-1.541,-1.541,-1.541,-1.541,-1.541,-1.5244,-1.4918,-1.4826,-1.4476,-1.3739,-1.299,-1.2074,-1.098,-1.0559,-1.0374,-1.0479,-1.0458,-1.0719,0.0,0.0,0.0,0.0,0.0,0.0,0.0,0.0,0.0,0.0,0.0,0.0,0.0,0.0,0.0,0.0,0.0,0.0,0.0,0.0,0.0,0.0,0.0,0.0,0.0,0.0,-2.3179,-2.2909,-2.3904,-2.4224,-2.3186,-2.3333,-2.2971,-2.1692,-2.1852,-2.1539,-2.0439,-2.1325,-2.197,-2.2311,-2.2945,-2.3231,-2.3091,-2.3477,-2.3477,-2.3091,-2.3091,-2.3091,-2.3091,-2.3477,-2.4518,-2.5924,-2.6181,-2.7405,-2.9236,-2.9631,-2.8746,-2.7102,-2.6508,-2.6497,-2.6822,-2.7164,-2.7179,-2.7044,-2.7038,-2.8259,-2.9492,-2.7644,-2.6796,-2.6193,-2.4412,-2.3525,-2.2968,-2.2239,-2.2549,-2.2852,-2.1853,-2.1722,-2.1777,-2.1298,-2.0889,-2.0527,-2.0195,-1.9687,-1.9209,-1.8916,-1.836,-1.7992,-1.8,-1.7027,-1.6277,-1.6277,-1.6285,-1.6061,-1.5471,-1.5407,-1.539,-1.5391,-1.541,-1.5264,-1.4905,-1.5081,-1.4883,-1.4127,-1.3137,-1.2316,-1.1731,-1.1048,-1.093,-1.1467,-1.1295,-1.1531,-1.2187,0.0,0.0,0.0,0.0,0.0,0.0,0.0,0.0,0.0,0.0,0.0,0.0,0.0,0.0,0.0,0.0,0.0,0.0,0.0,0.0,0.0,0.0,0.0,-2.1947,-2.2366,-2.2535,-2.2181,-2.2795,-2.3216,-2.3073,-2.4179,-2.4743,-2.4349,-2.431,-2.3804,-2.265,-2.2926,-2.3135,-2.3135,-2.4168,-2.4211,-2.3178,-2.4204,-2.4171,-2.3091,-2.3135,-2.3169,-2.3202,-2.4321,-2.4862,-2.5031,-2.7186,-2.8136,-2.8255,-2.9353,-2.9792,-2.9792,-2.9792,-2.9792,-2.9792,-2.9753,-2.9067,-2.8096,-2.8044,-2.8806,-2.9585,-2.8426,-2.7319,-2.6287,-2.556,-2.429,-2.2988,-2.2477,-2.2706,-2.2899,-2.2105,-2.1885,-2.1777,-2.1278,-2.0879,-2.0595,-2.0586,-1.993,-1.9297,-1.9268,-1.8594,-1.7997,-1.8005,-1.8011,-1.8011,-1.8001,-1.8021,0.0,-1.5649,-1.543,-1.5422,-1.541,-1.543,-1.543,-1.543,-1.5059,-1.4814,-1.4805,-1.3608,-1.294,-1.3077,-1.2589,-1.2376,-1.2568,-1.2057,-1.2195,-1.3016,0.0,0.0,0.0,0.0,0.0,0.0,0.0,0.0,0.0,0.0,0.0,0.0,0.0,0.0,0.0,0.0,0.0,0.0,0.0,0.0,0.0,0.0,-2.381,-2.3979,-2.5145,-2.5792,-2.5304,-2.6153,-2.6703,-2.6679,-2.7008,-2.7142,-2.7062,-2.7012,-2.6187,-2.4272,-2.4274,-2.4339,-2.4339,-2.3833,-2.38,-2.4339,-2.3813,-2.34,-2.3091,-2.3945,-2.4313,-2.4357,-2.5511,-2.6463,-2.7227,-2.7844,-2.8557,-2.9365,-2.9663,-2.9792,-2.9792,-2.9792,-2.9792,-2.9702,-2.8858,-2.8386,-2.8004,-2.7209,-2.7654,-2.8398,-2.729,-2.6171,-2.5094,-2.4046,-2.3434,-2.3085,-2.2925,-2.2978,-2.2865,-2.1803,-2.1722,-2.1699,-2.0967,-2.0693,-2.0517,-2.0166,-1.9902,-1.9561,-1.8936,-1.8588,-1.834,-1.8051,-1.8016,-1.8004,-1.7998,-1.853,0.0,-1.6572,-1.6173,-1.6006,-1.5928,-1.5919,-1.5919,-1.5919,-1.5811,-1.5606,-1.5264,-1.3624,-1.2697,-1.2726,-1.1249,-1.0821,-1.1626,-1.1753,-1.2381,0.0,0.0,0.0,0.0,0.0,0.0,0.0,0.0,0.0,0.0,0.0,0.0,0.0,0.0,0.0,0.0,0.0,0.0,0.0,0.0,0.0,0.0,-2.4611,-2.5574,-2.6104,-2.6224,-2.64,-2.6785,-2.6794,-2.7093,-2.8004,-2.7683,-2.7428,-2.7434,-2.7406,-2.6666,-2.489,-2.4808,-2.503,-2.5515,-2.4425,-2.4125,-2.4787,-2.4137,-2.3826,-2.3826,-2.447,-2.5048,-2.5554,-2.6656,-2.7502,-2.8136,-2.8597,-2.9197,-2.9792,-2.9792,-2.9792,0.0,0.0,0.0,0.0,0.0,-2.8096,-2.7936,-2.6883,-2.6924,-2.7204,-2.5939,-2.5175,-2.4543,-2.3256,-2.2828,-2.2736,-2.2623,-2.2502,-2.2194,-2.1291,-2.1314,-2.1435,-2.0772,-2.0605,-2.0537,-2.0244,-2.0049,-1.9766,-1.9231,-1.8841,0.0,-1.8276,-1.8125,-1.7988,-1.8007,-1.8435,-1.8306,-1.7027,-1.6635,-1.6381,-1.6114,-1.5928,-1.5821,-1.5821,-1.5821,0.0,0.0,0.0,-1.3257,-1.3257,-1.185,0.0,0.0,0.0,-1.2421,-1.3387,-1.1715,0.0,0.0,-1.24,-1.2004,0.0,0.0,0.0,0.0,0.0,0.0,0.0,0.0,0.0,0.0,0.0,0.0,0.0,0.0,0.0,0.0,-2.6199,-2.6876,-2.7939,-2.6323,-2.5582,-2.7191,-2.5976,-2.5817,-2.7884,-2.725,-2.6725,-2.6847,-2.6862,-2.6352,-2.5221,0.0,0.0,0.0,0.0,-2.4776,-2.5073,-2.4904,-2.4893,-2.5072,-2.5145,-2.5703,-2.6697,-2.7806,-2.8307,-2.8347,-2.9365,-2.9792,-2.9792,-2.9792,-2.9792,-2.9792,-2.9792,-2.9702,-2.9495,-2.8347,-2.7936,-2.7763,-2.6678,0.0,0.0,-2.4688,-2.442,-2.4332,-2.2925,-2.2405,-2.2256,-2.2002,-2.1712,-2.1315,-2.08,-2.0937,-2.1083,-2.0713,-2.0605,-2.0605,-2.0605,-2.0264,-1.9971,-1.9922,-1.926,-1.8724,-1.8685,-1.8286,-1.8003,-1.8005,-1.7987,-1.777,-1.719,-1.6894,-1.665,-1.629,0.0,0.0,-1.5537,-1.5468,-1.5361,-1.5264,-1.4412,-1.3936,-1.3936,-1.3194,-1.3119,-1.3817,-1.2711,-1.2308,-1.2653,-1.1847,-1.1744,-1.2302,-1.231,-1.2128,0.0,0.0,0.0,0.0,0.0,0.0,0.0,0.0,0.0,0.0,0.0,0.0,0.0,0.0,0.0,-2.7044,-2.6858,-2.686,-2.793,-2.699,-2.6621,-2.781,-2.6896,-2.6666,-2.7964,-2.7924,-2.8177,-2.9095,-2.9159,-2.8648,-2.7514,-2.6634,-2.6255,-2.6472,-2.451,-2.4524,-2.6801,-2.5466,-2.5476,-2.6827,0.0,0.0,-2.7831,-2.8946,-2.9495,-2.9482,-2.9702,-2.9792,-2.9792,-2.9792,-2.9792,-2.9792,-2.9792,-2.9236,-2.8307,-2.7209,-2.6801,-2.6637,-2.5504,-2.5126,-2.5073,-2.4767,-2.4096,-2.3308,-2.2679,-2.2467,0.0,-2.2002,-2.1834,-2.1697,-2.12,-2.1132,-2.1083,-2.0713,-2.0605,-2.0605,-2.0605,-2.0537,-2.0332,-1.998,-1.9738,-1.9561,-1.9219,-1.8525,-1.7993,-1.7993,-1.8013,-1.7794,-1.7187,-1.7183,-1.7227,-1.7171,-1.7051,-1.6855,-1.6473,-1.5842,-1.517,-1.4488,-1.3083,-1.2258,-1.2258,-1.1691,-1.1448,-1.1636,-1.1584,-1.1682,-1.192,-1.1718,-1.1864,-1.2309,-1.231,-1.227,0.0,0.0,0.0,0.0,0.0,0.0,0.0,0.0,0.0,0.0,0.0,-2.4512,0.0,0.0,-2.6882,-2.8163,-2.7768,-2.7474,-2.8012,-2.6696,-2.6254,-2.7884,-2.7168,-2.7139,-2.8779,-2.7947,-2.7736,-2.8859,-2.8439,-2.8124,-2.8091,-2.6542,-2.6147,-2.7279,-2.4553,-2.4333,-2.6883,-2.5497,-2.5931,-2.8108,-2.8079,-2.8554,-2.9347,-2.9649,-2.9792,-2.9792,-2.9792,-2.9792,-2.9753,-2.9197,-2.8937,-2.8937,-2.8937,-2.8597,-2.7976,-2.6883,-2.6141,-2.5504,-2.4339,-2.3963,-2.3932,-2.371,-2.3275,-2.2701,-2.2324,-2.2197,-2.2158,-2.1943,-2.1885,-2.1787,-2.1307,-2.119,-2.1083,-2.0713,-2.0605,-2.0605,-2.0605,-2.0605,-2.0537,-2.0283,-2.0059,-1.9844,-1.9639,-1.9072,-1.8574,-1.8325,-1.8286,-1.813,-1.7624,-1.7467,-1.7383,-1.7383,-1.7187,-1.6941,-1.6716,-1.5895,-1.5223,-1.4795,-1.3196,-1.2652,-1.3529,-1.2528,-1.213,-1.2545,-1.1894,-1.1618,-1.1803,-1.1937,-1.2084,-1.2292,-1.2311,-1.2305,0.0,0.0,0.0,0.0,0.0,0.0,0.0,0.0,-2.3941,-2.4519,-2.541,-2.6226,-2.6669,-2.7595,-2.8411,-2.8925,-2.8475,-2.8044,-2.7804,-2.6232,-2.5703,-2.7267,-2.6871,-2.7383,-2.9585,-2.8171,-2.7388,-2.8029,-2.7502,-2.7319,-2.7751,-2.6098,-2.5831,-2.7418,-2.4628,-2.4143,-2.6315,-2.5295,-2.6184,-2.8898,-2.8143,-2.8707,-3.0432,-2.9772,-2.9585,-2.9792,-2.9792,-2.9792,-2.9714,-2.8359,-2.7924,-2.8044,-2.7631,-2.747,-2.7389,-2.676,-2.5766,-2.4628,-2.3507,-2.3091,-2.3042,-2.2701,-2.2637,-2.2559,-2.2139,-2.2012,-2.1992,-2.1904,-2.1885,-2.1807,-2.1414,-2.1317,-2.1269,-2.0948,-2.0801,-2.0732,-2.0732,-2.0664,-2.0605,-2.0605,-2.0283,-2.0039,-2.0039,-1.9756,-1.9336,-1.8695,-1.8598,-1.8451,-1.8057,-1.7715,-1.75,-1.75,-1.7187,-1.6941,-1.6966,-1.6094,-1.5298,-1.4651,-1.3281,-1.3279,-1.4997,-1.3724,-1.3269,-1.3931,-1.2713,-1.2043,-1.1986,-1.2184,-1.2305,-1.2305,-1.2305,-1.2305,-2.2447,-2.1694,-2.1458,-2.2619,-2.2594,-2.3075,0.0,0.0,-2.6273,-2.6804,-2.7406,-2.7773,-2.7679,-2.8288,-2.8938,-2.9283,-2.8627,-2.7763,-2.6801,-2.6472,-2.6016,-2.5241,-2.5964,-2.7383,-2.9585,-2.9585,-2.9064,-2.8163,-2.8946,-2.8638,-2.6782,-2.6456,-2.5972,-2.5199,-2.3844,-2.3948,-2.5699,-2.5115,-2.6184,-2.8857,-2.7398,-2.7822,-2.9841,-2.8791,-2.8858,-2.9792,-2.9792,-2.9792,-2.9624,-2.7545,-2.7238,-2.7884,-2.5942,-2.5157,-2.5284,-2.6182,-2.5766,-2.4628,-2.3507,-2.3091,-2.3091,-2.3042,-2.3023,-2.2945,-2.2568,-2.2441,-2.2363,-2.1992,-2.1885,-2.1875,-2.1826,-2.1816,-2.1797,-2.1748,-2.1445,-2.1122,-2.1122,-2.084,-2.0605,-2.0605,-2.0566,-2.0537,-2.0537,-2.0488,-2.0019,-1.8783,-1.8598,-1.8451,-1.8057,-1.7969,-1.7939,-1.7939,-1.79,-1.7836,-1.7846,-1.7067,-1.5251,-1.2281,-1.1919,-1.2528,-1.418,-1.359,-1.3311,-1.3381,-1.3435,-1.3063,-1.2258,-1.2285,-1.2305,-1.2305,-1.2305,-1.2305,-2.3885,-2.2769,0.0,0.0,-2.2752,-2.3403,-2.5382,-2.619,-2.6822,-2.7975,-2.8699,-2.9051,-2.8975,-2.9201,-2.9465,0.0,-2.8767,-2.7723,-2.6637,-2.5933,-2.5336,-2.4872,-2.5808,-2.7087,-2.8648,-2.9404,-2.933,-2.8198,-2.8558,-2.8132,-2.6591,-2.6491,-2.5975,-2.483,-2.4339,-2.4421,-2.5113,-2.4924,-2.5858,-2.7946,-2.6956,-2.7165,-2.8327,-2.8158,-2.8727,-2.9753,-2.9106,-2.8806,-2.8648,-2.6408,-2.5786,-2.6108,-2.5157,-2.4372,-2.3963,-2.5094,-2.4798,-2.3757,-2.3256,-2.3091,-2.3091,-2.3091,-2.2925,-2.2744,-2.2568,-2.251,-2.248,-2.2305,-2.2432,-2.2559,-2.2314,-2.2246,-2.2119,-2.1621,-2.1327,-2.119,-2.119,-2.1094,-2.1035,-2.1289,-2.1378,-2.1378,-2.1378,-2.1123,-2.0684,-1.9883,-1.9336,-1.8857,-1.8403,-1.813,-1.8008,-1.8008,-1.8008,-1.8012,-1.8012,-1.7658,-1.6871,-1.5436,-1.3289,-1.2361,-1.3031,-1.3371,-1.3543,-1.3543,-1.3642,-1.3244,-1.2305,-1.2305,-1.2305,-1.2305,-1.2305,-1.2392,-2.4424,0.0,0.0,-2.2928,-2.3559,-2.4286,-2.4879,-2.6103,-2.7442,-2.8467,-2.9286,-2.9792,-2.9792,-2.9792,-2.9714,-2.9365,-2.8897,-2.7976,-2.6254,-2.5588,-2.5041,-2.4414,-2.5336,-2.6337,-2.7093,-2.8779,-2.9201,-2.7783,-2.8222,-2.7824,-2.614,-2.6345,-2.5999,-2.483,-2.4787,-2.4957,-2.5252,-2.5252,-2.5888,-2.7094,-2.6349,-2.6412,-2.7082,-2.7778,-2.8727,-2.9753,-2.8937,-2.8386,-2.7964,-2.6036,-2.5083,-2.4787,-2.4457,-2.3844,-2.3222,-2.4049,-2.38,-2.3091,-2.3091,-2.3091,-2.3091,-2.3091,-2.2886,-2.2685,-2.2685,-2.2685,-2.2685,-2.2685,-2.2867,-2.3023,-2.2721,-2.2685,-2.2529,-2.1863,-2.1568,-2.138,-2.138,-2.1453,-2.1614,-2.1938,-2.1936,-2.1846,-2.1728,-2.1445,-2.1044,-2.0674,-1.9932,-1.9307,-1.8831,-1.8457,-1.8184,-1.8007,-1.7998,-1.8008,-1.8008,-1.7988,-1.8016,-1.7985,-1.5399,-1.3394,-1.2353,-1.2942,-1.3498,-1.3833,-1.3753,-1.3287,-1.2425,-1.2425,-1.2465,-1.2552,-1.2552,-1.2665,0.0,0.0,-2.3356,-2.4445,-2.5461,-2.61,-2.5661,-2.7192,-2.8626,-2.8207,-2.9015,-2.9792,-2.9792,-2.9792,-2.9443,-2.8347,-2.9067,-2.8621,-2.5326,-2.5755,-2.5641,-2.343,-2.4178,-2.4872,0.0,-2.7867,-2.8901,-2.6724,-2.8539,-2.8335,-2.5029,-2.5899,-2.5975,-2.484,-2.4787,-2.5336,-2.6431,-2.6431,-2.6483,-2.6505,-2.5389,-2.5431,-2.6535,-2.7614,-2.8727,-2.9792,-2.9753,-2.9106,-2.8004,-2.6924,-2.5797,-2.4702,-2.3594,-2.3135,-2.3091,-2.3135,-2.3135,-2.3091,-2.3091,-2.3091,-2.3091,-2.3091,-2.3081,-2.3081,-2.3081,-2.3081,-2.3081,-2.3081,-2.3081,-2.3091,-2.3081,-2.3081,-2.3071,-2.3042,-2.2437,-2.1859,-2.1859,-2.2097,-2.2253,-2.2272,-2.2099,-2.1748,-2.1288,-2.12,-2.1044,-2.0674,-2.0185,-1.9746,-1.9316,-1.9033,-1.8633,-1.8066,-1.7987,-1.8008,-1.8008,-1.8018,-1.7983,-1.7985,-1.7877,-1.6165,-1.2437,-1.2319,-1.2912,-1.4175,-1.3876,-1.3395,-1.277,-1.277,-1.2924,-1.318,-1.318,-1.3186,0.0,0.0,-2.4942,-2.5131,-2.5509,-2.5955,-2.6485,-2.7163,-2.784,-2.8492,-2.8573,-2.8425,-2.8038,-2.7926,-2.7693,-2.6949,-2.7577,-2.7336,-2.5125,-2.5126,-2.4798,-2.3256,-2.4766,0.0,0.0,0.0,0.0,-2.6605,-2.8548,-2.8323,-2.4987,-2.6561,-2.67,-2.4872,-2.4787,-2.4999,-2.5378,-2.4638,-2.4221,-2.4221,-2.3844,-2.4681,-2.6513,-2.6883,-2.8039,-2.9714,-2.8251,-2.7383,-2.6883,-2.501,-2.4016,-2.3627,-2.3256,-2.3091,-2.3091,-2.3091,-2.3091,-2.3091,-2.3091,-2.3091,-2.3091,-2.3091,-2.3091,-2.3091,-2.3091,-2.3091,-2.3091,-2.3091,-2.3091,-2.3091,-2.3091,-2.3091,-2.3086,-2.3087,-2.2899,-2.2572,-2.2011,-2.1957,-2.2207,-2.2728,-2.2777,-2.2676,-2.2477,-2.1826,-2.1155,-2.0664,-2.0138,-1.9662,-1.9336,-1.8724,-1.8229,-1.804,-1.7996,-1.8008,-1.8008,-1.8008,-1.6905,-1.4388,-1.5423,-1.5002,-1.2404,-1.231,-1.2522,-1.2936,-1.3096,-1.3061,-1.2784,-1.2991,-1.3106,-1.3213,-1.3213,-1.3313,0.0,-2.5978,-2.6475,-2.5933,-2.6426,-2.6875,-2.6375,-2.7023,-2.7788,-2.7991,-2.799,-2.7665,-2.6858,-2.6362,-2.5952,-2.5601,-2.585,-2.5655,-2.4324,-2.4409,-2.4239,-2.3202,-2.4392,-2.4723,0.0,0.0,0.0,-2.6553,-2.8551,-2.8688,-2.6127,-2.6969,-2.6869,-2.5462,-2.4999,-2.4999,-2.542,-2.4681,-2.4092,-2.3714,-2.3714,-2.4467,-2.5922,-2.6307,-2.7464,-2.9157,-2.8131,-2.7464,-2.6924,-2.5094,-2.4049,-2.3681,-2.3266,-2.3091,-2.3091,-2.3091,-2.3091,-2.3091,-2.3091,-2.3091,-2.3091,-2.3091,-2.3091,-2.3091,-2.3091,-2.3091,-2.3091,-2.3091,-2.3091,-2.3091,-2.3091,-2.3091,-2.3086,-2.3097,-2.309,-2.2965,-2.2452,-2.2337,-2.2476,-2.2989,-2.3091,-2.3052,-2.2896,-2.2,-2.1136,-2.0664,-2.0274,-1.9944,-1.9775,-1.9284,-1.8686,-1.8069,-1.7995,-1.8008,-1.8008,-1.8008,-1.6376,-1.2554,-1.3676,-1.3934,-1.2652,-1.2617,-1.2625,-1.2625,-1.2812,-1.2959,-1.306,-1.3267,-1.338,-1.3527,-1.3527,-1.3621,-2.6135,-2.7369,-2.794,-2.6811,-2.8076,-2.8749,-2.5572,-2.6808,-2.8248,-2.6733,-2.7065,-2.7282,0.0,0.0,-2.4247,-2.4175,-2.4049,-2.367,-2.3008,-2.3608,-2.3865,0.0,0.0,0.0,0.0,0.0,0.0,-2.6595,0.0,-2.9298,-2.8153,-2.7144,-2.6565,-2.6524,-2.5378,-2.5336,-2.6389,-2.6359,-2.5808,-2.4787,-2.4745,-2.4787,-2.4914,-2.5933,-2.7005,-2.8096,-2.9157,-2.8988,-2.7844,-2.683,-2.5755,-2.4628,-2.3507,-2.3091,-2.3091,-2.3091,-2.3091,-2.3091,-2.3091,-2.3091,-2.3091,-2.3091,-2.3091,-2.3091,-2.3091,-2.3091,-2.3091,-2.3091,-2.3091,-2.3091,-2.3091,-2.3091,-2.3091,-2.3091,-2.3091,-2.3091,-2.3091,-2.3091,-2.3091,-2.3091,-2.3071,-2.2925,-2.2535,-2.1756,-2.1044,-2.0654,-2.0615,-2.0595,-2.0576,-2.0554,-1.9872,-1.8199,-1.7996,-1.8008,-1.8008,-1.7808,-1.6178,-1.2611,-1.2884,-1.3195,-1.3208,-1.3187,-1.3213,-1.3259,-1.3048,-1.3147,-1.3511,-1.3572,-1.3808,-1.4088,-1.4088,-1.4088,-2.7344,-2.88,-2.9495,-2.7455,-2.8276,-2.8842,-2.5915,-2.5915,-2.6399,-2.5817,-2.459,-2.3625,0.0,0.0,0.0,-2.2455,-2.2792,0.0,-2.3043,-2.3236,0.0,-2.3125,0.0,-2.4351,-2.4374,-2.6378,0.0,0.0,-2.8997,-2.93,-2.8143,-2.7827,-2.7331,-2.6524,-2.5378,-2.4957,-2.521,-2.4382,-2.4264,-2.4787,-2.392,-2.4425,-2.6058,-2.5504,-2.5839,-2.6924,-2.7221,-2.6707,-2.5619,-2.5326,-2.4542,-2.3507,-2.3222,-2.3091,-2.3091,-2.3091,-2.3091,-2.3091,-2.3091,-2.3091,-2.3091,-2.3091,-2.3091,-2.3091,-2.3091,-2.3091,-2.3091,-2.3091,-2.3091,-2.3091,-2.3091,-2.3091,-2.3091,-2.3091,-2.3091,-2.3091,-2.3091,-2.3091,-2.3091,-2.3091,-2.2616,-2.224,-2.231,-2.1482,-2.0724,-2.0609,-2.0615,-2.0439,-1.9974,-1.976,-1.9206,-1.8131,-1.801,-1.8008,-1.8008,-1.5394,-1.3727,-1.3706,-1.3243,-1.3037,-1.3196,-1.3202,-1.3392,-1.3843,-1.3836,-1.3716,-1.3511,-1.382,-1.4015,-1.4088,-1.4088,-1.4088,-2.8549,-2.9716,-3.0063,-2.776,-2.8249,-2.8549,-2.5703,-2.5286,-2.5347,-2.4696,-2.3292,0.0,0.0,0.0,0.0,0.0,0.0,0.0,-2.259,-2.2798,-2.3093,0.0,-2.3963,0.0,-2.5773,-2.6798,-2.7695,0.0,-2.8819,-2.8767,-2.8136,-2.7643,-2.6912,-2.5797,-2.5126,-2.4542,-2.4049,-2.392,-2.392,-2.4049,-2.4435,-2.4723,-2.502,-2.5389,-2.563,-2.5797,-2.6265,-2.6141,-2.5504,-2.4999,-2.4414,-2.38,-2.3299,-2.3091,-2.3091,-2.3091,-2.3091,-2.3091,-2.3091,-2.3091,-2.3091,-2.3091,-2.3091,-2.3091,-2.3091,-2.3091,-2.3091,-2.3091,-2.3091,-2.3091,-2.3091,-2.3091,-2.3091,-2.3091,-2.3091,-2.3091,-2.3091,-2.3091,-2.3091,-2.3091,-2.2737,-2.2341,-2.2139,-2.1571,-2.1016,-2.0641,-2.0615,-2.04,-1.9866,-1.9158,-1.8711,-1.8718,-1.8635,-1.8186,-1.7212,-1.5606,-1.4408,-1.3926,-1.3956,-1.3814,-1.3357,-1.3481,-1.3736,-1.4103,-1.409,-1.3986,-1.3751,-1.4001,-1.4088,-1.4088,-1.4088,-1.4088,-2.9503,-3.0143,-2.9952,-2.7752,-2.7974,-2.7963,-2.5041,-2.4504,-2.4331,-2.3334,0.0,-2.1138,-1.9864,-1.8737,-1.8395,-1.9813,0.0,-1.9616,-2.1993,-2.2415,-2.303,-2.4405,-2.3714,-2.4125,-2.6716,-2.6733,-2.7163,-2.8486,-2.8231,-2.8007,-2.8096,-2.7209,-2.613,-2.483,-2.466,-2.4168,-2.3343,-2.4296,-2.4382,-2.3551,-2.5389,-2.5221,-2.3387,-2.5231,-2.5515,-2.4628,-2.5766,-2.6265,-2.6182,-2.521,-2.4787,-2.4702,-2.3551,-2.3091,-2.3091,-2.3091,-2.3091,-2.3091,-2.3091,-2.3091,-2.3091,-2.3091,-2.3091,-2.3091,-2.3091,-2.3091,-2.3091,-2.3091,-2.3091,-2.3091,-2.3091,-2.3091,-2.3091,-2.3091,-2.3091,-2.3091,-2.3091,-2.3091,-2.3091,-2.3091,-2.3052,-2.2779,-2.21,-2.1875,-2.1543,-2.0811,-2.0644,-2.0449,-1.9971,-1.8954,-1.8624,-1.9538,-1.9278,-1.8294,-1.6407,-1.6693,-1.6056,-1.3825,-1.4572,-1.4562,-1.341,-1.3831,-1.4088,-1.4088,-1.4088,-1.4088,-1.4088,-1.4088,-1.4088,-1.4088,-1.4088,-1.4088,-2.9616,-2.9867,-2.9396,-2.7183,-2.7198,-2.6936,-2.3902,-2.2372,0.0,0.0,0.0,-1.7991,-1.8291,-1.7708,-1.7714,-1.9336,0.0,0.0,0.0,0.0,-2.2709,0.0,0.0,0.0,0.0,0.0,0.0,0.0,-2.7243,-2.7647,-2.8079,-2.7924,-2.6901,-2.4872,-2.3887,-2.3757,-2.45,-2.4702,-2.5168,-2.5891,-2.5347,-2.4872,-2.45,-2.393,-2.3594,-2.3474,-2.4585,0.0,-2.5083,-2.4872,-2.4787,-2.4702,-2.3551,-2.3091,-2.3091,-2.3091,-2.3091,-2.3091,-2.3091,-2.3091,-2.3091,-2.3091,-2.3091,-2.3091,-2.3091,-2.3091,-2.3091,-2.3091,-2.3091,-2.3091,-2.3091,-2.3091,-2.3091,-2.3091,-2.3091,-2.3091,-2.3091,-2.3091,-2.3091,-2.3091,-2.2818,-2.2578,-2.2432,-2.1816,-2.1259,-2.1103,-2.0801,-2.0449,-1.9971,-1.9702,-1.9527,-1.9372,-1.8479,-1.7768,-1.7415,-1.5271,-1.4135,-1.4562,-1.3956,-1.3254,-1.255,-1.3548,-1.4088,-1.4088,-1.4088,-1.4088,-1.4088,-1.4088,-1.4088,-1.4088,-1.4088,-1.4088,-3.0188,-3.0218,-2.9384,-2.7752,-2.6822,-2.56,-2.2958,0.0,0.0,0.0,-1.8296,-1.7011,-1.7098,0.0,0.0,0.0,0.0,0.0,0.0,0.0,0.0,0.0,0.0,0.0,0.0,0.0,0.0,-2.7714,-2.7714,-2.7328,-2.6408,-2.5817,-2.5535,-2.5672,-2.4016,-2.393,-2.5672,-2.5083,-2.5378,-2.6472,-2.5933,-2.5378,-2.4787,-2.4211,-2.3671,-2.3135,-2.3671,-2.392,-2.392,-2.392,-2.392,-2.3877,-2.3299,-2.3091,-2.3091,-2.3091,-2.3091,-2.3091,-2.3091,-2.3091,-2.3091,-2.3091,-2.3091,-2.3091,-2.3091,-2.3091,-2.3091,-2.3091,-2.3091,-2.3091,-2.3091,-2.3091,-2.3091,-2.3091,-2.3091,-2.3091,-2.3091,-2.3091,-2.3091,-2.3091,-2.2925,-2.2721,-2.2444,-2.2053,-2.1554,-2.097,-2.0702,-2.0527,-2.0283,-2.0254,-2.0078,-1.9564,-1.8901,-1.8365,-1.8077,-1.641,-1.5372,-1.5518,-1.4351,-1.3544,-1.3262,-1.3772,-1.4088,-1.4088,-1.4088,-1.4088,-1.4088,-1.4088,-1.4088,-1.4088,-1.4088,-1.4088,-3.0296,-3.0432,-2.9594,-2.8149,-2.6479,-2.4623,-2.2235,-1.9951,0.0,0.0,-1.7517,-1.6541,-1.6183,0.0,0.0,0.0,0.0,0.0,0.0,0.0,0.0,0.0,0.0,0.0,0.0,0.0,0.0,-2.7934,-2.765,-2.6644,-2.4872,-2.3714,-2.393,-2.5724,-2.4264,-2.4307,-2.6099,-2.5504,-2.5504,-2.6141,-2.6141,-2.5557,-2.4414,-2.4414,-2.4092,-2.3464,-2.3464,-2.3594,-2.381,-2.3667,-2.359,-2.3547,-2.3232,-2.3091,-2.3091,-2.3091,-2.3091,-2.3091,-2.3091,-2.3091,-2.3091,-2.3091,-2.3091,-2.3091,-2.3091,-2.3091,-2.3091,-2.3091,-2.3091,-2.3091,-2.3091,-2.3091,-2.3091,-2.3091,-2.3091,-2.3091,-2.3091,-2.3091,-2.3091,-2.3091,-2.3091,-2.2955,-2.2421,-2.235,-2.1999,-2.0889,-2.0731,-2.0723,-2.0615,-2.0605,-2.043,-1.9945,-1.9707,-1.9399,-1.8895,-1.7471,-1.638,-1.5805,-1.472,-1.4088,-1.4088,-1.4088,-1.4088,-1.4088,-1.4088,-1.4088,-1.4088,-1.4088,-1.4088,-1.4088,-1.4088,-1.4088,-2.9038,-2.979,-2.989,-2.7286,-2.6,-2.4639,-2.1755,0.0,0.0,-1.7311,-1.6342,-1.5546,-1.5507,-1.5497,0.0,0.0,0.0,0.0,0.0,0.0,0.0,0.0,0.0,0.0,0.0,0.0,0.0,-2.5178,-2.5136,-2.4988,-2.483,-2.3714,-2.3178,-2.343,-2.4211,-2.4745,-2.4957,-2.588,-2.588,-2.4957,-2.4957,-2.4382,-2.3266,-2.3266,-2.3757,-2.4617,-2.4617,-2.521,0.0,-2.5454,-2.5211,-2.5072,-2.3634,-2.3091,-2.3091,-2.3091,-2.3091,-2.3091,-2.3091,-2.3091,-2.3091,-2.3091,-2.3091,-2.3091,-2.3091,-2.3091,-2.3091,-2.3091,-2.3091,-2.3091,-2.3091,-2.3091,-2.3091,-2.3091,-2.3091,-2.3091,-2.3091,-2.3091,-2.3091,-2.3091,-2.3091,-2.2964,-2.2535,-2.248,-2.2178,-2.1267,-2.1261,-2.1144,-2.0654,-2.0605,-2.0586,-2.0508,-2.0488,-2.0472,-2.0398,-1.6722,-1.4372,-1.4286,-1.4173,-1.4088,-1.4088,-1.4088,-1.4088,-1.4088,-1.4088,-1.4088,-1.4088,-1.4088,-1.4088,-1.4088,-1.4088,-1.4088,-2.8338,-2.9515,-2.9594,-2.7522,-2.5735,-2.3794,-2.1136,0.0,0.0,-1.6679,-1.5984,-1.541,-1.541,-1.541,-1.5762,0.0,0.0,0.0,0.0,0.0,0.0,0.0,0.0,0.0,0.0,0.0,0.0,-2.5786,-2.5817,-2.5504,-2.483,-2.3714,-2.343,-2.4082,-2.3887,-2.4425,-2.5808,-2.5588,-2.5588,-2.5797,-2.5126,-2.4542,-2.4082,-2.343,-2.3343,-2.38,-2.38,-2.4012,0.0,-2.4137,-2.4041,-2.3943,-2.3327,-2.3091,-2.3091,-2.3091,-2.3091,-2.3091,-2.3091,-2.3091,-2.3091,-2.3091,-2.3091,-2.3091,-2.3091,-2.3091,-2.3091,-2.3091,-2.3091,-2.3091,-2.3091,-2.3091,-2.3091,-2.3091,-2.3091,-2.3091,-2.3091,-2.3091,-2.3091,-2.3091,-2.3091,-2.3042,-2.2877,-2.2853,-2.2745,-2.2399,-2.1969,-2.1424,-2.0709,-2.0602,-2.0604,-2.0586,-2.0614,-2.059,-2.0606,-1.6618,-1.5204,-1.7863,-1.5562,-1.4088,-1.4088,-1.4088,-1.4088,-1.4088,-1.4088,-1.4088,-1.4088,-1.4088,-1.4088,-1.4088,-1.4088,-1.4088,-2.6589,-2.8126,-2.8597,-2.667,-2.482,-2.2787,0.0,0.0,-1.6441,-1.6102,-1.569,-1.541,-1.541,-1.541,-1.5762,0.0,0.0,0.0,0.0,0.0,0.0,0.0,0.0,0.0,0.0,0.0,0.0,-2.5453,-2.6099,-2.585,-2.4382,-2.3844,-2.3844,-2.4296,-2.4178,-2.4563,-2.5484,-2.5378,-2.5546,-2.5964,-2.484,-2.4457,-2.4745,-2.3637,-2.3357,-2.3806,-2.3767,-2.3886,0.0,-2.4805,-2.4325,-2.3083,-2.3095,-2.3091,-2.3091,-2.3091,-2.3091,-2.3091,-2.3091,-2.3091,-2.3091,-2.3091,-2.3091,-2.3091,-2.3091,-2.3091,-2.3091,-2.3091,-2.3091,-2.3091,-2.3091,-2.3091,-2.3091,-2.3091,-2.3091,-2.3091,-2.3091,-2.3091,-2.3091,-2.3091,-2.3091,-2.3091,-2.3091,-2.3079,-2.3064,-2.2935,-2.2545,-2.1926,-2.0949,-2.068,-2.0604,-2.0613,-2.0589,-2.008,-1.878,-1.5873,-1.5391,-1.8488,-1.5794,-1.4088,-1.4088,-1.4088,-1.4088,-1.4088,-1.4088,-1.4088,-1.4088,-1.4088,-1.4088,-1.4088,-1.4088,-1.4088,-2.3283,-2.5241,-2.6714,-2.418,-2.2974,-2.1728,0.0,0.0,-1.5977,-1.5508,-1.541,-1.541,-1.541,-1.541,-1.593,-1.7533,0.0,0.0,0.0,0.0,0.0,0.0,0.0,0.0,0.0,0.0,-2.4339,-2.3222,-2.5231,0.0,-2.3222,-2.4168,-2.4253,-2.3135,-2.5274,-2.5389,-2.3178,-2.5347,-2.5922,-2.4787,-2.3671,-2.3714,-2.4745,-2.3637,-2.3947,-2.5367,-2.5368,-2.5782,0.0,-2.8845,-2.7115,-2.3083,-2.3095,-2.3091,-2.3091,-2.3091,-2.3091,-2.3091,-2.3091,-2.3091,-2.3091,-2.3091,-2.3091,-2.3091,-2.3091,-2.3091,-2.3091,-2.3091,-2.3091,-2.3091,-2.3091,-2.3091,-2.3091,-2.3091,-2.3091,-2.3091,-2.3091,-2.3091,-2.3091,-2.3091,-2.3091,-2.3091,-2.3091,-2.3091,-2.2945,-2.2578,-2.2853,-2.2661,-2.1527,-2.0943,-2.0583,-2.0611,-2.0604,-1.8848,-1.4524,-1.4118,-1.4116,-1.4166,-1.413,-1.4088,-1.4088,-1.4088,-1.4088,-1.4088,-1.4088,-1.4088,-1.4088,-1.4088,-1.4088,-1.4088,-1.4088,-1.4088,-2.1396,-2.2415,-2.2914,-2.1642,-2.0671,-1.9598,-1.7711,0.0,-1.5968,-1.5498,-1.541,-1.541,-1.541,-1.541,-1.5762,-1.6863,-1.6855,0.0,0.0,0.0,0.0,0.0,0.0,0.0,0.0,0.0,-2.3931,-2.4617,-2.5104,-2.4999,-2.4296,-2.4585,-2.4296,-2.3135,-2.381,-2.4221,-2.4253,-2.4221,-2.4382,-2.4787,-2.3637,-2.3309,-2.3637,-2.3256,-2.3347,-2.3839,-2.381,-2.3972,-2.4242,-2.4911,-2.4378,-2.3083,-2.3095,-2.3091,-2.3091,-2.3091,-2.3091,-2.3091,-2.3091,-2.3091,-2.3091,-2.3091,-2.3091,-2.3091,-2.3091,-2.3091,-2.3091,-2.3091,-2.3091,-2.3091,-2.3091,-2.3091,-2.3091,-2.3091,-2.3091,-2.3091,-2.3091,-2.3091,-2.3091,-2.3091,-2.3091,-2.3091,-2.3091,-2.3091,-2.3052,-2.2916,-2.3012,-2.2975,-2.2631,-2.1719,-1.988,-1.6531,-1.6828,-1.6443,-1.428,-1.4099,-1.4112,-1.4082,-1.4088,-1.4088,-1.4088,-1.4088,-1.4088,-1.4088,-1.4088,-1.4088,-1.4088,-1.4088,-1.4088,-1.4088,-1.4289,-1.4432,0.0,-1.976,-2.0109,-1.9153,-1.8516,0.0,0.0,0.0,-1.5732,-1.5469,-1.541,-1.541,-1.541,-1.541,-1.5733,-1.6686,-1.6986,0.0,0.0,0.0,0.0,0.0,0.0,0.0,0.0,-2.3198,-2.3505,-2.4456,-2.4708,-2.4617,-2.4168,-2.4585,-2.4296,-2.3135,-2.3507,-2.3877,-2.4168,-2.3877,-2.4092,-2.4787,-2.3637,-2.3343,-2.3714,-2.3299,-2.311,-2.3079,-2.3086,-2.3087,0.0,-2.3113,-2.3113,-2.3083,-2.3095,-2.3091,-2.3091,-2.3091,-2.3091,-2.3091,-2.3091,-2.3091,-2.3091,-2.3091,-2.3091,-2.3091,-2.3091,-2.3091,-2.3091,-2.3091,-2.3091,-2.3091,-2.3091,-2.3091,-2.3091,-2.3091,-2.3091,-2.3091,-2.3091,-2.3091,-2.3091,-2.3091,-2.3091,-2.3091,-2.3091,-2.3091,-2.3091,-2.3091,-2.3091,-2.3051,-2.2903,-2.1868,-1.9947,-1.6881,-1.7752,-1.7365,-1.4369,-1.4107,-1.4088,-1.4088,-1.4088,-1.4088,-1.4088,-1.4088,-1.4088,-1.4088,-1.4088,-1.4088,-1.4088,-1.4088,-1.4191,-1.4347,-1.4492,-1.4677,0.0,0.0,0.0,0.0,0.0,0.0,0.0,0.0,0.0,0.0,0.0,-1.542,-1.5449,-1.5459,-1.5811,-1.6946,0.0,0.0,0.0,0.0,0.0,0.0,0.0,0.0,0.0,-2.292,-2.311,-2.314,-2.4102,-2.4211,-2.3178,-2.4082,-2.4168,-2.3135,-2.4135,-2.4211,-2.3222,-2.4168,-2.4702,-2.4787,-2.3637,-2.3627,-2.4617,-2.3594,-2.3089,0.0,-2.3109,-2.3107,-2.3102,-2.312,-2.3103,-2.3113,-2.3104,-2.3091,-2.3091,-2.3091,-2.3091,-2.3091,-2.3091,-2.3091,-2.3091,-2.3091,-2.3091,-2.3091,-2.3091,-2.3091,-2.3091,-2.3091,-2.3091,-2.3091,-2.3091,-2.3091,-2.3091,-2.3091,-2.3091,-2.3091,-2.3091,-2.3091,-2.3091,-2.3091,-2.3091,-2.3091,-2.3091,-2.3091,-2.3091,-2.3091,-2.3091,-2.2955,-2.2607,-2.1456,-2.0625,-2.0456,-2.1792,-2.0342,-1.459,-1.4087,-1.4088,-1.4088,-1.4088,-1.4088,-1.4088,-1.4088,-1.4088,-1.4088,-1.4088,-1.4088,-1.4088,-1.4088,-1.4285,-1.4666,-1.4693,-1.4862,-1.5416,0.0,-1.4707,-1.434,-1.4241,0.0,0.0,0.0,0.0,0.0,0.0,0.0,0.0,0.0,0.0,0.0,0.0,0.0,0.0,0.0,0.0,0.0,0.0,0.0,0.0,-2.3266,-2.3227,-2.3613,-2.353,-2.3387,-2.3091,-2.3343,-2.3387,-2.3091,-2.3343,-2.38,-2.4372,-2.38,-2.392,-2.4787,-2.3637,-2.3266,-2.3507,-2.3222,-2.3096,-2.3095,-2.308,-2.3104,-2.3116,-2.3094,-2.311,-2.3114,-2.3105,-2.3091,-2.3091,-2.3091,-2.3091,-2.3091,-2.3091,-2.3091,-2.3091,-2.3091,-2.3091,-2.3091,-2.3091,-2.3091,-2.3091,-2.3091,-2.3091,-2.3091,-2.3091,-2.3091,-2.3091,-2.3091,-2.3091,-2.3091,-2.3091,-2.3091,-2.3091,-2.3091,-2.3091,-2.3091,-2.3091,-2.3091,-2.3091,-2.3091,-2.3091,-2.3062,-2.2955,-2.1624,-2.0211,-1.8965,-1.8764,-1.7461,-1.436,-1.4113,-1.4088,-1.4088,-1.4088,-1.4088,-1.4088,-1.4088,-1.4088,-1.4088,-1.4088,-1.4088,-1.4088,-1.4088,-1.4137,-1.4235,-1.4807,-1.5269,-1.5221,-1.469,-1.4178,-1.3882,-1.3797,-1.3831,0.0,0.0,0.0,0.0,0.0,0.0,0.0,0.0,0.0,0.0,0.0,0.0,0.0,0.0,0.0,0.0,0.0,0.0,0.0,0.0,-2.3198,-2.3477,-2.3227,-2.3091,-2.3091,-2.3091,-2.3091,-2.3091,-2.3091,-2.3387,-2.4006,-2.343,-2.343,-2.4006,-2.3387,-2.3091,-2.3091,-2.3091,-2.3091,-2.3125,-2.3117,-2.3702,-2.4597,-2.3516,-2.308,-2.3091,-2.3091,-2.3091,-2.3091,-2.3091,-2.3091,-2.3091,-2.3091,-2.3091,-2.3091,-2.3091,-2.3091,-2.3091,-2.3091,-2.3091,-2.3091,-2.3091,-2.3091,-2.3091,-2.3091,-2.3091,-2.3091,-2.3091,-2.3091,-2.3091,-2.3091,-2.3091,-2.3091,-2.3091,-2.3091,-2.3091,-2.3091,-2.3091,-2.3091,-2.3091,-2.3091,-2.2906,-2.2359,-2.1024,-1.9656,-1.8435,-1.7319,-1.6195,-1.4995,-1.4872,-1.4683,-1.4139,-1.4094,-1.4099,-1.4091,-1.4106,-1.4088,-1.4088,-1.4088,-1.4088,-1.4088,-1.4088,-1.4094,-1.4135,-1.5028,-1.5579,-1.5221,-1.5051,-1.4853,-1.426,-1.4086,-1.4104,0.0,0.0,0.0,0.0,0.0,0.0,0.0,0.0,0.0,0.0,0.0,0.0,0.0,0.0,0.0,0.0,0.0,0.0,-2.3178,-2.3091,-2.3091,-2.3091,-2.3091,-2.3091,-2.3091,-2.3091,-2.3091,-2.3091,-2.3091,-2.3091,-2.3091,-2.3091,-2.3091,-2.3091,-2.3091,-2.3091,-2.3091,-2.3091,-2.3091,-2.3125,0.0,0.0,-2.6312,-2.4043,-2.308,-2.3091,-2.3091,-2.3091,-2.3091,-2.3091,-2.3091,-2.3091,-2.3091,-2.3091,-2.3091,-2.3091,-2.3091,-2.3091,-2.3091,-2.3091,-2.3091,-2.3091,-2.3091,-2.3091,-2.3091,-2.3091,-2.3091,-2.3091,-2.3091,-2.3091,-2.3091,-2.3091,-2.3091,-2.3091,-2.3091,-2.3091,-2.3091,-2.3091,-2.3091,-2.3091,-2.3091,-2.2677,-2.148,-2.026,-1.9155,-1.8319,-1.6765,-1.5783,-1.5783,-1.5819,-1.5406,-1.4424,-1.4298,-1.4259,-1.4172,-1.419,-1.4177,-1.4088,-1.4088,-1.4088,-1.4088,-1.4088,-1.4114,-1.4106,-1.5092,-1.5606,-1.5108,-1.5006,-1.4727,-1.391,-1.3892,-1.4104,0.0,0.0,0.0,0.0,0.0,0.0,0.0,0.0,0.0,0.0,0.0,0.0,0.0,0.0,0.0,0.0,0.0,0.0,-2.3091,-2.3091,-2.3091,-2.3091,-2.3091,-2.3091,-2.3091,-2.3091,-2.3091,-2.3091,-2.3091,-2.3091,-2.3091,-2.3091,-2.3091,-2.3091,-2.3091,-2.3091,-2.3091,-2.3091,-2.3091,-2.3125,0.0,-2.4411,-2.6312,-2.4043,-2.308,-2.3091,-2.3091,-2.3091,-2.3091,-2.3091,-2.3091,-2.3091,-2.3091,-2.3091,-2.3091,-2.3091,-2.3091,-2.3091,-2.3091,-2.3091,-2.3091,-2.3091,-2.3091,-2.3091,-2.3091,-2.3091,-2.3091,-2.3091,-2.3091,-2.3091,-2.3091,-2.3091,-2.3091,-2.3091,-2.3091,-2.3091,-2.3091,-2.3091,-2.3091,-2.3091,-2.3091,-2.2677,-2.148,-2.026,-1.9047,-1.7932,-1.6586,-1.5819,-1.5819,-1.581,-1.5749,-1.5524,-1.5202,-1.4838,-1.4479,-1.4532,-1.4441,-1.4095,-1.4088,-1.4088,-1.4088,-1.4088,-1.4114,-1.4091,-1.4283,-1.4891,-1.5176,-1.5043,-1.4739,-1.3824,-1.4032,-1.4424,-1.4163,0.0,0.0,0.0,0.0,0.0,0.0,0.0,0.0,0.0,0.0,0.0,0.0,0.0,0.0,0.0,0.0,-2.3684,-2.3135,-2.3091,-2.3091,-2.3091,-2.3091,-2.3091,-2.3091,-2.3091,-2.3091,-2.3091,-2.3091,-2.3091,-2.3091,-2.2867,-2.2867,-2.3091,-2.3091,-2.3091,-2.3091,-2.3091,-2.3091,-2.3125,0.0,-2.3702,-2.4597,-2.3516,-2.308,-2.3091,-2.3091,-2.3091,-2.3091,-2.3091,-2.3091,-2.3091,-2.3091,-2.3091,-2.3091,-2.3091,-2.3091,-2.3091,-2.3091,-2.3091,-2.3091,-2.3091,-2.3091,-2.3091,-2.3091,-2.3091,-2.3091,-2.3091,-2.3091,-2.3091,-2.3091,-2.3091,-2.3091,-2.3091,-2.3091,-2.3091,-2.3091,-2.3091,-2.3091,-2.3091,-2.3091,-2.2448,-2.0576,-1.9852,-1.8764,-1.6897,-1.6157,-1.5784,-1.5784,-1.5812,-1.5711,-1.5476,-1.511,-1.483,-1.463,-1.4468,-1.4271,-1.4088,-1.4088,-1.4088,-1.4088,-1.4088,-1.4081,-1.4102,-1.4714,-1.5312,-1.5006,-1.4783,-1.4475,-1.3782,0.0,-1.457,-1.4309,0.0,0.0,0.0,0.0,0.0,0.0,0.0,0.0,0.0,0.0,0.0,0.0,0.0,0.0,-2.2732,-2.3551,-2.3869,-2.3178,-2.3091,-2.3091,-2.3091,-2.3091,-2.3091,-2.3091,-2.3091,-2.3052,-2.2955,-2.2945,-2.2896,-2.2808,-2.2519,-2.2578,-2.2945,-2.2847,-2.2857,-2.2945,-2.2945,-2.2994,-2.3081,-2.312,-2.3106,-2.3115,-2.311,-2.3116,-2.3091,-2.3091,-2.3091,-2.3091,-2.3091,-2.3091,-2.3091,-2.3091,-2.3091,-2.3091,-2.3091,-2.3091,-2.3091,-2.3091,-2.3091,-2.3091,-2.3091,-2.3091,-2.3091,-2.3091,-2.3091,-2.3091,-2.3091,-2.3091,-2.3091,-2.3091,-2.3091,-2.3091,-2.3091,-2.3091,-2.3091,-2.3091,-2.3091,-2.3091,-2.3091,-2.2862,-2.1898,-1.9761,-1.9268,-1.8265,-1.6008,-1.5784,-1.5784,-1.5784,-1.5784,-1.5692,-1.5347,-1.5112,-1.49,-1.4838,-1.4509,-1.4229,-1.4088,-1.4088,-1.4088,-1.4088,-1.4088,-1.4106,-1.4111,-1.5004,-1.5542,-1.4374,-1.399,-1.36,-1.359,0.0,0.0,-1.4658,-1.541,0.0,0.0,0.0,0.0,0.0,0.0,0.0,0.0,0.0,0.0,0.0,0.0,-2.312,-2.3086,-2.3149,-2.3178,-2.3091,-2.3091,-2.3091,-2.3091,-2.3091,-2.3091,-2.3091,-2.3091,-2.2916,-2.2568,-2.2559,-2.2373,-2.1982,-2.1953,-2.2139,-2.2549,-2.2168,-2.2178,-2.2559,-2.2401,-2.2615,-2.3091,-2.3115,-2.3115,-2.3091,-2.3115,-2.3115,-2.3091,-2.3091,-2.3091,-2.3091,-2.3091,-2.3091,-2.3091,-2.3091,-2.3091,-2.3091,-2.3091,-2.3091,-2.3091,-2.3091,-2.3091,-2.3091,-2.3091,-2.3091,-2.3091,-2.3091,-2.3091,-2.3091,-2.3091,-2.3091,-2.3091,-2.3091,-2.3091,-2.3091,-2.3091,-2.3091,-2.3091,-2.3091,-2.3091,-2.3091,-2.3091,-2.2164,-2.098,-1.9679,-1.8503,-1.7318,-1.5967,-1.5784,-1.5784,-1.5784,-1.5784,-1.5812,-1.5772,-1.5718,-1.5564,-1.5156,-1.5013,-1.4687,-1.4095,-1.4088,-1.4088,-1.4088,-1.4088,-1.412,-1.4091,-1.4187,-1.4787,-1.4467,-1.4366,-1.4229,-1.3383,0.0,0.0,0.0,0.0,0.0,0.0,0.0,0.0,0.0,0.0,0.0,0.0,0.0,0.0,0.0,0.0,-2.3091,-2.3091,-2.3091,-2.3091,-2.3091,-2.3091,-2.3091,-2.3091,-2.2857,-2.2711,-2.2711,-2.25,-2.2285,-2.2129,-2.2129,-2.2041,-2.1885,-2.1621,-2.1522,-2.1678,-2.1826,-2.1973,-2.2129,-2.2242,-2.2599,-2.311,-2.3097,-2.31,-2.312,-2.31,-2.3091,-2.3091,-2.3091,-2.3091,-2.3091,-2.3091,-2.3091,-2.3091,-2.3091,-2.3091,-2.3091,-2.3091,-2.3091,-2.3091,-2.3091,-2.3091,-2.3091,-2.3091,-2.3091,-2.3091,-2.3091,-2.3091,-2.3091,-2.3091,-2.3091,-2.3091,-2.3091,-2.3091,-2.3091,-2.3091,-2.3091,-2.3091,-2.3091,-2.3091,-2.2862,-2.2076,-2.1569,-2.0567,-1.8634,-1.7963,-1.7225,-1.592,-1.5784,-1.5784,-1.5784,-1.5784,-1.5784,-1.5784,-1.5491,-1.5393,-1.5583,-1.4855,-1.4315,-1.4088,-1.4088,-1.4083,-1.4114,-1.4114,-1.4117,-1.411,-1.4838,-1.5397,-1.4446,-1.4318,-1.4164,0.0,0.0,0.0,0.0,0.0,0.0,0.0,0.0,0.0,0.0,0.0,0.0,0.0,0.0,0.0,0.0,0.0,-2.2708,-2.2721,-2.2701,-2.2701,-2.2701,-2.2701,-2.2701,-2.2701,-2.248,-2.2314,-2.2314,-2.2041,-2.1816,-2.168,-2.168,-2.1611,-2.1475,-2.1172,-2.1025,-2.1025,-2.1328,-2.1593,-2.174,-2.174,-2.2246,-2.3072,-2.2527,-2.2611,-2.305,-2.2518,-2.2486,-2.2737,-2.2989,-2.3091,-2.3091,-2.3091,-2.3091,-2.3091,-2.3091,-2.3091,-2.3091,-2.3091,-2.3091,-2.3091,-2.3091,-2.3091,-2.3091,-2.3091,-2.3091,-2.3091,-2.3091,-2.3091,-2.3091,-2.3091,-2.3091,-2.3091,-2.3091,-2.3091,-2.3091,-2.3091,-2.3091,-2.3091,-2.3091,-2.3091,-2.2677,-2.148,-2.098,-1.9988,-1.7963,-1.7365,-1.6756,-1.5872,-1.5784,-1.5784,-1.5784,-1.5784,-1.5784,-1.5784,-1.5284,-1.5152,-1.5506,-1.4811,-1.4306,-1.4114,-1.4114,-1.4113,-1.4114,-1.446,-1.4657,-1.4644,-1.5455,-1.5816,-1.4197,-1.3681,0.0,0.0,0.0,0.0,0.0,0.0,0.0,0.0,0.0,0.0,0.0,0.0,0.0,0.0,0.0,0.0,0.0,-2.1612,-2.1911,-2.1921,-2.1885,-2.1885,-2.1885,-2.1885,-2.1885,-2.1885,-2.1885,-2.1875,-2.1875,-2.1865,-2.167,-2.119,-2.1181,-2.0996,-2.0595,-2.0595,-2.0595,-2.0595,-2.0595,-2.0889,-2.135,-2.0822,-2.1525,-2.298,-2.1326,-2.1556,-2.2928,-2.1284,-2.1136,-2.1987,-2.28,-2.3091,-2.3091,-2.3091,-2.3091,-2.3091,-2.3091,-2.3091,-2.3091,-2.3091,-2.3091,-2.3091,-2.3091,-2.3091,-2.3091,-2.3091,-2.3091,-2.3091,-2.3091,-2.3091,-2.3091,-2.3091,-2.3091,-2.3091,-2.3091,-2.3091,-2.3091,-2.3091,-2.3091,-2.3091,-2.3091,-2.3091,-2.2677,-2.148,-2.026,-1.9047,-1.7824,-1.6574,-1.5784,-1.5784,-1.5784,-1.5784,-1.5784,-1.5778,-1.5778,-1.5784,-1.5291,-1.4993,-1.5022,-1.4976,-1.4734,-1.411,-1.4103,-1.4103,-1.411,-1.5266,-1.5788,-1.5814,-1.5814,-1.5818,-1.4261,0.0,0.0,0.0,0.0,0.0,0.0,0.0,0.0,0.0,0.0,0.0,0.0,0.0,0.0,-1.9678,-2.0537,-2.119,-2.119,-2.159,-2.1914,-2.1894,-2.1912,-2.1914,-2.1906,-2.1885,-2.1885,-2.1885,-2.1602,-2.1289,-2.1016,-2.0664,-2.0303,-1.9883,-1.9863,-1.9805,-1.9705,-1.9705,-1.9767,-1.9964,-1.9964,-2.0284,-2.082,-2.0664,-2.0879,-2.1332,-2.0811,-2.0862,-2.1308,-2.0825,-2.1463,-2.2758,-2.3001,-2.3113,-2.3091,-2.3091,-2.3091,-2.3091,-2.3091,-2.3091,-2.3091,-2.3091,-2.3091,-2.3091,-2.3091,-2.3091,-2.3091,-2.3091,-2.3091,-2.3091,-2.3091,-2.3091,-2.3091,-2.3091,-2.3091,-2.3091,-2.3091,-2.3091,-2.3091,-2.3091,-2.3091,-2.3091,-2.3091,-2.2403,-2.1436,-2.0215,-1.9001,-1.777,-1.6527,-1.6015,-1.5784,-1.5784,-1.5784,-1.5784,-1.5784,-1.5645,-1.5611,-1.5764,-1.5478,-1.5357,-1.5549,-1.5203,-1.5092,-1.5311,-1.5311,-1.5316,-1.5316,-1.5631,-1.5788,-1.5806,-1.5806,-1.5799,-1.425,0.0,0.0,0.0,0.0,0.0,0.0,0.0,0.0,0.0,0.0,0.0,0.0,0.0,0.0,-1.9329,-2.0,-2.0459,-2.0459,-2.0683,-2.0879,-2.0889,-2.0849,-2.0887,-2.0869,-2.085,-2.085,-2.085,-2.0615,-2.0342,-2.0106,-1.9805,-1.9551,-1.9297,-1.9287,-1.9287,-1.9287,-1.9426,-1.9553,-1.9715,-1.996,-2.0244,-2.0611,-2.0585,-2.0605,-2.0586,-2.062,-2.0608,-2.065,-2.1087,-2.1607,-2.2154,-2.2826,-2.3093,-2.3079,-2.3079,-2.3114,-2.3091,-2.3091,-2.3091,-2.3091,-2.3091,-2.3091,-2.3091,-2.3091,-2.3091,-2.3091,-2.3091,-2.3091,-2.3091,-2.3091,-2.3091,-2.3091,-2.3091,-2.3091,-2.3091,-2.3091,-2.3091,-2.3091,-2.3091,-2.3091,-2.296,-2.2492,-2.18,-2.0711,-1.9039,-1.7723,-1.6662,-1.592,-1.5784,-1.5784,-1.5784,-1.5784,-1.5784,-1.5784,-1.5671,-1.5645,-1.5771,-1.5558,-1.5504,-1.5778,-1.5492,-1.5488,-1.5771,-1.5778,-1.5807,-1.5785,-1.5785,-1.5819,-1.5784,-1.5784,-1.5784,0.0,0.0,0.0,0.0,0.0,0.0,0.0,0.0,0.0,0.0,0.0,0.0,0.0,0.0,0.0,-1.8588,-1.8965,-1.9238,-1.9238,-1.9269,-1.93,-1.9287,-1.9292,-1.9298,-1.9304,-1.9287,-1.9287,-1.9287,-1.9287,-1.9268,-1.9228,-1.9228,-1.9209,-1.917,-1.917,-1.917,-1.917,-1.941,-1.9568,-1.9561,-2.0101,-2.0343,-2.0377,-2.0515,-2.0615,-2.0586,-2.0582,-2.0583,-2.0674,-2.1707,-2.1512,-2.0751,-2.2278,-2.2872,-2.2909,-2.3033,-2.308,-2.3096,-2.3096,-2.3115,-2.3091,-2.3091,-2.3091,-2.3091,-2.3091,-2.3091,-2.3091,-2.3091,-2.3091,-2.3091,-2.3091,-2.3091,-2.3091,-2.3091,-2.3091,-2.3091,-2.3091,-2.3091,-2.3091,-2.3091,-2.3003,-2.2589,-2.148,-2.1114,-2.0215,-1.7863,-1.6527,-1.5784,-1.5784,-1.5784,-1.5784,-1.5784,-1.5784,-1.5784,-1.5784,-1.5758,-1.5751,-1.5784,-1.5551,-1.5524,-1.5771,-1.5751,-1.5751,-1.5784,-1.5784,-1.5784,-1.5784,-1.5784,-1.5784,-1.5784,-1.5784,-1.5784,0.0,0.0,0.0,0.0,0.0,0.0,0.0,0.0,0.0,0.0,0.0,0.0,0.0,0.0,0.0,-1.849,-1.8676,-1.8737,-1.8753,-1.9061,-1.9287,-1.9288,-1.9295,-1.9311,-1.9287,-1.9287,-1.9287,-1.9287,-1.9287,-1.9141,-1.8763,-1.8744,-1.8623,-1.8291,-1.8281,-1.8281,-1.8281,-1.8335,-1.8358,-1.8363,-1.8498,-1.8574,-1.8608,-1.9968,-2.06,-2.0605,-2.0605,-2.0596,-2.0625,-2.0869,-2.0838,-2.0623,-2.1018,-2.1156,-2.1307,-2.2627,-2.3082,-2.3107,-2.3107,-2.3103,-2.3091,-2.3091,-2.3091,-2.3091,-2.3091,-2.3091,-2.3091,-2.3091,-2.3091,-2.3091,-2.3091,-2.3091,-2.3091,-2.3091,-2.3091,-2.3091,-2.3091,-2.3091,-2.3091,-2.3091,-2.235,-2.1614,-2.1337,-1.9716,-1.7948,-1.6433,-1.5967,-1.5784,-1.5784,-1.5784,-1.5784,-1.5784,-1.5784,-1.5784,-1.5784,-1.5618,-1.5585,-1.5764,-1.5451,-1.5418,-1.5771,-1.5504,-1.5491,-1.5778,-1.5784,-1.5784,-1.5784,-1.5784,-1.5784,-1.5784,-1.5784,-1.5784,0.0,0.0,0.0,0.0,0.0,0.0,0.0,0.0,0.0,0.0,0.0,0.0,0.0,0.0,0.0,-1.7623,-1.7691,-1.7682,-1.7702,-1.7881,-1.8066,-1.8057,-1.8057,-1.8066,-1.8066,-1.8252,-1.8291,-1.8076,-1.8262,-1.8184,-1.772,-1.7691,-1.7584,-1.7369,-1.7369,-1.7369,-1.7369,-1.7797,-1.7982,-1.7993,-1.7993,-1.8004,-1.8046,-1.8941,-1.9645,-2.0177,-2.0029,-2.0211,-2.06,-2.0594,-2.0609,-2.0605,-2.0605,-2.0591,-2.0718,-2.1572,-2.1897,-2.2042,-2.2826,-2.31,-2.3113,-2.3113,-2.3094,-2.3083,-2.3083,-2.3104,-2.3091,-2.3091,-2.3091,-2.3091,-2.3091,-2.3091,-2.3091,-2.3091,-2.3091,-2.3091,-2.3091,-2.3091,-2.3091,-2.3091,-2.212,-2.1114,-2.0531,-1.8395,-1.6574,-1.592,-1.5784,-1.5784,-1.5784,-1.5705,-1.5671,-1.5764,-1.5705,-1.5678,-1.5771,-1.5691,-1.5665,-1.5771,-1.5584,-1.5571,-1.5771,-1.5584,-1.5571,-1.5778,-1.5784,-1.5784,-1.5784,-1.5784,-1.5784,-1.5784,-1.5784,-1.5784,0.0,0.0,0.0,0.0,0.0,0.0,0.0,0.0,0.0,0.0,0.0,0.0,0.0,0.0,0.0,-1.6443,-1.6414,-1.6381,-1.6383,-1.6512,-1.6597,-1.6619,-1.6653,-1.6697,-1.6697,-1.7061,-1.7119,-1.6726,-1.7002,-1.7031,-1.6716,-1.6629,-1.6619,-1.6697,-1.6697,-1.6697,-1.6697,-1.7423,-1.7782,-1.7795,-1.7923,-1.7998,-1.7983,-1.7993,-1.8502,-1.9399,-1.9331,-1.9725,-2.0382,-2.037,-2.0283,-2.0169,-2.0474,-2.0613,-2.0598,-2.0598,-2.0597,-2.0797,-2.2205,-2.2653,-2.2661,-2.2661,-2.2675,-2.2745,-2.3026,-2.3104,-2.31,-2.31,-2.3096,-2.3091,-2.3091,-2.3091,-2.3091,-2.3091,-2.3091,-2.3091,-2.3091,-2.3091,-2.3047,-2.2818,-2.1667,-2.0279,-1.9004,-1.7076,-1.5752,-1.5752,-1.5712,-1.5698,-1.5698,-1.5545,-1.5484,-1.5732,-1.5585,-1.5571,-1.5758,-1.5784,-1.5784,-1.5784,-1.5784,-1.5784,-1.5784,-1.5784,-1.5784,-1.5784,-1.5784,-1.5784,-1.5784,-1.5784,-1.5784,-1.5784,-1.5784,-1.5784,0.0,0.0,0.0,0.0,0.0,0.0,0.0,0.0,0.0,0.0,0.0,0.0,0.0,0.0,0.0,-1.5439,-1.5283,-1.5032,-1.5048,-1.5699,-1.6186,-1.6168,-1.6492,-1.6697,-1.6697,-1.6755,-1.6765,-1.6707,-1.6426,-1.6387,-1.6687,-1.6367,-1.6328,-1.6687,-1.6697,-1.6697,-1.6697,-1.6821,-1.686,-1.6877,-1.7639,-1.7997,-1.7999,-1.8005,-1.8085,-1.8256,-1.8974,-1.9372,-1.9468,-1.9455,-1.9036,-1.8488,-2.0017,-2.0581,-2.0596,-2.0596,-2.0613,-2.064,-2.0849,-2.0929,-2.0951,-2.0951,-2.0938,-2.1199,-2.2639,-2.3104,-2.311,-2.311,-2.3103,-2.3091,-2.3091,-2.3091,-2.3091,-2.3091,-2.3091,-2.3091,-2.3091,-2.3091,-2.2775,-2.1747,-1.9724,-1.7726,-1.6218,-1.5676,-1.5451,-1.5451,-1.5244,-1.517,-1.5424,-1.5424,-1.5411,-1.5451,-1.5645,-1.5738,-1.5778,-1.5784,-1.5784,-1.5784,-1.5784,-1.5784,-1.5784,-1.5784,-1.5784,-1.5784,-1.5784,-1.5784,-1.5784,-1.5784,-1.5784,-1.5784,-1.5784,-1.5784,0.0,0.0,0.0,0.0,0.0,0.0,0.0,0.0,0.0,0.0,0.0,0.0,0.0,0.0,0.0,-1.4601,-1.4513,-1.4406,-1.4408,-1.4738,-1.4967,-1.4987,-1.5358,-1.5644,-1.5644,-1.6074,-1.626,-1.5976,-1.5811,-1.5684,-1.5644,-1.5225,-1.5068,-1.5245,-1.5518,-1.5498,-1.5254,-1.5723,-1.596,-1.5966,-1.635,-1.6545,-1.6593,-1.7546,-1.7994,-1.8016,-1.8402,-1.8846,-1.9245,-1.8762,-1.8347,-1.818,-1.9912,-2.0584,-2.059,-2.0614,-2.0586,-2.0594,-2.0594,-2.0612,-2.0608,-2.0608,-2.0621,-2.0721,-2.1473,-2.2043,-2.2409,-2.2443,-2.2409,-2.2452,-2.2438,-2.2775,-2.3087,-2.3087,-2.3095,-2.2853,-2.1931,-2.1397,-2.074,-1.9517,-1.8285,-1.6989,-1.5642,-1.5264,-1.5211,-1.5371,-1.5291,-1.5311,-1.5605,-1.5498,-1.5458,-1.5618,-1.5611,-1.5651,-1.5764,-1.5784,-1.5784,-1.5784,-1.5784,-1.5784,-1.5784,-1.5784,-1.5784,-1.5784,-1.5784,-1.5784,-1.5784,-1.5784,-1.5784,-1.5784,-1.5784,-1.5013,0.0,0.0,0.0,0.0,0.0,0.0,0.0,0.0,0.0,0.0,0.0,0.0,0.0,0.0,0.0,-1.3929,-1.386,-1.3786,-1.3793,-1.387,-1.3942,-1.3955,-1.4341,-1.4619,-1.4619,-1.5195,-1.5439,-1.5107,-1.4962,-1.4834,-1.4629,-1.4182,-1.3997,-1.4104,-1.4453,-1.45,-1.4223,-1.5011,-1.5403,-1.5408,-1.5411,-1.5386,-1.5429,-1.6737,-1.7327,-1.7345,-1.7809,-1.837,-1.8924,-1.8277,-1.7987,-1.8123,-1.9435,-2.0193,-2.0599,-2.0607,-2.0584,-2.0595,-2.0594,-2.0614,-2.0605,-2.0605,-2.0585,-2.06,-2.06,-2.1058,-2.1656,-2.2097,-2.2074,-2.183,-2.1627,-2.2007,-2.2572,-2.2978,-2.2644,-2.1895,-2.0757,-1.9686,-1.8624,-1.7637,-1.7039,-1.6314,-1.5366,-1.5102,-1.5082,-1.5251,-1.5291,-1.5391,-1.5678,-1.5531,-1.5478,-1.5698,-1.5591,-1.5591,-1.5764,-1.5784,-1.5784,-1.5784,-1.5784,-1.5784,-1.5784,-1.5784,-1.5784,-1.5784,-1.5784,-1.5784,-1.5784,-1.5784,-1.5784,-1.5778,-1.5486,-1.4273,0.0,0.0,0.0,0.0,0.0,0.0,0.0,0.0,0.0,0.0,0.0,0.0,0.0,0.0,0.0,-1.3477,-1.3203,-1.2964,-1.2954,-1.3297,-1.3541,-1.3539,-1.3895,-1.4143,-1.4143,-1.4182,-1.4202,-1.4172,-1.3802,-1.3769,-1.4124,-1.3743,-1.3695,-1.4094,-1.4133,-1.428,-1.457,-1.5116,-1.5389,-1.5411,-1.5395,-1.539,-1.5404,-1.5484,-1.5548,-1.5615,-1.7288,-1.8022,-1.8047,-1.8027,-1.7987,-1.7995,-1.8113,-1.9143,-2.0587,-2.0592,-2.0614,-2.0595,-2.0605,-2.0619,-2.0605,-2.0605,-2.0615,-2.0596,-2.0596,-2.0622,-2.1007,-2.2602,-2.2476,-2.1722,-2.0878,-2.0714,-2.1122,-2.2739,-2.1345,-1.9791,-2.0052,-1.8665,-1.7214,-1.692,-1.5901,-1.4979,-1.4616,-1.4783,-1.5015,-1.5028,-1.5028,-1.5135,-1.5384,-1.5404,-1.5404,-1.5418,-1.5651,-1.5764,-1.5784,-1.5784,-1.5784,-1.5784,-1.5784,-1.5784,-1.5784,-1.5784,-1.5784,-1.5784,-1.5784,-1.5784,-1.5784,-1.5784,-1.5784,-1.5784,-1.4561,-1.392,0.0,0.0,0.0,0.0,0.0,0.0,0.0,0.0,0.0,0.0,0.0,0.0,0.0,0.0,0.0,0.0,-1.3003,-1.2905,-1.2905,-1.3008,-1.3111,-1.312,-1.3471,-1.3704,-1.3704,-1.3948,-1.4104,-1.4104,-1.3724,-1.3549,-1.3695,-1.333,-1.3174,-1.333,-1.3665,-1.4258,-1.5117,-1.4232,-1.3811,-1.3806,-1.4901,-1.5385,-1.5399,-1.5399,-1.5403,-1.542,-1.6047,-1.6975,-1.7992,-1.7988,-1.8008,-1.7996,-1.7989,-1.8366,-1.9065,-2.0178,-1.9875,-1.9069,-2.0224,-2.0584,-2.0599,-2.0614,-2.0605,-2.0605,-2.0605,-2.1005,-2.151,-2.1786,-2.2085,-2.2061,-2.1196,-2.1393,-2.1779,-2.1712,-1.9962,-1.8237,-1.7738,-1.728,-1.6684,-1.5798,-1.5106,-1.4703,-1.479,-1.4736,-1.481,-1.5184,-1.5244,-1.5344,-1.5638,-1.5671,-1.5671,-1.5671,-1.5718,-1.5784,-1.5784,-1.5784,-1.5784,-1.5784,-1.5784,-1.5784,-1.5784,-1.5784,-1.5784,-1.5784,-1.5784,-1.5784,-1.5784,-1.5784,-1.5391,-1.4555,-1.4118,-1.3,0.0,0.0,0.0,0.0,0.0,0.0,0.0,0.0,0.0,0.0,0.0,0.0,0.0,0.0,0.0,0.0,-1.2905,-1.2905,-1.2905,-1.2905,-1.2905,-1.2905,-1.315,-1.3301,-1.3301,-1.3545,-1.3685,-1.3685,-1.3457,0.0,-1.3301,-1.3062,-1.2905,-1.2905,-1.3248,-1.3806,-1.4564,-1.3466,-1.2908,-1.2931,-1.4609,-1.5395,-1.541,-1.541,-1.541,-1.5404,-1.5389,-1.6393,-1.7991,-1.7992,-1.7986,-1.8016,-1.7996,-1.8005,-1.8149,-1.9282,-1.8987,-1.8173,-1.9319,-2.0098,-2.0601,-2.0613,-2.0605,-2.0605,-2.0605,-2.1016,-2.1445,-2.1455,-2.1546,-2.1541,-2.099,-2.0944,-2.0686,-1.9574,-1.8242,-1.6952,-1.5908,-1.598,-1.589,-1.4879,-1.4509,-1.4436,-1.468,-1.4669,-1.477,-1.5057,-1.5271,-1.5464,-1.5658,-1.5685,-1.5718,-1.5771,-1.5784,-1.5784,-1.5784,-1.5784,-1.5784,-1.5784,-1.5784,-1.5784,-1.5784,-1.5784,-1.5784,-1.5784,-1.5784,-1.5784,-1.5784,-1.5784,-1.5146,-1.3872,-1.344,-1.1838,0.0,0.0,0.0,0.0,0.0,0.0,0.0,0.0,0.0,0.0,0.0,0.0,0.0,0.0,0.0,0.0,-1.2905,-1.2905,-1.2905,-1.2905,-1.2905,-1.2905,-1.2905,-1.2905,-1.2905,-1.2905,-1.2905,-1.2905,-1.2905,-1.2905,-1.2905,-1.2905,-1.2905,-1.2905,-1.2905,-1.2905,-1.2905,-1.2905,-1.2903,-1.2922,-1.4607,-1.5406,-1.541,-1.541,-1.541,-1.54,-1.5414,-1.637,-1.7934,-1.7918,-1.7938,-1.8011,-1.8006,-1.8012,-1.8008,-1.7988,-1.7989,-1.8007,-1.8016,-1.9149,-2.0581,-2.0604,-2.0595,-2.0605,-2.0605,-2.0576,-2.0762,-2.158,-2.0945,-1.9994,-2.012,-1.9071,-1.7627,-1.6395,-1.6189,-1.594,-1.4763,-1.4743,-1.4827,-1.4202,-1.4088,-1.4088,-1.4095,-1.4626,-1.4914,-1.4583,-1.5037,-1.5411,-1.5411,-1.5398,-1.5504,-1.5751,-1.5771,-1.5771,-1.5784,-1.5784,-1.5784,-1.5784,-1.5784,-1.5784,-1.5784,-1.5784,-1.5784,-1.5784,-1.5784,-1.5778,-1.573,-1.573,-1.5099,-1.383,-1.2431,-1.0435,-1.2529,0.0,0.0,0.0,0.0,0.0,0.0,0.0,0.0,0.0,0.0,0.0,0.0,0.0,0.0,0.0,0.0,-1.2905,-1.2905,-1.2905,-1.2905,-1.2905,-1.2905,-1.2905,-1.2905,-1.2905,-1.2905,0.0,-1.2905,-1.2905,-1.2905,-1.2905,-1.2905,-1.2905,-1.2905,-1.2905,-1.2905,-1.2905,-1.2903,-1.2922,-1.4607,-1.5406,-1.541,-1.541,-1.541,-1.5391,-1.539,-1.5664,-1.6118,-1.6109,-1.6872,-1.8002,-1.8011,-1.7992,-1.798,-1.7993,-1.7988,-1.7989,-1.8017,-1.9147,-2.0585,-2.0609,-2.0611,-2.0605,-2.0605,-2.025,-1.9913,-2.0153,-1.9611,-1.9008,-1.9008,-1.7837,-1.6565,-1.6302,-1.5778,-1.5149,-1.4381,-1.4436,-1.4536,-1.4162,-1.4088,-1.4155,-1.4362,-1.4716,-1.5048,-1.5137,-1.5471,-1.5712,-1.5712,-1.5524,-1.5504,-1.5751,-1.5645,-1.5605,-1.5764,-1.5784,-1.5784,-1.5784,-1.5784,-1.5784,-1.5784,-1.5784,-1.5784,-1.5784,-1.5784,-1.5343,-1.4411,-1.4411,-1.3734,-1.2382,-1.0141,-0.8676,0.0,0.0,0.0,0.0,0.0,0.0,-1.2391,-1.2511,-1.2588,0.0,-1.2705,0.0,0.0,0.0,0.0,0.0,0.0,-1.2905,-1.2905,-1.2905,-1.2905,-1.2905,-1.2905,-1.2905,-1.2905,-1.2905,-1.2905,-1.2905,-1.2905,-1.2905,-1.2905,-1.2905,-1.2905,-1.2905,-1.2905,-1.2905,-1.2905,-1.2905,-1.2886,-1.2915,-1.46,-1.5389,-1.5387,-1.5409,-1.541,-1.541,-1.541,-1.541,-1.541,-1.5409,-1.6006,-1.6924,-1.6934,-1.7354,-1.7988,-1.8012,-1.8002,-1.7988,-1.7996,-1.8673,-1.9601,-2.0076,-2.0136,-2.012,-2.0498,-1.9897,-1.9169,-1.9521,-1.8649,-1.7544,-1.7036,-1.607,-1.5283,-1.5361,-1.501,-1.4546,-1.4162,-1.4222,-1.4289,-1.4122,-1.4088,-1.4142,-1.4309,-1.4683,-1.5028,-1.5023,-1.5384,-1.5605,-1.5484,-1.5317,-1.5331,-1.5618,-1.5498,-1.5518,-1.5758,-1.5784,-1.5784,-1.5784,-1.5784,-1.5784,-1.5784,-1.5784,-1.5784,-1.5784,-1.5289,-1.4178,-1.2538,-1.3445,-1.2958,-1.1072,-0.897,-0.7988,0.0,0.0,0.0,0.0,0.0,0.0,-1.2532,-1.2444,-1.2369,-1.2744,-1.2812,0.0,0.0,0.0,0.0,0.0,0.0,0.0,-1.2905,-1.2905,-1.2905,-1.2905,-1.2905,-1.2905,-1.2905,-1.2905,-1.2905,-1.2905,-1.2905,-1.2905,-1.2905,-1.2905,-1.2905,-1.2905,-1.2905,-1.2905,-1.2905,-1.2905,-1.2889,-1.2912,-1.4406,-1.5219,-1.5401,-1.5408,-1.541,-1.541,-1.541,-1.541,-1.541,-1.541,-1.5399,-1.5387,-1.5386,-1.6341,-1.7717,-1.7938,-1.8002,-1.8013,-1.7992,-1.8002,-1.8173,-1.9242,-1.9502,-1.9486,-2.0284,-1.9621,-1.8709,-1.8906,-1.7554,-1.5796,-1.4722,-1.4282,-1.4088,-1.4088,-1.4088,-1.4088,-1.4088,-1.4088,-1.4088,-1.4088,-1.4088,-1.4088,-1.4088,-1.462,-1.4921,-1.4609,-1.5044,-1.5304,-1.5095,-1.5001,-1.5068,-1.5317,-1.5351,-1.5464,-1.5711,-1.5764,-1.5784,-1.5784,-1.5784,-1.5784,-1.5784,-1.5784,-1.573,-1.5581,-1.4172,-1.2533,-1.0618,-1.2587,-1.2231,-0.9752,-0.8577,-0.7988,0.0,0.0,0.0,0.0,0.0,0.0,-1.2318,-1.2535,-1.2676,0.0,-1.233,0.0,0.0,0.0,0.0,0.0,0.0,0.0,-1.2905,-1.2905,-1.2905,-1.2905,-1.2905,-1.2905,-1.2905,-1.2905,-1.2905,-1.2905,-1.2905,-1.2905,-1.2905,-1.2905,-1.2905,-1.2905,-1.2905,-1.2905,-1.2905,-1.2905,-1.2889,-1.2912,-1.322,-1.408,-1.5401,-1.5408,-1.541,-1.541,-1.541,-1.541,-1.541,-1.541,-1.5391,-1.539,-1.5408,-1.561,-1.6074,-1.7468,-1.8002,-1.7983,-1.8008,-1.7995,-1.8113,-1.8838,-1.9315,-1.9634,-1.9803,-1.9993,-1.9463,-1.6133,-1.4867,-1.4501,-1.4253,-1.4128,-1.4088,-1.4088,-1.4088,-1.4088,-1.4088,-1.4088,-1.4088,-1.4088,-1.4088,-1.4088,-1.4088,-1.462,-1.4988,-1.4928,-1.517,-1.5378,-1.5317,-1.4903,-1.4716,-1.5062,-1.5095,-1.5209,-1.5458,-1.5698,-1.5784,-1.5784,-1.5784,-1.5784,-1.5784,-1.5784,-1.5343,-1.4268,-1.194,-1.069,-1.0618,-1.1051,-1.0256,-0.8382,-0.8137,-0.7988,0.0,0.0,0.0,-1.2725,0.0,0.0,0.0,-1.2725,-1.2822,-1.2598,0.0,0.0,0.0,0.0,0.0,0.0,0.0,0.0,0.0,-1.2734,-1.2905,-1.2905,-1.2905,-1.2905,-1.2905,-1.2905,-1.2905,-1.2905,-1.2905,-1.2905,-1.2905,-1.2905,-1.2905,-1.2905,-1.2905,-1.2905,-1.2905,-1.2905,-1.2885,-1.2901,-1.291,-1.3772,-1.5406,-1.5397,-1.5408,-1.541,-1.541,-1.541,-1.541,-1.541,-1.541,-1.54,-1.5409,-1.5408,-1.5623,-1.7364,-1.7994,-1.7994,-1.7983,-1.8002,-1.8088,-1.8689,-1.8879,-1.8923,-1.9383,-1.8992,-1.7789,-1.4921,-1.4088,-1.4088,-1.4088,-1.4088,-1.4088,-1.4088,-1.4088,-1.4088,-1.4088,-1.4088,-1.4088,-1.4088,-1.4088,-1.4088,-1.4088,-1.462,-1.4955,-1.4763,-1.5237,-1.5451,-1.5017,-1.483,-1.4787,-1.4838,-1.4845,-1.5071,-1.5568,-1.5737,-1.5785,-1.5818,-1.5784,-1.5784,-1.5784,-1.5784,-1.5064,-1.3593,-1.1385,-0.9965,-0.9278,-0.9278,-0.8832,-0.7988,-0.7988,-0.7988,0.0,0.0,0.0,0.0,0.0,-1.2725,0.0,0.0,0.0,0.0,0.0,0.0,0.0,0.0,0.0,0.0,0.0,0.0,0.0,-1.2376,0.0,-1.2589,-1.2773,-1.2866,-1.2764,-1.2754,-1.2793,-1.2895,-1.2803,-1.2793,-1.2895,-1.2905,-1.2905,-1.2905,-1.2905,-1.2905,-1.2905,-1.2905,-1.2905,-1.2905,-1.2903,-1.3597,-1.4921,-1.5255,-1.5392,-1.541,-1.541,-1.541,-1.541,-1.541,-1.541,-1.541,-1.541,-1.5399,-1.5583,-1.6984,-1.7696,-1.7973,-1.7831,-1.7862,-1.807,-1.8437,-1.8068,-1.753,-1.7845,-1.6924,-1.5544,-1.4317,-1.4041,-1.4088,-1.4088,-1.4088,-1.4088,-1.4088,-1.4088,-1.4088,-1.4088,-1.4088,-1.4088,-1.4088,-1.4088,-1.4088,-1.4088,-1.4529,-1.4796,-1.4556,-1.5078,-1.5317,-1.4616,-1.4727,-1.4754,-1.4613,-1.4589,-1.4838,-1.5421,-1.5674,-1.5784,-1.5812,-1.5784,-1.5784,-1.5784,-1.5777,-1.4888,-1.297,-1.107,-0.9426,-0.7988,-0.7988,-0.7988,-0.7988,-0.7988,-0.7988,0.0,0.0,0.0,0.0,-1.2393,0.0,0.0,0.0,-1.2856,-1.2759,0.0,0.0,0.0,0.0,0.0,0.0,0.0,0.0,-1.1356,-1.1689,-1.1891,-1.1522,-1.2308,-1.2725,-1.2231,-1.2182,-1.2381,-1.2852,-1.2462,-1.2414,-1.2861,-1.2905,-1.2905,-1.2905,-1.2905,-1.2905,-1.2905,-1.2905,-1.2905,-1.2905,-1.2903,-1.2987,-1.3219,-1.4729,-1.5392,-1.541,-1.541,-1.541,-1.541,-1.541,-1.541,-1.541,-1.541,-1.5399,-1.5423,-1.5623,-1.6685,-1.7878,-1.7125,-1.734,-1.7933,-1.7461,-1.6502,-1.5194,-1.3595,-1.3669,-1.4233,-1.3728,-1.3833,-1.4088,-1.4088,-1.4088,-1.4088,-1.4088,-1.4088,-1.4088,-1.4088,-1.4088,-1.4088,-1.4088,-1.4088,-1.4088,-1.4088,-1.4355,-1.4563,-1.4522,-1.4559,-1.4636,-1.4687,-1.4421,-1.4175,-1.4184,-1.417,-1.4208,-1.4276,-1.5198,-1.5784,-1.5812,-1.5784,-1.5784,-1.5784,-1.5792,-1.4619,-1.2121,-0.9591,-0.8187,-0.7988,-0.7988,-0.7988,-0.7988,-0.7988,-0.7988,0.0,0.0,0.0,0.0,0.0,0.0,-1.2295,0.0,-1.2759,0.0,0.0,0.0,0.0,0.0,0.0,0.0,-1.1816,0.0,0.0,0.0,-1.1554,0.0,0.0,0.0,-1.2082,-1.2092,-1.2322,-1.2866,-1.229,-1.2209,-1.2876,-1.2905,-1.2905,-1.2905,-1.2905,-1.2905,-1.2905,-1.2905,-1.2905,-1.2905,-1.2894,-1.2893,-1.2967,-1.4649,-1.5391,-1.541,-1.541,-1.541,-1.541,-1.541,-1.541,-1.539,-1.539,-1.5399,-1.5417,-1.5409,-1.6501,-1.7885,-1.7003,-1.7273,-1.7599,-1.5101,-1.3964,-1.3362,-1.2554,-1.2827,-1.3418,-1.3459,-1.3645,-1.3868,-1.4041,-1.4088,-1.4088,-1.4088,-1.4088,-1.4088,-1.4088,-1.4088,-1.4088,-1.4088,-1.4088,-1.4088,-1.4088,-1.4329,-1.4462,-1.4295,-1.4613,-1.4757,-1.4408,-1.4408,-1.4368,-1.4108,-1.4097,-1.4256,-1.4571,-1.5122,-1.5548,-1.5805,-1.5784,-1.5811,-1.5823,-1.4346,-1.3737,-1.4164,-1.0123,-0.7988,-0.7988,-0.7988,-0.7988,-0.7988,-0.7988,-0.7988,-1.0712,0.0,0.0,0.0,0.0,0.0,0.0,0.0,0.0,0.0,0.0,0.0,0.0,0.0,0.0,0.0,0.0,0.0,0.0,0.0,0.0,0.0,0.0,0.0,0.0,-1.1486,-1.1653,-1.2447,-1.1744,-1.1759,-1.2842,-1.2905,-1.2905,-1.2905,-1.2905,-1.2905,-1.2905,-1.2905,-1.2905,-1.2905,-1.2905,-1.2899,-1.2971,-1.463,-1.5395,-1.5409,-1.5391,-1.539,-1.54,-1.541,-1.5409,-1.5328,-1.4437,-1.4084,-1.4178,-1.5072,-1.5914,-1.6587,-1.619,-1.6355,-1.6261,-1.3252,-1.2305,-1.2301,-1.23,-1.2589,-1.2916,-1.3227,-1.3413,-1.3553,-1.3888,-1.3968,-1.3988,-1.4068,-1.4088,-1.4088,-1.4088,-1.4088,-1.4088,-1.4088,-1.4088,-1.4088,-1.4088,-1.4262,-1.4329,-1.4122,-1.4549,-1.4714,-1.4184,-1.4368,-1.4421,-1.4108,-1.4088,-1.4322,-1.4955,-1.5214,-1.5472,-1.5792,-1.5784,-1.5797,-1.5798,-1.2587,-1.1741,-1.361,-0.9925,-0.7988,-0.7988,-0.7988,-0.7988,-0.7988,-0.7988,-0.7988,0.0,0.0,0.0,-1.0636,0.0,0.0,0.0,0.0,-1.248,0.0,0.0,0.0,0.0,0.0,0.0,0.0,0.0,0.0,0.0,0.0,0.0,0.0,0.0,0.0,0.0,-0.9914,-0.9981,-1.1436,-1.0563,-1.0819,-1.2779,-1.2905,-1.2905,-1.2905,-1.2905,-1.2905,-1.2905,-1.2905,-1.2905,-1.2905,-1.2905,-1.2908,-1.2966,-1.4635,-1.5399,-1.5397,-1.541,-1.5403,-1.5394,-1.5404,-1.5397,-1.5092,-1.1974,-1.0752,-1.113,-1.425,-1.4459,-1.3288,-1.4179,-1.4071,-1.3407,-1.2576,-1.2305,-1.2305,-1.2311,-1.2556,-1.2829,-1.2811,-1.2993,-1.3293,-1.354,-1.362,-1.3686,-1.4015,-1.4088,-1.4088,-1.4088,-1.4088,-1.4088,-1.4088,-1.4088,-1.4088,-1.4088,-1.4095,-1.4095,-1.4088,-1.4102,-1.4108,-1.4088,-1.4095,-1.4095,-1.4088,-1.4088,-1.4322,-1.4955,-1.5473,-1.578,-1.5798,-1.5784,-1.5789,-1.5778,-1.0861,-0.8171,-0.824,-0.8091,-0.7988,-0.7988,-0.7988,-0.7988,-0.7988,-0.7988,-0.7988,0.0,0.0,-0.951,-0.9961,0.0,0.0,0.0,0.0,0.0,0.0,0.0,0.0,0.0,0.0,0.0,0.0,0.0,0.0,0.0,0.0,0.0,0.0,0.0,0.0,0.0,0.0,0.0,-1.1618,-1.1161,-1.1439,-1.2842,-1.2905,-1.2905,-1.2905,-1.2905,-1.2905,-1.2905,-1.2905,-1.2905,-1.2905,-1.2897,-1.2912,-1.2908,-1.3486,-1.4364,-1.5283,-1.3148,-1.222,-1.2233,-1.2208,-1.3472,-1.5091,-1.1859,-1.0604,-1.0856,-1.3011,-1.3466,-1.2931,-1.256,-1.2822,-1.3192,-1.2215,-1.2065,-1.2305,-1.2305,-1.2371,-1.2529,-1.273,-1.2857,-1.3012,-1.328,-1.346,-1.358,-1.3527,-1.3808,-1.4035,-1.3834,-1.3948,-1.4088,-1.4088,-1.4088,-1.4088,-1.4088,-1.4088,-1.4088,-1.4088,-1.4088,-1.4088,-1.4088,-1.4088,-1.4088,-1.4088,-1.4088,-1.4249,-1.4636,-1.5179,-1.5594,-1.5791,-1.5798,-1.582,-1.5791,-1.076,-0.8009,-0.7988,-0.7988,-0.7988,-0.7988,-0.7988,-0.7988,-0.7988,-0.7988,-0.7988,-0.8804,-0.8804,0.0,-0.9562,-0.9744,0.0,-1.0415,0.0,-1.0618,0.0,0.0,0.0,0.0,0.0,0.0,0.0,0.0,0.0,0.0,-0.9934,0.0,0.0,0.0,0.0,0.0,0.0,-1.0179,-1.143,-1.1131,-1.1484,0.0,-1.2895,-1.2905,-1.2905,-1.2905,-1.2905,-1.2905,-1.2905,-1.29,-1.29,-1.2897,-1.3214,-1.3789,-1.3792,-1.4383,-1.5232,-1.1991,-1.0606,-1.0605,-1.0595,-1.1813,-1.359,-1.2677,-1.1605,-1.0779,-1.2173,-1.2788,-1.2759,-1.1757,-1.2086,-1.2835,-1.2148,-1.2108,-1.2305,-1.2305,-1.2305,-1.2345,-1.2569,-1.2623,-1.2697,-1.2966,-1.3267,-1.34,-1.3253,-1.3661,-1.4008,-1.3666,-1.3874,-1.4088,-1.4088,-1.4088,-1.4088,-1.4088,-1.4088,-1.4088,-1.4088,-1.4088,-1.4088,-1.4088,-1.4088,-1.4088,-1.4088,-1.4088,-1.4208,-1.4496,-1.5057,-1.545,-1.5655,-1.5145,-1.4732,-1.443,-1.0266,-0.798,-0.7988,-0.7988,-0.7988,-0.7988,-0.7988,-0.7988,-0.7988,-0.7988,-0.7988]}]]